[[{"header":{"parameterUnit":"m.s-1","parameterCategory":1,"la1":30.6,"la2":29.2853,"lo1":-89.7004,"lo2":-87.6739,"dy":0.0162,"dx":0.0183,"nx":112,"ny":82,"refTime":"2026-05-19T00:00:00:Z","depth":0,"parameterNumber":2,"parameterNumberName":"U-component_of_WINDS"},"data":[0.0,0.0,0.0,0.0,0.0,0.0,0.0,0.0,0.0,0.0,0.0,0.0,0.0,0.0,0.0,0.0,0.0,0.0,0.0,0.0,0.0,0.0,0.0,0.0,0.0,0.0,0.0,0.0,0.0,0.0,0.0,0.0,0.0,0.0,0.0,0.0,0.0,0.0,0.0,0.0,0.0,0.0,0.0,0.0,0.0,0.0,0.0,0.0,0.0,0.0,0.0,0.0,0.0,0.0,0.0,0.0,0.0,0.0,0.0,0.0,0.0,0.0,0.0,0.0,0.0,0.0,0.0,0.0,0.0,0.0,0.0,0.0,0.0,0.0,0.0,0.0,0.0,0.0,0.0,0.0,0.0,0.0,0.0,0.0,0.0,0.0,0.0,0.0,0.0,0.0,-4.8487,-5.1928,-5.6439,-5.914,-5.9004,-5.7402,-5.3574,-4.6914,0.0,0.0,0.0,0.0,0.0,0.0,0.0,0.0,0.0,0.0,0.0,0.0,0.0,0.0,0.0,0.0,0.0,0.0,0.0,0.0,0.0,0.0,0.0,0.0,0.0,0.0,0.0,0.0,0.0,0.0,0.0,0.0,0.0,0.0,0.0,0.0,0.0,0.0,0.0,0.0,0.0,0.0,0.0,0.0,0.0,0.0,0.0,0.0,0.0,0.0,0.0,0.0,0.0,0.0,0.0,0.0,0.0,0.0,0.0,0.0,0.0,0.0,0.0,0.0,0.0,0.0,0.0,0.0,0.0,0.0,0.0,0.0,0.0,0.0,0.0,0.0,0.0,0.0,0.0,0.0,0.0,0.0,0.0,0.0,0.0,0.0,0.0,0.0,0.0,0.0,0.0,0.0,0.0,0.0,0.0,0.0,0.0,0.0,0.0,0.0,0.0,0.0,0.0,0.0,-4.8846,-5.5976,-5.8215,-5.8906,-5.8164,-5.6504,-5.3183,-4.7754,0.0,0.0,0.0,0.0,0.0,0.0,0.0,0.0,0.0,0.0,0.0,0.0,0.0,0.0,0.0,0.0,0.0,0.0,0.0,0.0,0.0,0.0,0.0,0.0,0.0,0.0,0.0,0.0,0.0,0.0,0.0,0.0,0.0,0.0,0.0,0.0,0.0,0.0,0.0,0.0,0.0,0.0,0.0,0.0,0.0,0.0,0.0,0.0,0.0,0.0,0.0,0.0,0.0,0.0,0.0,0.0,0.0,0.0,0.0,0.0,0.0,0.0,0.0,0.0,0.0,0.0,0.0,0.0,0.0,0.0,0.0,0.0,0.0,0.0,0.0,0.0,0.0,0.0,0.0,0.0,0.0,0.0,0.0,0.0,0.0,0.0,0.0,0.0,0.0,0.0,0.0,0.0,0.0,0.0,0.0,0.0,0.0,0.0,0.0,0.0,0.0,0.0,0.0,-4.6654,-5.0068,-5.6962,-5.776,-5.7636,-5.7226,-5.5605,-5.2187,-4.6543,-4.3769,0.0,0.0,0.0,0.0,0.0,0.0,0.0,0.0,0.0,0.0,0.0,0.0,0.0,0.0,0.0,0.0,0.0,0.0,0.0,0.0,0.0,0.0,0.0,0.0,0.0,0.0,0.0,0.0,0.0,0.0,0.0,0.0,0.0,0.0,0.0,0.0,0.0,0.0,0.0,0.0,0.0,0.0,0.0,0.0,0.0,0.0,0.0,0.0,0.0,0.0,0.0,0.0,0.0,0.0,0.0,0.0,0.0,0.0,0.0,0.0,0.0,0.0,0.0,0.0,0.0,0.0,0.0,0.0,0.0,0.0,0.0,0.0,0.0,0.0,0.0,0.0,0.0,0.0,0.0,0.0,0.0,0.0,0.0,0.0,0.0,0.0,0.0,0.0,0.0,0.0,0.0,0.0,0.0,0.0,0.0,0.0,0.0,0.0,0.0,0.0,0.0,0.0,-4.8863,-5.1141,-5.62,-5.6252,-5.5951,-5.5976,-5.4023,-5.0566,-4.5332,-4.2031,0.0,0.0,0.0,0.0,0.0,0.0,0.0,0.0,0.0,0.0,0.0,0.0,0.0,0.0,0.0,0.0,0.0,0.0,0.0,0.0,0.0,0.0,0.0,0.0,0.0,0.0,0.0,0.0,0.0,0.0,0.0,0.0,0.0,0.0,0.0,0.0,0.0,0.0,0.0,0.0,0.0,0.0,0.0,0.0,0.0,0.0,0.0,0.0,0.0,0.0,0.0,0.0,0.0,0.0,0.0,0.0,0.0,0.0,0.0,0.0,0.0,0.0,0.0,0.0,0.0,0.0,0.0,0.0,0.0,0.0,0.0,0.0,0.0,0.0,0.0,0.0,0.0,0.0,0.0,0.0,0.0,0.0,0.0,0.0,0.0,0.0,0.0,0.0,0.0,0.0,0.0,0.0,0.0,0.0,0.0,0.0,0.0,0.0,0.0,0.0,0.0,0.0,-4.8229,-5.1554,-5.3669,-5.3947,-5.4047,-5.4177,-5.1151,-4.8046,-4.5176,-4.0332,0.0,0.0,0.0,0.0,0.0,0.0,0.0,0.0,0.0,0.0,0.0,0.0,0.0,0.0,0.0,0.0,0.0,0.0,0.0,0.0,0.0,0.0,0.0,0.0,0.0,0.0,0.0,0.0,0.0,0.0,0.0,0.0,0.0,0.0,0.0,0.0,0.0,0.0,0.0,0.0,0.0,0.0,0.0,0.0,0.0,0.0,0.0,0.0,0.0,0.0,0.0,0.0,0.0,0.0,0.0,0.0,0.0,0.0,0.0,0.0,0.0,0.0,0.0,0.0,0.0,0.0,0.0,0.0,0.0,0.0,0.0,0.0,0.0,0.0,0.0,0.0,0.0,0.0,0.0,0.0,0.0,0.0,0.0,0.0,0.0,0.0,0.0,0.0,0.0,0.0,0.0,0.0,0.0,0.0,0.0,0.0,0.0,0.0,0.0,0.0,0.0,0.0,-4.6813,-4.9841,-5.3139,-5.3597,-5.3284,-5.2329,-5.0614,-4.7578,-4.287,0.0,0.0,0.0,0.0,0.0,0.0,0.0,0.0,0.0,0.0,0.0,0.0,0.0,0.0,0.0,0.0,0.0,0.0,0.0,0.0,0.0,0.0,0.0,0.0,0.0,0.0,0.0,0.0,0.0,0.0,0.0,0.0,0.0,0.0,0.0,0.0,0.0,0.0,0.0,0.0,0.0,0.0,0.0,0.0,0.0,0.0,0.0,0.0,0.0,0.0,0.0,0.0,0.0,0.0,0.0,0.0,0.0,0.0,0.0,0.0,0.0,0.0,0.0,0.0,0.0,0.0,0.0,0.0,0.0,0.0,0.0,0.0,0.0,0.0,0.0,0.0,0.0,0.0,0.0,0.0,0.0,0.0,0.0,0.0,0.0,0.0,0.0,0.0,0.0,0.0,0.0,0.0,0.0,0.0,0.0,0.0,0.0,0.0,0.0,0.0,0.0,0.0,-4.3275,-4.6,-4.8805,-5.2237,-5.2686,-5.22,-5.0864,-4.9269,-4.6237,-4.1372,0.0,0.0,0.0,0.0,0.0,0.0,0.0,0.0,0.0,0.0,0.0,0.0,0.0,0.0,0.0,0.0,0.0,0.0,0.0,0.0,0.0,0.0,0.0,0.0,0.0,0.0,0.0,0.0,0.0,0.0,0.0,0.0,0.0,0.0,0.0,0.0,0.0,0.0,0.0,0.0,0.0,0.0,0.0,0.0,0.0,0.0,0.0,0.0,0.0,0.0,0.0,0.0,0.0,0.0,0.0,0.0,0.0,0.0,0.0,0.0,0.0,0.0,0.0,0.0,0.0,0.0,0.0,0.0,0.0,0.0,0.0,0.0,0.0,0.0,0.0,0.0,0.0,0.0,0.0,0.0,0.0,0.0,0.0,0.0,0.0,0.0,0.0,0.0,0.0,0.0,0.0,0.0,0.0,0.0,0.0,0.0,0.0,0.0,0.0,0.0,0.0,0.0,-4.2624,-4.6009,-4.8794,-5.0658,-5.0875,-5.0562,-4.9823,-4.6649,-4.3638,0.0,0.0,0.0,0.0,0.0,0.0,0.0,0.0,0.0,0.0,0.0,0.0,0.0,0.0,0.0,0.0,0.0,0.0,0.0,0.0,0.0,0.0,0.0,0.0,0.0,0.0,0.0,0.0,0.0,0.0,0.0,0.0,0.0,0.0,0.0,0.0,0.0,0.0,0.0,0.0,0.0,0.0,0.0,0.0,0.0,0.0,0.0,0.0,0.0,0.0,0.0,0.0,0.0,0.0,0.0,0.0,0.0,0.0,0.0,0.0,0.0,0.0,0.0,0.0,0.0,0.0,0.0,0.0,0.0,0.0,0.0,0.0,0.0,0.0,0.0,0.0,0.0,0.0,0.0,0.0,0.0,0.0,0.0,0.0,0.0,0.0,0.0,0.0,0.0,0.0,0.0,0.0,0.0,0.0,0.0,0.0,0.0,0.0,0.0,0.0,0.0,0.0,0.0,-4.092,-4.4778,-4.7681,-4.8803,-4.8927,-4.8638,-4.7901,-4.5829,-4.3022,-3.9399,0.0,0.0,0.0,0.0,0.0,0.0,0.0,0.0,0.0,0.0,0.0,0.0,0.0,0.0,0.0,0.0,0.0,0.0,0.0,0.0,0.0,0.0,0.0,0.0,0.0,0.0,0.0,0.0,0.0,0.0,0.0,0.0,0.0,0.0,0.0,0.0,0.0,0.0,0.0,0.0,0.0,0.0,0.0,0.0,0.0,0.0,0.0,0.0,0.0,0.0,0.0,0.0,0.0,0.0,0.0,0.0,0.0,0.0,0.0,0.0,0.0,0.0,0.0,0.0,0.0,0.0,0.0,0.0,0.0,0.0,0.0,0.0,0.0,0.0,0.0,0.0,0.0,0.0,0.0,0.0,0.0,0.0,0.0,0.0,0.0,0.0,0.0,0.0,0.0,0.0,0.0,0.0,0.0,0.0,0.0,0.0,0.0,0.0,0.0,0.0,0.0,0.0,-4.0092,-4.3932,-4.6817,-4.799,-4.8105,-4.7776,-4.7039,-4.5407,-4.2653,-3.8542,0.0,0.0,0.0,0.0,0.0,0.0,0.0,0.0,0.0,0.0,0.0,0.0,0.0,0.0,0.0,0.0,0.0,0.0,0.0,0.0,0.0,0.0,0.0,0.0,0.0,0.0,0.0,0.0,0.0,0.0,0.0,0.0,0.0,0.0,0.0,0.0,0.0,0.0,0.0,0.0,0.0,0.0,0.0,0.0,0.0,0.0,0.0,0.0,0.0,0.0,0.0,0.0,0.0,0.0,0.0,0.0,0.0,0.0,0.0,0.0,0.0,0.0,0.0,0.0,0.0,0.0,0.0,0.0,0.0,0.0,0.0,0.0,0.0,0.0,0.0,0.0,0.0,0.0,0.0,0.0,0.0,0.0,0.0,0.0,0.0,0.0,0.0,0.0,0.0,0.0,0.0,0.0,0.0,0.0,0.0,0.0,0.0,0.0,0.0,0.0,0.0,0.0,-3.9746,-4.3324,-4.6086,-4.7702,-4.7798,-4.7451,-4.6721,-4.5066,-4.2352,-3.835,0.0,0.0,0.0,0.0,0.0,0.0,0.0,0.0,0.0,0.0,0.0,0.0,0.0,0.0,0.0,0.0,0.0,0.0,0.0,0.0,0.0,0.0,0.0,0.0,0.0,0.0,0.0,0.0,0.0,0.0,0.0,0.0,0.0,0.0,0.0,0.0,0.0,0.0,0.0,0.0,0.0,0.0,0.0,0.0,0.0,0.0,0.0,0.0,0.0,0.0,0.0,0.0,0.0,0.0,0.0,0.0,0.0,0.0,0.0,0.0,-4.3626,-4.2486,0.0,0.0,0.0,0.0,0.0,0.0,0.0,0.0,0.0,0.0,0.0,0.0,0.0,0.0,0.0,0.0,0.0,0.0,0.0,0.0,0.0,0.0,0.0,0.0,0.0,0.0,0.0,0.0,0.0,0.0,0.0,0.0,0.0,0.0,0.0,0.0,0.0,0.0,0.0,0.0,-3.8161,-4.2066,-4.497,-4.6018,-4.5509,-4.5047,-4.4874,-4.3316,-4.112,-3.8273,-3.5535,0.0,0.0,0.0,0.0,0.0,0.0,0.0,0.0,0.0,0.0,0.0,0.0,0.0,0.0,0.0,0.0,0.0,0.0,0.0,0.0,0.0,0.0,0.0,0.0,0.0,0.0,0.0,0.0,0.0,0.0,0.0,0.0,0.0,0.0,0.0,0.0,0.0,0.0,0.0,0.0,0.0,0.0,0.0,0.0,0.0,0.0,0.0,0.0,0.0,0.0,0.0,0.0,0.0,0.0,0.0,0.0,0.0,0.0,0.0,-4.5718,-4.4856,0.0,0.0,0.0,0.0,0.0,0.0,0.0,0.0,0.0,0.0,0.0,0.0,0.0,0.0,0.0,0.0,0.0,0.0,0.0,0.0,0.0,0.0,0.0,0.0,0.0,0.0,0.0,0.0,0.0,0.0,0.0,0.0,0.0,0.0,0.0,0.0,0.0,0.0,0.0,0.0,-3.7624,-4.0941,-4.3372,-4.4217,-4.3936,-4.3675,-4.3675,-4.2511,-4.0723,-3.8214,-3.6055,0.0,0.0,0.0,0.0,0.0,0.0,0.0,0.0,0.0,0.0,0.0,0.0,0.0,0.0,0.0,0.0,0.0,0.0,0.0,0.0,0.0,0.0,0.0,0.0,0.0,0.0,0.0,0.0,0.0,0.0,0.0,0.0,0.0,0.0,0.0,0.0,0.0,0.0,0.0,0.0,0.0,0.0,0.0,0.0,0.0,0.0,0.0,0.0,0.0,0.0,0.0,0.0,0.0,-5.1308,-5.1122,-4.9935,-5.0081,-4.9971,-4.9626,-4.756,-4.7252,-4.8025,-4.6194,0.0,0.0,0.0,0.0,0.0,0.0,0.0,0.0,0.0,0.0,0.0,0.0,0.0,0.0,0.0,0.0,0.0,0.0,0.0,0.0,0.0,0.0,-4.1601,-4.0307,-4.1406,-4.1656,-3.7638,0.0,0.0,0.0,0.0,0.0,0.0,0.0,0.0,0.0,0.0,0.0,-3.7579,-4.0125,-4.2007,-4.2821,-4.2818,-4.2768,-4.2768,-4.189,-4.0369,-3.812,-3.6409,-3.4134,0.0,0.0,0.0,0.0,0.0,0.0,0.0,0.0,0.0,0.0,0.0,0.0,0.0,0.0,0.0,0.0,0.0,0.0,0.0,0.0,0.0,0.0,0.0,0.0,0.0,0.0,0.0,0.0,0.0,0.0,0.0,0.0,-4.2826,-4.4302,0.0,0.0,0.0,0.0,0.0,0.0,0.0,0.0,0.0,0.0,0.0,0.0,0.0,-4.9795,-4.9728,-5.2088,-5.2888,-5.2117,-5.4445,-5.4074,-5.1267,-5.1965,-5.156,-5.0271,-4.9949,0.0,-4.7731,-4.8091,0.0,0.0,0.0,0.0,0.0,0.0,0.0,0.0,0.0,0.0,0.0,0.0,0.0,0.0,0.0,0.0,0.0,0.0,0.0,0.0,0.0,0.0,-4.5039,-4.4156,-4.3659,-4.3015,-4.1689,-3.8869,-3.5862,-3.3406,-3.2562,-3.1638,0.0,0.0,0.0,0.0,0.0,0.0,-3.7578,-4.0128,-4.2007,-4.2821,-4.2284,-4.1862,-4.1862,-4.0394,-3.9013,-3.7969,-3.6282,-3.4813,-3.3662,-3.1494,0.0,0.0,0.0,0.0,0.0,0.0,0.0,0.0,0.0,0.0,0.0,0.0,0.0,0.0,0.0,0.0,0.0,0.0,0.0,0.0,0.0,0.0,0.0,0.0,0.0,0.0,0.0,0.0,0.0,-4.2413,-4.4136,-4.4756,-4.4719,-4.4097,0.0,0.0,0.0,0.0,0.0,0.0,0.0,0.0,0.0,-4.8522,-5.1189,-5.2707,-5.2847,-5.4717,-5.4998,-5.3771,-5.5225,-5.4498,-5.1925,-5.2262,-5.1801,-5.0822,-5.1266,-5.0328,-4.8493,-4.8404,-4.7205,-4.5319,0.0,0.0,0.0,0.0,-4.4507,-4.3993,-4.5241,-4.5443,-4.4856,-4.3149,0.0,0.0,0.0,0.0,0.0,0.0,0.0,-4.148,-4.3222,-4.4764,-4.57,-4.4892,-4.4782,-4.425,-4.2103,-4.0735,-3.9114,-3.6329,-3.5595,-3.4408,-3.1145,-3.113,0.0,0.0,0.0,-3.6211,-3.8295,-3.9943,-4.1044,-4.1408,-4.0727,-4.0227,-4.0227,-3.9122,-3.8065,-3.7214,-3.6447,-3.545,-3.4153,-3.3034,-3.1424,0.0,0.0,0.0,0.0,0.0,0.0,0.0,0.0,0.0,0.0,0.0,0.0,0.0,0.0,0.0,0.0,0.0,0.0,0.0,0.0,0.0,0.0,0.0,0.0,0.0,0.0,0.0,0.0,-4.4156,-4.5365,-4.5569,-4.6487,-4.6153,0.0,0.0,0.0,0.0,0.0,0.0,-4.6242,-4.9332,-5.1075,-5.1011,-5.3425,-5.4819,-5.5007,-5.605,-5.5998,-5.4796,-5.5253,-5.4279,-5.2081,-5.2081,-5.1555,-5.0715,-5.1322,-5.0707,-4.9233,-4.862,-4.7832,-4.6874,-4.5592,-4.4478,-4.3888,-4.6042,-4.6317,-4.5843,-4.7384,-4.7936,-4.7551,-4.5334,-4.4345,-4.3594,-4.1412,0.0,0.0,0.0,0.0,-4.1942,-4.4344,-4.5443,-4.5755,-4.5149,-4.5461,-4.5076,-4.2066,-4.1735,-4.127,-3.8818,-3.8201,-3.6978,-3.3417,-3.356,0.0,-3.3589,-3.5346,-3.7259,-3.8784,-3.9757,-4.0205,-3.9995,-3.9429,-3.8978,-3.8767,-3.7997,-3.7266,-3.6626,-3.6377,-3.5687,-3.4423,-3.4174,-3.2986,-3.0649,0.0,0.0,0.0,0.0,0.0,0.0,0.0,0.0,0.0,0.0,0.0,0.0,0.0,0.0,0.0,0.0,0.0,0.0,0.0,0.0,0.0,0.0,0.0,0.0,0.0,0.0,0.0,0.0,0.0,-4.7665,-4.9032,0.0,0.0,0.0,0.0,-4.6493,-4.7458,-4.8833,-5.0773,-5.2564,-5.3529,-5.3512,-5.4362,-5.4805,-5.4805,-5.5075,-5.5091,-5.4805,-5.5039,-5.3926,-5.1751,-5.1751,-5.0946,-4.959,-4.9624,-4.9577,-4.947,-4.9433,-4.7954,-4.5629,-4.4977,-4.4401,-4.4139,-4.5534,-4.554,-4.5063,-4.6413,-4.6879,-4.6606,-4.4947,-4.3379,-4.2266,-4.285,-4.1938,0.0,0.0,-4.2044,-4.2699,-4.5132,-4.581,-4.5883,-4.5847,-4.5865,-4.5223,-4.2763,-4.168,-4.0891,-3.9971,-3.932,-3.8623,-3.7635,0.0,-3.5589,-3.5563,-3.6535,-3.7599,-3.8509,-3.9613,-3.9976,-3.9145,-3.903,-3.8667,-3.7835,-3.7024,-3.6547,-3.6509,-3.5725,-3.5229,-3.5152,-3.4415,-3.3192,-3.1472,-3.0574,0.0,0.0,0.0,0.0,0.0,0.0,0.0,0.0,0.0,0.0,0.0,0.0,0.0,0.0,0.0,0.0,0.0,0.0,0.0,0.0,0.0,0.0,0.0,0.0,0.0,0.0,0.0,0.0,-4.9917,-5.1369,0.0,-4.9458,-4.9678,-5.0067,-5.0321,-5.1569,-5.2416,-5.2672,-5.4584,-5.5465,-5.499,-5.616,-5.6804,-5.6804,-5.6382,-5.5907,-5.5381,-5.4483,-5.3108,-5.1361,-5.09,-5.0136,-4.9185,-4.9185,-4.9185,-4.9114,-4.8249,-4.76,-4.7073,-4.6394,-4.6092,-4.6208,-4.7421,-4.7558,-4.7226,-4.7904,-4.8389,-4.8456,-4.7146,-4.564,-4.4272,-4.4035,-4.3214,-4.2522,-4.3324,-4.3579,-4.3926,-4.5313,-4.6063,-4.6247,-4.5297,-4.5462,-4.504,-4.2159,-4.1717,-4.1479,-4.0157,-3.9298,-3.8589,-3.7919,-3.7387,-3.692,-3.6517,-3.7284,-3.8192,-3.907,-3.9528,-3.9526,-3.8829,-3.8231,-3.7643,-3.6969,-3.6137,-3.5439,-3.4923,-3.4598,-3.4178,-3.3616,-3.331,-3.2649,-3.1522,-3.0643,-2.8797,0.0,0.0,0.0,0.0,0.0,0.0,0.0,0.0,0.0,0.0,0.0,0.0,0.0,0.0,0.0,0.0,0.0,0.0,0.0,0.0,0.0,0.0,0.0,0.0,0.0,-4.8832,-5.093,-5.1183,-5.323,-5.3822,-5.1775,-5.2486,-5.3078,-5.3078,-5.4245,-5.4871,-5.4634,-5.6241,-5.6951,-5.6461,-5.7154,-5.7526,-5.7526,-5.6799,-5.5936,-5.4955,-5.3974,-5.257,-5.0811,-5.0321,-4.9695,-4.9001,-4.9001,-4.8866,-4.8545,-4.7412,-4.7062,-4.7165,-4.6452,-4.6236,-4.6429,-4.7347,-4.753,-4.7441,-4.8022,-4.8404,-4.8489,-4.7733,-4.6417,-4.4997,-4.4452,-4.3742,-4.3214,-4.3742,-4.3943,-4.4162,-4.4964,-4.5566,-4.575,-4.4748,-4.473,-4.4199,-4.1563,-4.1196,-4.1066,-4.0004,-3.9428,-3.8974,-3.8567,-3.8274,-3.7877,-3.7197,-3.7903,-3.8615,-3.8927,-3.9283,-3.913,-3.8161,-3.7548,-3.6837,-3.5903,-3.512,-3.452,-3.4192,-3.372,-3.329,-3.293,-3.2703,-3.2221,-3.1409,-3.0309,-2.8809,-2.6823,0.0,0.0,0.0,0.0,0.0,0.0,0.0,0.0,0.0,0.0,0.0,0.0,0.0,0.0,0.0,0.0,0.0,0.0,0.0,0.0,0.0,0.0,0.0,-4.6921,-5.0067,-5.2131,-5.1471,-5.4617,-5.57,-5.2756,-5.3822,-5.4685,-5.4685,-5.5361,-5.6089,-5.6799,-5.7509,-5.7881,-5.7881,-5.7205,-5.6816,-5.6799,-5.6089,-5.4989,-5.3534,-5.3467,-5.2266,-5.0118,-5.0084,-4.9678,-4.9001,-4.9001,-4.8595,-4.7821,-4.7107,-4.6363,-4.5635,-4.5026,-4.472,-4.4682,-4.5125,-4.5276,-4.5433,-4.6478,-4.6693,-4.6499,-4.6483,-4.5397,-4.4132,-4.4095,-4.3534,-4.2901,-4.2901,-4.2994,-4.3286,-4.4049,-4.4307,-4.4381,-4.4364,-4.3762,-4.2758,-4.1154,-4.0169,-3.9586,-3.9568,-3.9733,-3.9863,-3.9882,-3.9239,-3.8432,-3.7658,-3.8422,0.0,-3.7992,-3.8782,-3.8795,-3.7125,-3.6956,-3.628,-3.4639,-3.3959,-3.3856,-3.4387,-3.3148,-3.2647,-3.3195,-3.2628,-3.1941,-3.1172,-2.9672,-2.849,-2.7701,0.0,0.0,0.0,0.0,0.0,0.0,0.0,0.0,0.0,0.0,0.0,0.0,0.0,0.0,0.0,0.0,0.0,0.0,0.0,0.0,0.0,-4.6861,-4.9251,-4.99,-5.2283,-5.4296,-5.5158,-5.6647,-5.7256,-5.6427,-5.6731,-5.6985,-5.6985,-5.7171,-5.7374,-5.7577,-5.778,-5.7881,-5.7881,-5.7695,-5.734,-5.6816,-5.6089,-5.5243,-5.4279,-5.2621,-5.1505,-5.0879,-4.9796,-4.9187,-4.9001,-4.9001,-4.8595,-4.7821,-4.7107,-4.6363,-4.5635,-4.4931,-4.4841,-4.5072,-4.4879,-4.4786,-4.4879,-4.5511,-4.5951,-4.6187,-4.5976,-4.5495,-4.4856,-4.4277,-4.3534,-4.2901,-4.2901,-4.2938,-4.3011,-4.3229,-4.3737,-4.4066,-4.3559,-4.3287,-4.2705,-4.1138,-4.0169,-3.9422,-3.8855,-3.8759,-3.9026,-3.9713,-3.9127,-3.8502,-3.838,-3.8618,-3.8531,-3.7716,-3.7862,-3.747,-3.5994,-3.5832,-3.5476,-3.458,-3.4354,-3.3838,-3.2818,-3.2409,-3.1976,-3.1513,-3.0772,-3.0326,-3.0257,-2.9216,-2.8367,0.0,0.0,0.0,0.0,0.0,0.0,0.0,0.0,0.0,0.0,0.0,0.0,0.0,0.0,0.0,0.0,0.0,0.0,0.0,0.0,0.0,0.0,-4.9379,-5.1781,-5.323,-5.4616,-5.5835,-5.6697,-5.7442,-5.7881,-5.7881,-5.7881,-5.7881,-5.7881,-5.7881,-5.7881,-5.7881,-5.7881,-5.7881,-5.7881,-5.7594,-5.7087,-5.6359,-5.5615,-5.4549,-5.3162,-5.1843,-5.0896,-5.027,-4.939,-4.9001,-4.9001,-4.9001,-4.8595,-4.7821,-4.7107,-4.6363,0.0,0.0,0.0,0.0,0.0,-4.472,-4.4917,-4.5214,-4.5648,-4.6077,-4.5923,-4.5677,-4.5312,-4.4502,-4.3868,-4.3317,-4.2992,-4.2901,-4.2901,-4.2901,-4.3263,-4.3499,-4.3102,-4.2486,-4.1778,-4.0869,-3.9796,-3.8885,-3.8413,-3.8322,0.0,-3.9057,-3.8759,-3.8368,-3.8123,-3.8361,-3.8175,-3.7021,-3.7168,-3.6787,-3.5316,-3.5158,-3.4861,-3.4179,-3.392,0.0,0.0,0.0,-3.1539,-3.0716,-3.0231,0.0,0.0,0.0,0.0,0.0,0.0,0.0,0.0,-2.8139,-2.8134,0.0,0.0,0.0,0.0,0.0,0.0,0.0,0.0,0.0,0.0,0.0,0.0,0.0,0.0,0.0,0.0,-5.2185,-5.412,-5.6225,-5.6655,-5.6797,-5.6917,-5.7425,-5.7797,-5.7881,-5.7881,-5.7881,-5.7881,-5.7881,-5.7881,-5.7881,-5.7881,0.0,0.0,0.0,-5.6528,-5.5733,-5.5057,-5.3585,-5.1303,-5.1251,-5.049,-4.912,-4.9035,-4.9001,-4.9001,-4.9001,-4.8595,-4.7821,-4.7107,-4.6312,-4.5517,-4.4869,-4.4615,-4.4615,-4.4615,-4.4852,-4.5214,-4.5214,0.0,0.0,-4.6024,-4.5876,-4.5548,-4.4745,-4.4271,-4.3856,-4.3118,-4.2901,-4.2901,-4.2901,-4.2901,-4.2901,-4.2901,-4.1669,-4.0492,-4.0492,-3.9297,-3.8209,-3.8209,-3.8209,-3.8225,-3.8274,-3.8336,-3.8145,-3.7453,-3.7927,-3.7815,-3.6194,-3.6614,-3.645,-3.4841,0.0,0.0,-3.366,-3.3162,-3.3053,-3.3437,-3.2403,-3.1413,-3.0617,-3.0695,-3.0796,-3.0881,-3.1101,-3.1487,-3.1996,-3.1402,-3.1095,-3.0992,-2.8919,-2.835,0.0,0.0,0.0,0.0,0.0,0.0,0.0,0.0,0.0,0.0,0.0,0.0,0.0,0.0,0.0,-5.0025,-5.2711,-5.4957,-5.6323,-5.6547,-5.6838,-5.7611,-5.7289,-5.7239,-5.7831,-5.7881,-5.7881,-5.7881,-5.7881,-5.7881,-5.7881,-5.7881,-5.7881,-5.7881,-5.7746,-5.7053,-5.5698,-5.5581,-5.4346,-5.208,-5.1472,0.0,-4.9864,-4.9272,-4.9001,-4.9001,-4.9001,-4.8595,-4.7821,-4.7107,-4.6007,-4.4818,-4.4666,-4.4615,-4.4615,-4.4615,-4.4654,-4.4748,-4.4748,-4.5337,-4.6024,-4.5614,-4.5572,-4.5548,-4.4745,-4.4003,0.0,-4.3004,-4.2901,-4.2901,-4.2901,-4.2901,-4.2901,-4.2901,-4.1669,-4.0492,-4.0492,-3.9297,-3.8209,-3.8209,-3.8209,-3.8209,-3.8225,-3.8274,-3.8283,-3.8182,-3.8307,-3.7815,-3.6194,-3.614,-3.5611,-3.3988,-3.3824,-3.3769,-3.3605,-3.3497,-3.3218,-3.2662,-3.2401,-3.1892,-3.11,-3.1839,-3.1979,-3.1379,-3.1417,-3.1604,-3.1915,-3.1006,-3.0628,-3.0761,-2.9876,-2.9642,0.0,0.0,0.0,0.0,0.0,0.0,0.0,0.0,0.0,0.0,0.0,-4.1928,-4.3876,0.0,-4.9265,-5.2009,-5.4083,-5.5696,-5.6616,-5.6191,-5.6323,-5.771,-5.6917,-5.6681,-5.778,-5.756,-5.7492,-5.7865,-5.7881,-5.7881,-5.7881,-5.7881,-5.7881,-5.7881,-5.7526,-5.6816,-5.5698,-5.4989,-5.3653,-5.1742,-5.1014,-5.0253,-4.9543,-4.9171,-4.9001,-4.9001,-4.9001,-4.8595,-4.7804,-4.6718,-4.5585,-4.4615,-4.4615,-4.4615,-4.4615,-4.4615,-4.4615,-4.4615,-4.4615,-4.4951,-4.5302,-4.5052,-4.4932,-4.4793,-4.398,-4.3549,-4.3236,-4.2711,-4.2711,-4.2901,-4.2901,-4.2901,-4.2901,-4.2901,-4.1669,-4.0492,-4.0492,-3.9297,-3.8209,-3.8209,-3.8209,-3.8209,-3.8209,-3.8242,-3.8112,-3.7744,-3.7705,-3.7124,-3.5508,-3.529,-3.4836,-3.3637,-3.3509,-3.3509,-3.3509,-3.3509,-3.3356,-3.3026,-3.298,-3.2602,-3.1841,-3.2271,-3.2355,-3.1952,-3.2072,-3.2348,-3.2748,-3.1565,-3.1024,-3.108,-3.0416,-3.0066,0.0,0.0,0.0,0.0,0.0,0.0,0.0,-3.8302,-3.8945,-4.0277,-4.206,-4.418,-4.6803,-4.9101,-5.1494,-5.408,-5.5368,-5.625,-5.672,-5.5786,-5.564,-5.7251,-5.622,-5.6036,-5.7543,-5.7154,-5.7103,-5.7831,-5.7881,-5.7881,-5.7881,-5.7881,-5.7814,-5.7679,-5.6968,-5.6173,-5.5294,-5.394,-5.2503,-5.0997,-5.0371,-4.9712,-4.9001,-4.9001,-4.9001,-4.9001,-4.8849,-4.8376,-4.7597,-4.6261,-4.5263,-4.4615,-4.4615,-4.4615,-4.4615,-4.4615,-4.4615,-4.4615,-4.4615,-4.4654,-4.472,-4.4626,-4.4475,-4.4171,-4.326,-4.3092,-4.3109,-4.2409,-4.2458,-4.2787,-4.2882,-4.2901,-4.2846,-4.2701,-4.156,-4.0456,-4.0311,-3.9188,-3.8209,-3.8209,-3.8209,-3.8209,-3.8209,-3.8209,-3.7937,-3.7122,-3.6995,-3.6415,-3.4824,-3.4606,-3.4298,-3.3502,-3.3393,-3.3393,-3.3393,-3.3393,-3.3452,-3.3549,-3.3506,-3.3219,-3.2606,-3.2602,-3.2602,-3.2602,-3.2813,-3.3046,-3.3354,-3.21,-3.1476,-3.1397,-3.0646,-3.0213,-3.6369,-3.6372,-3.6851,-3.7913,-3.8691,-3.9933,0.0,-4.3006,-4.3006,-4.4362,-4.592,-4.7329,-4.8378,-5.0961,-5.3274,-5.4328,-5.567,-5.648,-5.6083,-5.5338,-5.5038,-5.5619,-5.4964,-5.5119,-5.6782,-5.685,-5.7103,-5.7831,-5.7881,-5.7881,-5.7881,-5.7881,-5.7594,-5.6934,-5.6224,-5.5158,-5.3771,-5.2875,-5.1691,-5.0219,-5.0135,-4.9712,-4.9001,-4.9001,-4.9001,-4.8968,-4.8325,-4.7614,-4.6853,-4.6041,-4.5263,-4.4615,-4.4615,-4.4615,-4.4615,-4.4615,-4.4615,-4.4615,-4.4615,-4.4879,-4.5152,-4.4748,-4.4706,-4.4582,-4.3368,-4.2849,-4.2617,-4.2287,-4.2257,-4.2378,-4.2806,-4.2901,-4.2719,-4.1994,-4.1144,-4.0311,-3.9659,-3.8843,-3.8209,-3.8209,-3.8209,-3.8209,-3.8209,-3.8209,-3.7937,-3.7122,-3.6995,-3.6415,-3.4824,-3.4606,-3.4298,-3.3502,-3.3393,-3.3393,-3.3393,-3.3393,-3.3411,-3.3408,-3.3408,-3.3371,-3.3281,-3.3281,-3.3281,-3.3281,-3.3325,-3.3027,-3.2433,-3.1587,-3.1146,-3.1136,-3.057,-3.0541,-4.0158,-3.9634,-3.917,-4.0846,-4.1773,-4.2626,-4.4003,-4.4407,-4.4751,-4.5693,-4.7121,-4.8413,-4.9221,-5.1186,-5.3062,-5.4295,-5.5388,-5.5968,-5.5783,-5.5103,-5.4566,-5.4422,-5.3842,-5.4204,-5.5986,-5.5767,-5.5987,-5.7171,-5.7256,-5.7442,-5.7865,-5.7881,-5.7357,-5.6207,-5.5869,-5.4786,-5.2824,-5.2046,-5.1133,-5.0084,-4.9661,-4.9306,-4.9001,-4.9001,-4.8781,-4.8342,-4.7581,-4.6836,-4.6109,-4.5348,-4.4874,-4.4615,-4.4615,-4.4615,-4.4615,-4.4615,-4.4615,-4.4615,-4.4615,-4.472,-4.4852,-4.4665,-4.4051,-4.3297,-4.2731,-4.211,-4.1534,-4.1426,-4.1782,-4.2257,-4.2438,-4.2367,-4.2122,-4.1777,-4.0763,-3.9786,-3.946,-3.8753,-3.8209,-3.8209,-3.8209,-3.8209,-3.8209,-3.8209,-3.7937,-3.7122,-3.6598,-3.5892,-3.4751,-3.419,-3.3773,-3.3447,-3.3393,-3.3393,-3.3393,-3.3393,-3.3393,-3.3393,-3.3393,-3.3393,-3.3393,-3.3393,-3.3393,-3.3393,-3.3393,-3.3009,-3.2236,-3.1424,-3.0803,-3.0345,-3.0589,-3.093,-4.1331,-4.1055,-4.0786,-4.2387,-4.3554,-4.4317,-4.4317,-4.496,-4.5792,-4.6523,-4.7849,-4.9197,-5.0017,-5.1462,-5.2969,-5.4283,-5.5102,-5.5516,-5.5317,-5.4821,-5.417,-5.3204,-5.2929,-5.329,-5.4528,-5.4599,-5.5124,-5.641,-5.6511,-5.6816,-5.7543,-5.7391,-5.6799,-5.5715,-5.5108,-5.389,-5.2012,-5.1065,-5.0338,-4.9779,-4.9255,-4.9001,-4.9001,-4.8798,-4.8426,-4.7838,-4.6921,-4.6194,-4.5652,-4.4919,-4.4615,-4.4615,-4.4615,-4.4615,-4.4615,-4.4615,-4.4615,-4.4615,-4.4615,-4.4615,-4.4564,-4.4333,-4.3461,-4.2421,-4.2102,-4.1451,-4.0802,-4.0802,-4.1293,-4.1825,-4.1973,-4.1747,-4.1447,-4.123,-4.0257,-3.9333,-3.9133,-3.8625,-3.8209,-3.8209,-3.8209,-3.8209,-3.8209,-3.8209,-3.8009,-3.7412,-3.6653,-3.5765,-3.4733,-3.39,-3.3393,-3.3393,-3.3393,-3.3393,-3.3393,-3.3393,-3.3393,-3.3393,-3.3393,-3.3393,-3.3393,-3.3393,-3.3393,-3.3393,-3.3393,-3.2995,-3.2198,-3.1618,-3.1034,-3.0473,-3.1071,-3.1583,-3.7749,-3.896,-4.0561,-4.1265,-4.2895,-4.4317,-4.4317,-4.5334,-4.653,-4.7395,-4.8754,-5.0017,-5.0914,-5.2302,-5.3612,-5.4357,-5.5102,-5.5334,-5.4622,-5.449,-5.3752,-5.1806,-5.2173,-5.2427,-5.1949,-5.3533,-5.4921,-5.57,-5.5715,-5.6072,-5.6799,-5.6173,-5.5732,-5.5681,-5.3568,-5.2029,-5.1251,-4.9796,-4.9069,-4.9035,-4.9018,-4.9001,-4.8984,-4.8244,-4.7906,-4.7804,-4.6363,-4.572,-4.5652,-4.4919,-4.4615,-4.4615,-4.4615,-4.4615,-4.4615,-4.4615,-4.4615,-4.4615,-4.4615,-4.4615,-4.4479,-4.3707,-4.3216,-4.2747,-4.1596,-4.1041,-4.0802,-4.0802,-4.0825,-4.0949,-4.1393,-4.1283,-4.0824,-4.0057,-3.9625,-3.9188,-3.8408,-3.8227,-3.8209,-3.8209,-3.8209,-3.8209,-3.8209,-3.8209,-3.8191,-3.8172,-3.7484,-3.6397,-3.4806,-3.39,-3.3393,-3.3393,-3.3393,-3.3393,-3.3393,-3.3393,-3.3393,-3.3393,-3.3393,-3.3393,-3.3393,-3.3393,-3.3393,-3.3393,-3.3393,-3.2995,-3.2198,-3.218,-3.2144,-3.2125,-3.2144,-3.2592,-4.0397,-4.1227,-4.1968,-4.306,-4.3823,-4.4541,-4.5397,-4.6422,-4.7221,-4.7492,-4.8427,-4.9132,-4.8937,-4.9815,-5.0949,-5.2175,-5.3367,-5.4026,-5.3831,-5.4589,-5.4444,-5.2364,-5.2836,-5.3057,-5.2394,-5.3125,-5.3972,-5.4731,-5.4886,-5.5294,-5.6038,-5.5852,-5.5023,-5.3501,-5.2706,-5.1488,-4.9763,-4.9255,-4.9001,-4.9001,-4.8925,-4.8925,-4.8984,-4.8101,-4.7511,-4.7124,-4.6126,-4.5415,-4.4942,-4.4716,-4.4615,-4.4615,-4.4615,-4.4615,-4.4615,-4.4615,-4.4615,-4.4615,-4.4615,-4.4248,-4.3775,-4.3504,-4.2681,-4.1742,-4.1323,-4.079,-4.0328,-4.0328,-4.0556,-4.0849,-4.0995,-4.0806,-4.04,-3.9923,-3.9121,-3.843,-3.8235,-3.795,-3.7827,-3.814,-3.8209,-3.8209,-3.8209,-3.8209,-3.8209,-3.8209,-3.752,-3.6415,-3.4824,-3.4371,-3.3991,-3.3465,-3.3393,-3.3393,-3.3393,-3.3393,-3.3393,-3.3393,-3.3393,-3.3393,-3.3393,-3.3393,-3.3393,-3.3393,-3.3393,-3.2995,-3.2198,-3.2198,-3.1926,-3.1433,-3.1944,-3.2343,-4.1594,-4.2216,-4.271,-4.3988,-4.4137,-4.4157,-4.5009,-4.5666,-4.6121,-4.6401,-4.6743,-4.6997,-4.7061,-4.758,-4.8627,-5.0583,-5.1877,-5.2837,-5.3334,-5.4245,-5.4129,-5.2208,-5.2748,-5.2933,-5.2202,-5.2648,-5.3243,-5.3869,-5.4006,-5.4447,-5.5277,-5.4786,-5.3906,-5.2656,-5.1846,-5.0716,-4.922,-4.9012,-4.8925,-4.8925,-4.8832,-4.8801,-4.8765,-4.7662,-4.6955,-4.6587,-4.5604,-4.4924,-4.4514,-4.457,-4.4615,-4.4615,-4.4615,-4.4542,-4.4497,-4.4497,-4.4497,-4.4497,-4.457,-4.4062,-4.3341,-4.3098,-4.2202,-4.1153,-4.0882,-4.0485,-4.0096,-4.0096,-4.0303,-4.0556,-4.0556,-4.0302,-3.9971,-3.9643,-3.8748,-3.799,-3.7954,-3.7703,-3.7578,-3.788,-3.8089,-3.8209,-3.8209,-3.8209,-3.8209,-3.8209,-3.7756,-3.685,-3.524,-3.4534,-3.3973,-3.3465,-3.3393,-3.3393,-3.3393,-3.3393,-3.3393,-3.3393,-3.3393,-3.3393,-3.3393,-3.3393,-3.3393,-3.3393,-3.3393,-3.3158,-3.2632,-3.2632,-3.2361,-3.1872,-3.2379,-3.2632,-4.1309,-4.2006,-4.2785,-4.3973,-4.3763,-4.3245,-4.329,-4.3299,-4.353,-4.4311,-4.4004,-4.3934,-4.5282,-4.5732,-4.678,-4.9522,-5.0717,-5.1761,-5.3169,-5.3434,-5.2937,-5.1531,-5.2011,-5.2177,-5.1431,-5.2084,-5.2729,-5.3144,-5.3179,-5.3567,-5.4464,-5.3078,-5.2521,-5.3061,-5.1008,-4.9767,-4.9538,-4.9028,-4.8769,-4.8769,-4.8769,-4.8642,-4.8366,-4.6943,-4.6274,-4.6187,-4.4846,-4.431,-4.431,-4.4514,-4.457,-4.457,-4.457,-4.444,-4.431,-4.431,-4.431,-4.431,-4.4514,-4.4045,-4.325,-4.2523,-4.1779,-4.1018,-4.0316,-4.0096,-4.0096,-4.0096,-4.0096,-4.0096,-4.0096,-3.9856,-3.9531,-3.9159,-3.8517,-3.7905,-3.7554,-3.745,-3.745,-3.7487,-3.788,-3.8192,-3.8175,-3.8174,-3.8192,-3.8175,-3.8156,-3.7558,-3.6003,-3.448,-3.3502,-3.3411,-3.3393,-3.3393,-3.3393,-3.3393,-3.3393,-3.3393,-3.3393,-3.3393,-3.3393,-3.3393,-3.3393,-3.3393,-3.3393,-3.3393,-3.3393,-3.3393,-3.3393,-3.3393,-3.3393,-3.3393,-4.2656,-4.3314,-4.3778,-4.3589,-4.309,-4.2746,-4.3185,-4.3417,-4.3416,-4.3116,-4.2947,-4.2655,-4.1971,-4.3133,-4.4801,-4.6627,-4.9375,-5.163,-5.2523,-5.3566,-5.3699,-5.231,-5.2721,-5.287,-5.221,-5.2329,-5.2535,-5.2729,-5.2903,-5.3091,-5.3327,-5.2437,-5.1766,-5.1346,-5.0257,-4.9402,-4.8768,-4.8647,-4.8595,-4.8578,-4.842,-4.812,-4.7646,-4.6569,-4.5851,-4.5433,-4.454,-4.4155,-4.4155,-4.4212,-4.4229,-4.4229,-4.4229,-4.4184,-4.4155,-4.4155,-4.4155,-4.4155,-4.4212,-4.3496,-4.254,-4.2354,-4.1424,-4.0367,-4.0163,-4.0096,-4.0096,-4.0096,-4.0096,-4.0096,-4.0096,-4.0035,-3.9764,-3.8853,-3.827,-3.7767,-3.7178,-3.6821,-3.6781,-3.7377,-3.788,-3.8089,-3.7739,-3.7967,-3.8071,-3.7739,-3.7462,-3.6941,-3.5931,-3.5442,-3.4733,-3.3538,-3.3393,-3.3393,-3.3393,-3.3393,-3.3393,-3.3393,-3.3393,-3.3393,-3.3393,-3.3393,-3.3393,-3.3393,-3.3393,-3.3393,-3.3393,-3.3393,-3.3393,-3.3393,-3.3393,-3.3393,-4.4661,-4.4946,-4.5035,-4.4362,-4.3703,-4.3015,-4.2222,-4.209,-4.1766,-4.0474,-3.9974,-3.9622,-3.9098,-4.0515,-4.244,-4.4478,-4.7653,-5.032,-5.173,-5.287,-5.3284,-5.2473,-5.2721,-5.2804,-5.2423,-5.2409,-5.2445,-5.2516,-5.2659,-5.2665,-5.2434,-5.1715,-5.0944,-5.0159,-4.9374,-4.879,-4.8356,-4.8356,-4.8356,-4.8356,-4.796,-4.7561,-4.7143,-4.5967,-4.5283,-4.494,-4.4298,-4.3998,-4.4027,-4.4085,-4.4097,-4.4097,-4.4097,-4.4068,-4.3998,-4.3998,-4.3998,-4.3998,-4.3998,-4.3183,-4.2115,-4.2196,-4.121,-4.0011,-4.0011,-3.9961,-3.9935,-3.9986,-4.0011,-4.0037,-4.007,-4.0096,-3.9823,-3.8763,-3.8184,-3.7653,-3.6821,-3.6471,-3.6492,-3.7095,-3.745,-3.7541,-3.7283,-3.745,-3.7595,-3.7505,-3.7327,-3.6869,-3.5915,-3.5478,-3.4917,-3.4027,-3.361,-3.3393,-3.3393,-3.3393,-3.3393,-3.3393,-3.3393,-3.3393,-3.3393,-3.3393,-3.3393,-3.3393,-3.3393,-3.3393,-3.3393,-3.3393,-3.3393,-3.3393,-3.3393,-3.3393,-4.6856,-4.6641,-4.6207,-4.5514,-4.4851,-4.366,-4.1008,-4.0193,-3.9441,-3.7414,-3.6484,-3.6169,-3.6603,-3.816,-4.0266,-4.3026,-4.5947,-4.8663,-5.0984,-5.1862,-5.231,-5.2409,-5.2409,-5.2409,-5.2409,-5.2409,-5.2409,-5.2409,-5.2499,-5.2342,-5.1764,-5.1045,-5.0209,-4.9243,-4.8545,-4.8163,-4.8163,-4.8163,-4.8113,-4.8013,-4.7446,-4.6984,-4.656,-4.5268,-4.4638,-4.4536,-4.4059,-4.3868,-4.3868,-4.3998,-4.4039,-4.4039,-4.4039,-4.3969,-4.3868,-4.3868,-4.3868,-4.3868,-4.3868,-4.2989,-4.1893,-4.2024,-4.1086,-3.9875,-3.9875,-3.9781,-3.9729,-3.9849,-3.9875,-3.9884,-4.0037,-4.0045,-3.979,-3.8791,-3.8223,-3.7611,-3.6573,-3.6327,-3.6388,-3.6741,-3.686,-3.688,-3.6821,-3.686,-3.6997,-3.7302,-3.7432,-3.7113,-3.6077,-3.525,-3.4679,-3.4461,-3.3828,-3.3393,-3.3393,-3.3393,-3.3393,-3.3393,-3.3393,-3.3393,-3.3393,-3.3393,-3.3393,-3.3393,-3.3393,-3.3393,-3.3393,-3.3393,-3.3393,-3.3393,-3.3393,-3.3393,-4.8096,-4.7556,-4.6532,-4.5828,-4.5138,-4.385,-4.0964,-3.942,-3.7966,-3.5915,-3.5296,-3.5021,-3.463,-3.7147,-4.0056,-4.2324,-4.5168,-4.8067,-5.0917,-5.1415,-5.173,-5.2343,-5.2409,-5.2409,-5.2409,-5.2409,-5.2409,-5.2409,-5.2409,-5.213,-5.1401,-5.0704,-4.9658,-4.8298,-4.81,-4.8033,-4.8033,-4.8033,-4.7719,-4.7105,-4.6989,-4.6293,-4.5052,-4.4835,-4.4373,-4.378,-4.3678,-4.3658,-4.3658,-4.3687,-4.3687,-4.3687,-4.3687,-4.3658,-4.3658,-4.3658,-4.3658,-4.3658,-4.3658,-4.28,-4.1772,-4.1877,-4.0953,-3.9729,-3.9729,-3.9729,-3.9703,-3.9729,-3.9729,-3.9755,-3.9901,-3.9858,-3.9623,-3.9037,-3.8304,-3.7557,-3.6864,-3.6507,-3.6322,-3.6388,-3.6678,-3.6781,-3.6471,-3.6678,-3.6801,-3.6536,-3.7057,-3.7307,-3.6779,-3.6073,-3.508,-3.3755,-3.3484,-3.3393,-3.3393,-3.3393,-3.3393,-3.3393,-3.3393,-3.3393,-3.3393,-3.3393,-3.3393,-3.3393,-3.3393,-3.3393,-3.3393,-3.3393,-3.3393,-3.3393,-3.3393,-3.3393,-4.9715,-4.9203,-4.8083,-4.7024,-4.625,-4.4717,-4.0749,-3.8962,-3.747,-3.5058,-3.4224,-3.402,-3.4407,-3.6217,-3.8383,-4.0503,-4.2965,-4.5781,-4.9094,-4.9906,-5.0701,-5.2243,-5.2409,-5.2409,-5.2409,-5.2409,-5.2409,-5.2409,-5.2061,-5.1496,-5.0767,-4.9657,-4.8746,-4.8017,-4.8001,-4.8001,-4.8001,-4.8001,-4.7636,-4.6891,-4.651,-4.5748,-4.4702,-4.4307,-4.3943,-4.3598,-4.3598,-4.3598,-4.3598,-4.3598,-4.3598,-4.3598,-4.3598,-4.3598,-4.3598,-4.3598,-4.3598,-4.3598,-4.3598,-4.2696,-4.1554,-4.161,-4.0694,-3.959,-3.959,-3.9563,-3.9511,-3.959,-3.959,-3.9642,-3.9755,-3.9755,-3.9545,-3.895,-3.7891,-3.6912,-3.6309,-3.6055,-3.5937,-3.5937,-3.6092,-3.6139,-3.591,-3.6045,-3.6178,-3.6199,-3.646,-3.6566,-3.6299,-3.5915,-3.5294,-3.4383,-3.3568,-3.3178,-3.3378,-3.3208,-3.3178,-3.3378,-3.3193,-3.3178,-3.3378,-3.3393,-3.3393,-3.3393,-3.3393,-3.3393,-3.3393,-3.3393,-3.3393,-3.3393,-3.3393,-3.3393,-5.1067,-5.0634,-4.9579,-4.8318,-4.7376,-4.5508,-4.0704,-3.8714,-3.7151,-3.4576,-3.3437,-3.3304,-3.4447,-3.5489,-3.6852,-3.8954,-4.0961,-4.3532,-4.7255,-4.8547,-4.9856,-5.1928,-5.231,-5.2409,-5.2409,-5.2409,-5.2409,-5.2409,-5.1562,-5.0734,-5.0005,-4.873,-4.8001,-4.8001,-4.8001,-4.8001,-4.8001,-4.8001,-4.7554,-4.6659,-4.6079,-4.5317,-4.444,-4.3876,-4.3598,-4.3598,-4.3598,-4.3598,-4.3598,-4.3598,-4.3598,-4.3598,-4.3598,-4.3598,-4.3598,-4.3598,-4.3598,-4.3598,-4.3598,-4.2622,-4.1409,-4.1409,-4.053,-3.9475,-3.9475,-3.9379,-3.9325,-3.9448,-3.9475,-3.9501,-3.9625,-3.9625,-3.9408,-3.8539,-3.7492,-3.6505,-3.5712,-3.5549,-3.5549,-3.5549,-3.5549,-3.5526,-3.5469,-3.5469,-3.5549,-3.5876,-3.5924,-3.5835,-3.5625,-3.5481,-3.5306,-3.5083,-3.3857,-3.3194,-3.3511,-3.308,-3.2972,-3.3364,-3.3019,-3.2988,-3.3378,-3.3393,-3.3393,-3.3393,-3.3393,-3.3393,-3.3393,-3.3393,-3.3393,-3.3393,-3.3393,-3.3393,-5.1704,-5.1256,-4.9946,-4.9189,-4.7919,-4.5725,-4.1304,-3.8692,-3.6538,-3.4282,-3.3224,-3.2966,-3.3756,-3.505,-3.6737,-3.895,-4.0531,-4.28,-4.6477,-4.8216,-4.9674,-5.1232,-5.2011,-5.2409,-5.2409,-5.2409,-5.2409,-5.2409,-5.1098,-4.9988,-4.9243,-4.8448,-4.8001,-4.8001,-4.8001,-4.8001,-4.8001,-4.8001,-4.7289,-4.5897,-4.5814,-4.5069,-4.3698,-4.3631,-4.3598,-4.3598,-4.3598,-4.3598,-4.3598,-4.3598,-4.3598,-4.3598,-4.3598,-4.3598,-4.3598,-4.3598,-4.3598,-4.3598,-4.3598,-4.2622,-4.1409,-4.1409,-4.0475,-3.9325,-3.9325,-3.9299,-3.9299,-3.9299,-3.9325,-3.9352,-3.9484,-3.9432,-3.9003,-3.7727,-3.7427,-3.7023,-3.5616,-3.5337,-3.5337,-3.5337,-3.5337,-3.5314,-3.5314,-3.5314,-3.5314,-3.5383,-3.5677,-3.5759,-3.538,-3.5172,-3.5009,-3.4943,-3.4285,-3.3887,-3.3938,-3.3241,-3.2972,-3.3364,-3.3019,-3.2988,-3.3378,-3.3393,-3.3393,-3.3393,-3.3393,-3.3393,-3.3393,-3.3393,-3.3393,-3.3393,-3.3393,-3.3393,-5.0601,-5.0966,-5.0684,-4.9955,-4.7984,-4.5317,-4.1806,-3.899,-3.6605,-3.4816,-3.3623,-3.3186,-3.4272,-3.4692,-3.5521,-3.763,-3.8444,-4.01,-4.3744,-4.5152,-4.6841,-4.9641,-5.0634,-5.1413,-5.2291,-5.2409,-5.2227,-5.1779,-5.0767,-4.9872,-4.9144,-4.8398,-4.8001,-4.8001,-4.8001,-4.8001,-4.8001,-4.8001,-4.7255,-4.5798,-4.5798,-4.5036,-4.3598,-4.3598,-4.3598,-4.3598,-4.3598,-4.3598,-4.3598,-4.3598,-4.3598,-4.3598,-4.3598,-4.3598,-4.3598,-4.3598,-4.3598,-4.3598,-4.3598,-4.2622,-4.1409,-4.1409,-4.0448,-3.9299,-3.9299,-3.9299,-3.9299,-3.9299,-3.9299,-3.9299,-3.9352,-3.9325,-3.896,-3.7619,-3.7344,-3.7002,-3.5586,-3.5291,-3.5291,-3.5291,-3.5291,-3.5268,-3.5198,-3.5175,-3.5175,-3.5175,-3.5258,-3.5287,-3.5291,-3.5143,-3.5093,-3.5121,-3.4059,-3.3512,-3.3962,-3.286,-3.2401,-3.3003,-3.2468,-3.2401,-3.3003,-3.3034,-3.3144,-3.3411,-3.3393,-3.3393,-3.3393,-3.3393,-3.3393,-3.3393,-3.3393,-3.3393,-4.9094,-4.9773,-4.9922,-4.9624,-4.7338,-4.4489,-4.1988,-3.9172,-3.6688,-3.5197,-3.4019,-3.3581,-3.4679,-3.4594,-3.4882,-3.6497,-3.7152,-3.856,-4.1711,-4.3197,-4.5069,-4.81,-4.911,-5.0137,-5.1595,-5.2125,-5.2075,-5.1365,-5.0636,-4.9872,-4.9144,-4.8398,-4.8001,-4.8001,-4.8001,-4.8001,-4.8001,-4.7785,-4.704,-4.5798,-4.5566,-4.4821,-4.3598,-4.3598,-4.3598,-4.3598,-4.3598,-4.3598,-4.3598,-4.3598,-4.3598,-4.3598,-4.3598,-4.3598,-4.3598,-4.3598,-4.3598,-4.3598,-4.3598,-4.2771,-4.1711,-4.1711,-4.0763,-3.963,-3.963,-3.9481,-3.9299,-3.9299,-3.9299,-3.9299,-3.9299,-3.9299,-3.9027,-3.7834,-3.7394,-3.692,-3.5752,-3.5325,-3.5175,-3.5175,-3.5175,-3.5152,-3.5065,-3.5041,-3.5041,-3.5041,-3.497,-3.497,-3.5175,-3.5111,-3.5152,-3.5222,-3.4075,-3.3453,-3.3899,-3.2785,-3.2229,-3.2635,-3.2056,-3.1986,-3.2617,-3.2747,-3.2923,-3.3226,-3.3349,-3.3393,-3.3393,-3.3393,-3.3393,-3.3393,-3.3393,-3.3393,-4.7421,-4.7504,-4.7123,-4.7835,-4.5814,-4.3234,-4.1728,-3.9172,-3.6688,-3.5197,-3.4303,-3.4021,-3.4767,-3.4899,-3.5148,-3.5893,-3.7251,-3.8957,-4.1099,-4.3297,-4.5235,-4.6742,-4.757,-4.8597,-5.0088,-5.1529,-5.2075,-5.1365,-5.0618,-4.9889,-4.9144,-4.8398,-4.8001,-4.8001,-4.8001,-4.8001,-4.8001,-4.7272,-4.6527,-4.5781,-4.5052,-4.4324,-4.3598,-4.3598,-4.3598,-4.3598,-4.3598,-4.3598,-4.3598,-4.3598,-4.3598,-4.3598,-4.3598,-4.3598,-4.3598,-4.3598,-4.3598,-4.3598,-4.3598,-4.3102,-4.2473,-4.2473,-4.1541,-4.0393,-4.0393,-3.9879,-3.9299,-3.9299,-3.9299,-3.9299,-3.9299,-3.9299,-3.9116,-3.8377,-3.7632,-3.6903,-3.6158,-3.5413,-3.4899,-3.4899,-3.4899,-3.4899,-3.4899,-3.4899,-3.4899,-3.4899,-3.4899,-3.4899,-3.4899,-3.5018,-3.5088,-3.5088,-3.453,-3.4066,-3.3816,-3.324,-3.271,-3.2335,-3.1932,-3.1878,-3.23,-3.2617,-3.2795,-3.2795,-3.3193,-3.3393,-3.3393,-3.3393,-3.3393,-3.3393,-3.3393,-3.3393,-4.4029,-4.5168,-4.5831,-4.4572,-4.3181,-4.1579,-3.9642,-3.8129,-3.6688,-3.5197,-3.47,-3.4618,-3.4849,-3.4899,-3.5462,-3.7235,-3.7914,-3.8931,-4.111,-4.2883,-4.4688,-4.6659,-4.9326,-5.0982,-5.0949,-5.1382,-5.133,-5.0601,-4.9872,-4.9359,-4.9127,-4.8398,-4.8001,-4.8001,-4.8001,-4.7769,-4.7255,-4.7007,-4.6278,-4.5036,-4.4804,-4.4307,-4.3598,-4.3598,-4.3598,-4.3598,-4.3598,-4.3598,-4.3598,-4.3598,-4.3598,-4.3598,-4.3598,-4.3598,-4.3598,-4.3598,-4.3598,-4.3598,-4.3598,-4.3118,-4.2406,-4.1893,-4.1143,-4.031,-3.9812,-3.9497,-3.9299,-3.9299,-3.9299,-3.9299,-3.9299,-3.9299,-3.9,-3.7748,-3.7284,-3.6771,-3.5512,-3.5048,-3.4899,-3.4899,-3.4899,-3.4899,-3.4899,-3.4899,-3.4899,-3.4899,-3.4899,-3.4899,-3.4899,-3.4947,-3.497,-3.497,-3.4865,-3.4533,-3.3847,-3.29,-3.2212,-3.1912,-3.147,-3.1669,-3.2675,-3.2713,-3.2877,-3.3195,-3.335,-3.3152,-3.2653,-3.2878,-3.3417,-3.4208,-3.3665,-3.3545,-4.1491,-4.27,-4.3545,-4.2717,-4.1558,-4.0249,-3.8924,-3.7615,-3.6357,-3.5148,-3.4899,-3.4899,-3.4899,-3.4899,-3.5346,-3.6738,-3.7433,-3.846,-4.0348,-4.2104,-4.4026,-4.6212,-4.8995,-5.0551,-5.0088,-5.0551,-5.0585,-4.9856,-4.9375,-4.8978,-4.8713,-4.8249,-4.8001,-4.8001,-4.8001,-4.7653,-4.6908,-4.6609,-4.5864,-4.4688,-4.4423,-4.4042,-4.3598,-4.3598,-4.3598,-4.3598,-4.3598,-4.3598,0.0,-4.3598,-4.3598,-4.3598,-4.3598,-4.3598,-4.3598,-4.3598,-4.3598,-4.3598,-4.3598,-4.33,-4.2787,-4.2042,-4.1177,-4.026,-3.9514,-3.9299,-3.9299,-3.9299,-3.9299,-3.9299,-3.9299,-3.9299,-3.9067,-3.8146,-3.75,-3.6854,-3.5926,-3.5297,-3.4899,-3.4899,-3.4899,-3.4899,-3.4899,-3.4899,-3.4899,-3.4899,-3.4899,-3.4899,-3.4899,-3.4899,-3.4899,-3.4899,-3.497,-3.4704,-3.3935,-3.3305,-3.2735,-3.2222,-3.1965,-3.2165,-3.2906,-3.3006,-3.3186,-3.3531,-3.3625,-3.3491,-3.3125,-3.3334,-3.3905,-3.4783,-3.4279,-3.4105,0.0,-4.0177,-4.0514,-4.1662,-4.0531,-3.9116,-3.9017,-3.7433,0.0,-3.5048,-3.4899,-3.4916,-3.4965,-3.4908,-3.4901,-3.5098,-3.6299,-3.7713,-3.9249,-4.1392,-4.3628,-4.5765,-4.7289,-4.815,-4.8084,-4.9326,-4.9839,-4.9094,-4.9028,-4.873,-4.8034,-4.8001,-4.8001,-4.8001,-4.7951,-4.757,-4.6825,-4.6079,-4.5334,-4.4605,-4.3943,-4.3598,-4.3598,-4.3598,-4.3598,-4.3598,-4.3598,-4.3598,-4.3598,-4.3598,-4.3598,-4.3598,-4.3598,-4.3598,-4.3598,-4.3598,-4.3598,-4.3598,-4.3598,-4.3598,-4.3466,-4.2671,-4.1508,-4.026,-3.9514,-3.9299,-3.9299,-3.9299,-3.9299,-3.9299,-3.9299,-3.9299,-3.9282,-3.9232,-3.8129,-3.7102,-3.7036,-3.5909,-3.4899,-3.4899,-3.4899,-3.4899,-3.4899,-3.4899,-3.4899,-3.4899,-3.4899,-3.4899,-3.4899,-3.4899,-3.4899,-3.4899,-3.4899,-3.4681,-3.411,-3.4186,-3.3906,-3.3043,-3.3113,-3.3151,-3.3093,-3.344,-3.369,-3.383,-3.395,-3.4152,-3.4435,-3.4435,-3.4674,-3.5118,-3.5081,-3.4912,-3.6738,0.0,-3.8394,-3.7036,-3.7152,-3.7317,0.0,-3.5959,-3.5794,-3.5048,-3.4899,-3.5065,-3.5644,-3.4964,-3.4979,-3.7076,-3.7804,-3.8745,-4.0641,-4.3777,-4.6477,-4.8133,-4.9144,-4.9475,-4.8912,-4.9177,-4.9061,-4.8315,-4.8266,-4.8183,-4.8017,-4.8001,-4.8001,-4.8001,-4.7454,-4.6792,-4.6063,-4.5317,-4.4589,-4.3876,-4.3681,-4.3598,-4.3598,-4.3598,-4.3598,-4.3598,-4.3598,-4.3598,-4.3598,-4.3598,-4.3598,-4.3598,-4.3598,-4.3598,-4.3598,-4.3598,-4.3598,-4.3598,-4.3598,-4.3598,-4.3383,-4.2059,-4.1094,-4.026,-3.9514,-3.9299,-3.9299,-3.9299,-3.9299,-3.9299,-3.9299,-3.9299,-3.9166,-3.8593,-3.7765,-3.6953,-3.639,-3.5545,-3.4899,-3.4899,-3.4899,-3.4899,-3.4899,-3.4899,-3.4899,-3.4899,-3.4899,-3.4899,-3.4899,-3.4899,-3.4899,-3.4899,-3.4899,-3.4857,-3.4714,-3.4299,-3.3762,-3.3038,-3.2977,-3.3261,-3.3896,-3.3902,-3.3968,-3.4112,-3.3553,-3.3426,-3.3814,-3.3911,-3.4463,-3.5389,-3.4884,-3.4793,-3.5396,-3.682,-3.7904,-3.6721,-3.7019,-3.7317,-3.6174,-3.5694,-3.5379,-3.4982,-3.4899,-3.5015,-3.5413,-3.521,-3.5571,-3.7399,-3.8321,-3.978,-4.2539,-4.492,-4.6941,-4.8431,-4.8961,-4.9044,-4.863,-4.8597,-4.8431,-4.8034,-4.8001,-4.8001,-4.8001,-4.8001,-4.8001,-4.8001,-4.6957,-4.6195,-4.5798,-4.5052,-4.4324,-4.3598,-4.3598,-4.3598,-4.3598,-4.3598,-4.3598,-4.3598,-4.3598,-4.3598,-4.3598,-4.3598,-4.3598,-4.3598,-4.3598,-4.3598,-4.3598,-4.3598,-4.3598,-4.3598,-4.3598,-4.3151,-4.2456,-4.1645,-4.0713,-3.9829,-3.9431,-3.9299,-3.9299,-3.9299,-3.9299,-3.9299,-3.9299,-3.9299,-3.9199,-3.8791,-3.788,-3.7003,-3.6605,-3.5661,-3.4899,-3.4899,-3.4899,-3.4899,-3.4899,-3.4899,-3.4899,-3.4899,-3.4899,-3.4899,-3.4899,-3.4899,-3.4899,-3.4899,-3.4899,-3.4899,-3.4899,-3.4598,-3.427,-3.3906,-3.3906,-3.4089,-3.4505,-3.4459,-3.4459,-3.4522,-3.4219,-3.4136,-3.4278,-3.4469,-3.4997,-3.5775,-3.5476,-3.5359,-3.4866,-3.6522,-3.8103,-3.7798,-3.7798,-3.7682,-3.6936,-3.5794,-3.4899,-3.4899,-3.4899,-3.4941,-3.506,-3.5605,-3.6315,-3.7157,-3.8689,-4.0966,-4.4384,-4.5504,-4.6429,-4.7655,-4.7935,-4.8001,-4.8001,-4.8001,-4.8001,-4.8001,-4.8001,-4.8001,-4.8001,-4.8001,-4.7951,-4.7835,-4.651,-4.5748,-4.5616,-4.4887,-4.4224,-4.3598,-4.3598,-4.3598,-4.3598,-4.3598,-4.3598,-4.3598,-4.3598,0.0,-4.3598,-4.3598,-4.3598,-4.3598,-4.3598,-4.3598,-4.3598,-4.3598,-4.3598,-4.3598,-4.3598,-4.2771,-4.1678,-4.1463,-4.058,-3.958,-3.9365,-3.9299,-3.9299,-3.9299,-3.9299,-3.9299,-3.9299,-3.9299,-3.9299,-3.9299,-3.8162,-3.7102,-3.7102,-3.5943,-3.4899,-3.4899,-3.4982,-3.5032,-3.4916,-3.4982,-3.5032,-3.4916,-3.4899,-3.4899,-3.4899,-3.4899,-3.4899,-3.4899,-3.4899,-3.4899,-3.4899,-3.4899,-3.4899,-3.4899,-3.4994,-3.5018,-3.4899,-3.4899,-3.4899,-3.4899,-3.5128,-3.5175,-3.5065,-3.5314,-3.5616,-3.5985,-3.6092,-3.598,-3.4717,-3.6522,-3.7765,-3.5876,-3.5876,-3.6141,-3.5413,-3.5048,-3.4899,-3.4899,-3.4899,-3.5119,-3.5795,-3.6062,-3.6592,-3.7898,-4.0322,-4.2858,-4.5196,-4.6224,-4.6781,-4.697,-4.7588,-4.8001,-4.8001,-4.8001,-4.8001,-4.8001,-4.8001,-4.8001,-4.8001,-4.8001,-4.7719,-4.709,-4.6228,-4.5483,-4.4854,-4.4141,-4.3698,-4.3598,-4.3598,-4.3598,-4.3598,-4.3598,-4.3598,-4.3598,0.0,-4.3598,-4.3598,-4.3598,-4.3598,-4.3598,-4.3598,-4.3598,-4.3598,-4.3598,-4.3598,-4.3598,-4.3598,-4.3449,-4.3052,-4.1794,-4.1259,-4.0862,-3.9663,-3.9299,-3.9299,-3.9299,-3.9299,-3.9299,-3.9299,-3.9299,-3.9299,-3.9299,-3.8162,-3.7102,-3.7102,-3.5943,-3.4899,-3.4899,-3.5396,-3.5628,-3.5015,-3.5413,-3.5628,-3.4982,-3.4899,-3.4899,-3.4899,-3.4899,-3.4899,-3.4899,-3.4899,-3.4899,-3.4899,-3.4899,-3.4899,-3.4899,-3.4923,-3.4923,-3.4899,-3.4899,-3.4899,-3.4899,-3.4947,-3.4947,-3.4923,-3.5105,-3.5251,-3.5412,-3.5435,-3.5476,-3.363,-3.5032,-3.6274,-3.5644,-3.7218,-3.8599,-3.7397,-3.6826,-3.6546,-3.6529,-3.6216,-3.6089,-3.6422,-3.7156,-3.8455,-4.068,-4.2421,-4.3992,-4.55,-4.6026,-4.6403,-4.6765,-4.6759,-4.6913,-4.7303,-4.6981,-4.6913,-4.7337,-4.7337,-4.7555,-4.7968,-4.762,-4.7255,-4.6908,-4.5798,-4.5036,-4.4688,-4.3976,-4.3598,-4.3598,-4.3598,-4.3598,-4.3598,-4.3598,-4.3598,-4.3598,0.0,-4.3598,-4.3598,-4.3598,-4.3598,-4.3598,-4.3598,-4.3598,-4.3598,-4.3598,-4.3598,-4.3598,-4.3598,-4.3069,-4.2291,-4.1612,-4.0895,-4.0133,-3.9497,-3.9299,-3.9299,-3.9299,-3.9299,-3.9299,-3.9299,-3.9299,-3.9299,-3.9299,-3.8477,-3.7673,-3.7673,-3.6539,-3.5611,-3.6009,-3.6042,-3.6025,-3.6075,-3.6042,-3.5876,-3.5545,-3.5148,-3.4899,-3.4899,-3.4899,-3.4899,-3.4899,-3.4899,-3.4899,-3.4899,-3.4899,-3.4899,-3.4899,-3.4899,-3.4899,-3.4899,-3.4899,-3.4899,-3.4899,-3.4899,-3.4899,-3.4899,-3.5018,-3.5111,-3.5198,-3.5268,-3.5314,-3.2917,-3.3773,-3.4816,-3.5513,-3.7805,-3.9764,-3.9336,-3.8453,-3.7844,-3.8251,-3.7939,-3.7458,-3.711,-3.8399,-4.0443,-4.3377,-4.4366,-4.5009,-4.5532,-4.5782,-4.5991,-4.6244,-4.5933,-4.5913,-4.6499,-4.6005,-4.5933,-4.6499,-4.6708,-4.7067,-4.7671,-4.7192,-4.6825,-4.6643,-4.5367,-4.4605,-4.444,-4.3893,-4.3598,-4.3598,-4.3598,-4.3598,-4.3598,-4.3598,-4.3598,-4.3598,-4.3598,-4.3598,-4.3598,-4.3598,-4.3598,-4.3598,-4.3598,-4.3482,-4.335,-4.3532,-4.3482,-4.3333,-4.3333,-4.2589,-4.1595,-4.1276,-4.0431,-3.9531,-3.9348,-3.9299,-3.9299,-3.9299,-3.9299,-3.9299,-3.9299,-3.9299,-3.9299,-3.9299,-3.8725,-3.8186,-3.8186,-3.7185,-3.6423,-3.7003,-3.6787,-3.6655,-3.7036,-3.6638,-3.6208,-3.6025,-3.5363,-3.4899,-3.4899,-3.4899,-3.4899,-3.4899,-3.4899,-3.4899,-3.4899,-3.4899,-3.4899,-3.4899,-3.4899,-3.4899,-3.4899,-3.4899,-3.4899,-3.4899,-3.4899,-3.4899,-3.4899,-3.4994,-3.5065,-3.5088,-3.5175,-3.5222,-3.3524,-3.3789,-3.4031,-3.464,-3.5068,-3.6175,-3.9303,-3.8393,-3.742,-3.9268,-3.9617,-3.9235,-3.8036,-3.9514,-4.1878,-4.4704,-4.575,-4.6053,-4.5487,-4.6064,-4.608,-4.4796,-4.5295,-4.5733,-4.5769,-4.5733,-4.5733,-4.5769,-4.6394,-4.6828,-4.688,-4.6898,-4.6576,-4.5897,-4.5102,-4.4373,-4.3681,-4.3615,-4.3598,-4.3598,-4.3598,-4.3598,-4.3598,-4.3598,-4.3598,-4.3598,-4.3598,-4.3598,-4.3598,-4.3598,-4.3598,-4.3598,-4.3598,-4.3168,-4.2655,-4.335,-4.3168,-4.2572,-4.2572,-4.2506,-4.2191,-4.0895,-4.0409,-4.0194,-3.9514,-3.9299,-3.9299,-3.9299,-3.9299,-3.9299,-3.9299,-3.9299,-3.9299,-3.9299,-3.8725,-3.8186,-3.8186,-3.7582,-3.7052,-3.7102,-3.7615,-3.7847,-3.7218,-3.7069,-3.6787,-3.6108,-3.5363,-3.4899,-3.4899,-3.4899,-3.4899,-3.4899,-3.4899,-3.4899,-3.4899,-3.4899,-3.4899,-3.4899,-3.4899,-3.4899,-3.4899,-3.4899,-3.4899,-3.4899,-3.4899,-3.4899,-3.4899,-3.4899,-3.497,-3.5088,-3.497,-3.4994,-3.2365,-3.3389,-3.4409,-3.4625,-3.5334,-3.6638,-3.924,-3.9883,-4.0263,-4.1477,-4.1363,-4.0782,-3.9816,-4.0547,-4.198,-4.4139,-4.5046,-4.54,-4.5238,-4.5588,-4.5478,-4.445,-4.4259,-4.4396,-4.4924,-4.451,-4.4396,-4.4924,-4.5206,-4.5583,-4.6096,-4.5717,-4.5372,-4.5119,-4.4406,-4.3893,-4.3598,-4.3598,-4.3598,-4.3598,-4.3598,-4.3598,-4.3598,-4.3598,-4.3598,-4.3598,-4.3598,-4.3598,-4.3598,-4.3598,-4.3598,-4.3549,-4.3085,-4.2738,-4.2473,-4.2291,-4.234,-4.2423,-4.1976,-4.1839,-4.1674,-4.0696,-4.0094,-3.9663,-3.9381,-3.9299,-3.9299,-3.9299,-3.9299,-3.9299,-3.9299,-3.9299,-3.9299,-3.9299,-3.91,-3.8874,-3.8874,-3.8311,-3.793,-3.8377,-3.8328,-3.8261,-3.8427,-3.8096,-3.7673,-3.7417,-3.6738,-3.6108,-3.5644,-3.5578,-3.5413,-3.4949,-3.4899,-3.4899,-3.4899,-3.4899,-3.4899,-3.4899,-3.4899,-3.4899,-3.4899,-3.4899,-3.4899,-3.4899,-3.4899,-3.4899,-3.4899,-3.4899,-3.4923,-3.497,-3.4923,-3.4923,-3.1995,-3.2947,-3.4058,-3.4248,-3.5414,-3.7073,-3.9146,-4.0382,-4.1501,-4.2886,-4.2205,-4.136,-4.1297,-4.1374,-4.2011,-4.3638,-4.4636,-4.5059,-4.472,-4.497,-4.4849,-4.3834,-4.3433,-4.3433,-4.3974,-4.3591,-4.3512,-4.4066,-4.4174,-4.4417,-4.4989,-4.457,-4.4334,-4.4381,-4.3872,-4.3598,-4.3598,-4.3598,-4.3598,-4.3598,-4.3598,-4.3598,-4.3598,-4.3598,-4.3598,-4.3598,-4.3598,-4.3598,-4.3598,-4.3598,-4.3449,-4.3201,-4.2688,-4.2237,-4.1806,-4.1524,-4.1607,-4.1773,-4.1259,-4.1077,-4.0961,-4.0293,-3.9713,-3.9299,-3.9299,-3.9299,-3.9299,-3.9299,-3.9299,-3.9299,-3.9299,-3.9299,-3.9299,-3.9299,-3.9299,-3.9299,-3.9299,-3.8891,-3.8692,-3.9199,-3.8874,-3.8709,-3.9216,-3.8692,-3.8186,-3.8186,-3.7582,-3.692,-3.6406,-3.6357,-3.6059,-3.533,-3.5247,-3.5148,-3.4916,-3.4899,-3.4899,-3.4899,-3.4899,-3.4899,-3.4899,-3.4899,-3.4899,-3.4899,-3.4899,-3.4899,-3.4899,-3.4899,-3.4899,-3.4899,-3.4899,-3.4899,-3.2901,-3.2629,-3.2659,-3.3259,-3.4929,-3.6956,-3.8971,-3.9531,-4.0401,-4.3151,-4.2002,-4.095,-4.2327,-4.2051,-4.2082,-4.346,-4.4885,-4.5282,-4.3883,-4.4325,-4.4266,-4.286,-4.286,-4.2966,-4.2981,-4.314,-4.3275,-4.329,-4.3404,-4.3494,-4.3494,-4.36,-4.3686,-4.3686,-4.3612,-4.3582,-4.3598,-4.3598,-4.3598,-4.3598,-4.3598,-4.3598,-4.3598,-4.3598,-4.3598,-4.3598,-4.3598,-4.3598,-4.3598,-4.3598,-4.3151,-4.2506,-4.2489,-4.164,-4.0492,-4.1143,-4.0961,-4.0409,-4.0393,-4.0393,-4.0293,-3.9547,-3.9299,-3.9299,-3.9299,-3.9299,-3.9299,-3.9299,-3.9299,-3.9299,-3.9299,-3.9299,-3.9299,-3.9299,-3.9299,-3.9299,-3.9299,-3.9299,-3.9299,-3.9299,-3.9299,-3.9299,-3.9299,-3.8692,-3.8202,-3.8202,-3.7599,-3.7119,-3.7119,-3.7102,-3.682,-3.6092,-3.6009,-3.5711,-3.4965,-3.4916,-3.4899,-3.4899,-3.4899,-3.4899,-3.4899,-3.4899,-3.4899,-3.4899,-3.4899,-3.4899,-3.4899,-3.4899,-3.4899,-3.4899,-3.4899,-3.4899,-3.2133,-3.2964,-3.4107,-3.4264,-3.6509,-3.895,-4.0121,-4.1056,-4.2098,-4.3427,-4.2764,-4.197,-4.1905,-4.2132,-4.2424,-4.2845,-4.3703,-4.3983,-4.2999,-4.319,-4.2836,-4.1347,-4.1347,-4.1627,-4.2031,-4.1755,-4.1798,-4.2346,-4.2028,-4.1881,-4.2043,-4.207,-4.2113,-4.2154,-4.2125,-4.238,-4.2881,-4.2912,-4.3127,-4.3598,-4.3598,-4.3598,-4.3598,-4.3598,-4.3598,-4.3598,-4.3598,-4.3598,-4.3552,-4.3096,-4.3043,-4.3122,-4.1609,-4.1058,-4.1011,-4.0199,-4.0144,-4.0326,-3.9812,-3.9978,-4.0293,-3.9547,-3.9299,-3.9299,-3.9299,-3.8969,-3.859,-3.859,-3.859,-3.859,-3.859,-3.8969,-3.9299,-3.9299,-3.9299,-3.9299,-3.9299,-3.9299,-3.9299,-3.9299,-3.9299,-3.9299,-3.9299,-3.9133,-3.8984,-3.8984,-3.8801,-3.8444,-3.7947,-3.7433,-3.7036,-3.6804,-3.6771,-3.6489,-3.5744,-3.5678,-3.5446,-3.4932,-3.4899,-3.4899,-3.4899,-3.4899,-3.4899,-3.4899,-3.4899,-3.4899,-3.4899,-3.4899,-3.4899,-3.4899,-3.4899,-3.4899,-3.2961,-3.4004,-3.5342,-3.6131,-3.7987,-3.9959,-4.123,-4.2096,-4.2732,-4.3153,-4.2715,-4.2164,-4.2019,-4.2116,-4.2294,-4.2554,-4.3201,-4.3408,-4.2618,-4.2596,-4.2203,-4.092,-4.0719,-4.0817,-4.12,-4.0969,-4.0997,-4.1498,-4.1012,-4.0763,-4.087,-4.099,-4.1071,-4.1109,-4.136,-4.1852,-4.2585,-4.2617,-4.2943,-4.3598,-4.3598,-4.3598,-4.3598,-4.3598,-4.3598,-4.3598,-4.3598,-4.3462,-4.3141,-4.248,-4.2248,-4.2176,-4.0612,-4.0226,-4.0464,-3.9613,-3.9402,-3.9533,-3.9367,-3.9418,-3.9489,-3.9046,-3.9077,-3.9245,-3.898,-3.8618,-3.8306,-3.8306,-3.8137,-3.7994,-3.8222,-3.859,-3.8969,-3.9245,-3.9299,-3.9299,-3.9299,-3.9299,-3.9299,-3.9299,-3.9299,-3.9299,-3.9299,-3.9299,-3.9299,-3.9299,-3.9299,-3.9149,-3.8692,-3.8245,-3.7864,-3.7582,-3.7549,-3.7251,-3.6506,-3.6174,-3.581,-3.5363,-3.5048,-3.4899,-3.4899,-3.4899,-3.4899,-3.4899,-3.4899,-3.4899,-3.4899,-3.4899,-3.4899,-3.4899,-3.4899,-3.4899,-3.4518,-3.5257,-3.6322,-3.8345,-3.9441,-4.0476,-4.2197,-4.2602,-4.2602,-4.2602,-4.2116,-4.1873,-4.2489,-4.2099,-4.1873,-4.2489,-4.3153,-4.3331,-4.2507,-4.2354,-4.2004,-4.1123,-4.0589,-4.0329,-4.0388,-4.047,-4.061,-4.0669,-4.0254,-3.9981,-4.0033,-4.0269,-4.0409,-4.0409,-4.1008,-4.1689,-4.2491,-4.2491,-4.2881,-4.3598,-4.3598,-4.3568,-4.3492,-4.3568,-4.3598,-4.3598,-4.3539,-4.3174,-4.2537,-4.1746,-4.1053,-4.0421,-3.9612,-3.9348,-3.9398,-3.9262,-3.8799,-3.8379,-3.8996,-3.8772,-3.8238,-3.8278,-3.8689,-3.9023,-3.8407,-3.8165,-3.8137,-3.8137,-3.7735,-3.7458,-3.8051,-3.825,-3.8463,-3.9148,-3.9299,-3.9299,-3.9299,-3.9299,-3.9299,-3.9299,-3.9299,-3.9299,-3.9299,-3.9299,-3.9299,-3.9299,-3.9299,-3.9299,-3.9299,-3.9299,-3.905,-3.8377,-3.8311,-3.8013,-3.7268,-3.6589,-3.6141,-3.6009,-3.5363,-3.4965,-3.4899,-3.4899,-3.4899,-3.4899,-3.4899,-3.4899,-3.4899,-3.4899,-3.4899,-3.4899,-3.4899,-3.4899,-3.3133,-3.4528,-3.6472,-3.8629,-4.0783,-4.2388,-4.2552,-4.2602,-4.2602,-4.2602,-4.2489,-4.2424,-4.257,-4.2473,-4.2424,-4.257,-4.2732,-4.2574,-4.1813,-4.1218,-4.0582,-3.9796,-3.912,-3.8903,-3.9441,-3.9042,-3.9054,-3.9733,-3.9334,-3.9151,-3.9312,-3.9505,-3.9661,-3.9661,-3.9788,-4.0478,-4.1722,-4.1722,-4.238,-4.3598,-4.3598,-4.3325,-4.2834,-4.3372,-4.3598,-4.3568,-4.3035,-4.2741,-4.2458,-4.0685,-4.0467,-4.11,-3.9315,-3.9256,-4.004,-3.893,-3.8435,-3.8306,-3.8479,-3.8124,-3.7677,-3.8137,-3.8096,-3.778,-3.7634,-3.7221,-3.6799,-3.6799,-3.6723,-3.6784,-3.7413,-3.7937,-3.8463,-3.9148,-3.9299,-3.9299,-3.9299,-3.9299,-3.9299,-3.9299,-3.9299,-3.9299,-3.9299,-3.9299,-3.9299,-3.9299,-3.9299,-3.9299,-3.9299,-3.9299,-3.9249,-3.9083,-3.9067,-3.8758,-3.803,-3.7831,-3.7235,-3.6075,-3.586,-3.5495,-3.4916,-3.4899,-3.4899,-3.4899,-3.4899,-3.4899,-3.4899,-3.4899,-3.4899,-3.4899,-3.4899,-3.4899,-3.3889,-3.5379,-3.7193,-4.0034,-4.1888,-4.2976,-4.279,-4.2665,-4.2602,-4.2602,-4.2602,-4.2602,-4.2602,-4.2602,-4.2602,-4.2602,-4.2602,-4.246,-4.2077,-4.1078,-4.0243,-3.9859,-3.8863,-3.8333,-3.8696,-3.8405,-3.8385,-3.8833,-3.8728,-3.8686,-3.8811,-3.9104,-3.9265,-3.9265,-3.9337,-3.9915,-4.0992,-4.1327,-4.1885,-4.2572,-4.2619,-4.2272,-4.1642,-4.2647,-4.2947,-4.2635,-4.2595,-4.2029,-4.1036,-3.9936,-3.9693,-3.9913,-3.8808,-3.8629,-3.8914,-3.8452,-3.7908,-3.7442,-3.7764,-3.7442,-3.6981,-3.7294,-3.7383,-3.734,-3.7011,-3.6692,-3.6399,-3.6399,-3.6196,-3.6116,-3.6753,-3.7145,-3.756,-3.8226,-3.8606,-3.8898,-3.9245,-3.905,-3.8925,-3.9245,-3.905,-3.8925,-3.9228,-3.9299,-3.9299,-3.9299,-3.9299,-3.9299,-3.9299,-3.9299,-3.9299,-3.9299,-3.9299,-3.9149,-3.8758,-3.8411,-3.788,-3.7102,-3.6721,-3.6208,-3.5462,-3.5429,-3.5263,-3.4899,-3.4899,-3.4899,-3.4899,-3.4899,-3.4899,-3.4899,-3.4899,-3.4899,-3.4402,-3.6158,-3.8093,-4.1473,-4.2652,-4.2992,-4.2961,-4.2821,-4.2648,-4.2503,-4.2553,-4.2602,-4.2602,-4.2602,-4.2602,-4.2602,-4.2602,-4.2602,-4.2602,-4.1459,-4.0554,-4.0416,-3.9211,-3.8337,-3.8202,-3.8202,-3.8202,-3.8202,-3.8404,-3.8478,-3.8478,-3.8848,-3.9068,-3.9104,-3.9265,-3.9717,-4.0478,-4.116,-4.1437,-4.1331,-4.1142,-4.0802,-4.0345,-4.1415,-4.1768,-4.161,-4.1914,-4.1164,-3.9631,-3.9299,-3.887,-3.8369,-3.8154,-3.777,-3.7458,-3.7822,-3.7294,-3.6492,-3.7041,-3.6814,-3.6258,-3.6368,-3.6692,-3.6966,-3.6399,-3.6258,-3.6258,-3.6258,-3.5878,-3.5651,-3.6227,-3.6399,-3.6569,-3.7251,-3.7677,-3.8153,-3.8816,-3.8634,-3.8435,-3.8871,-3.8507,-3.8351,-3.9023,-3.9094,-3.9121,-3.9272,-3.9299,-3.9299,-3.9299,-3.9299,-3.9299,-3.9299,-3.9299,-3.9299,-3.9299,-3.8725,-3.8344,-3.8228,-3.7649,-3.6903,-3.6042,-3.6009,-3.5644,-3.4916,-3.4899,-3.4899,-3.4899,-3.4899,-3.4899,-3.4899,-3.4899,-3.4899,-3.1118,-3.4561,-3.8739,-4.1576,-4.2832,-4.3281,-4.3113,-4.3052,-4.2811,-4.2055,-4.2275,-4.2602,-4.2602,-4.2602,-4.2602,-4.2602,-4.2602,-4.2602,-4.2602,-4.1868,-4.1111,-4.0485,-3.9662,-3.8899,-3.8277,-3.8202,-3.8202,-3.8202,-3.8404,-3.8478,-3.8478,-3.8723,-3.8907,-3.9104,-3.9141,-3.9595,-4.0478,-4.116,-4.1194,-4.0626,-3.9451,-3.9155,-3.961,-3.9232,-3.9945,-4.1439,-4.0367,-4.0081,-4.0213,-3.8417,-3.7974,-3.829,-3.7124,-3.6984,-3.734,-3.6829,-3.6538,-3.6399,-3.6492,-3.6148,-3.5716,-3.6227,-3.6116,-3.5733,-3.5651,-3.5619,-3.5619,-3.5619,-3.5554,-3.5651,-3.6227,-3.6399,-3.6569,-3.7251,-3.7011,-3.6829,-3.7517,-3.7994,-3.8165,-3.7751,-3.7576,-3.7706,-3.8322,-3.8282,-3.8439,-3.9191,-3.9299,-3.9299,-3.9299,-3.9299,-3.9299,-3.9299,-3.9299,-3.9299,-3.9299,-3.9216,-3.8874,-3.8245,-3.8129,-3.745,-3.6059,-3.6009,-3.5644,-3.4916,-3.4899,-3.4899,-3.4899,-3.4899,-3.4899,-3.4899,-3.4899,-3.4899,-3.2299,-3.5545,-3.8881,-4.1692,-4.2607,-4.2749,-4.269,-4.2567,-4.2264,-4.1504,-4.1778,-4.2127,-4.2035,-4.2035,-4.2164,-4.2538,-4.2602,-4.2602,-4.2602,-4.1591,-4.0758,-4.0451,-3.9376,-3.8546,-3.824,-3.8202,-3.8202,-3.8202,-3.8277,-3.8329,-3.8329,-3.8501,-3.8649,-3.8775,-3.8995,-3.9307,-3.9722,-4.0502,-4.0388,-3.9359,-3.8764,-3.8232,-3.7764,-3.7884,-3.8433,-3.9266,-3.9018,-3.8678,-3.8198,-3.7543,-3.7312,-3.7306,-3.6928,-3.6596,-3.6352,-3.6368,-3.6196,-3.591,-3.591,-3.5701,-3.5537,-3.5829,-3.5716,-3.5504,-3.5504,-3.5504,-3.5504,-3.5504,-3.5504,-3.5554,-3.5829,-3.591,-3.5973,-3.6258,-3.6116,-3.5973,-3.6258,-3.6814,-3.7161,-3.689,-3.7131,-3.737,-3.7235,-3.7663,-3.8298,-3.9175,-3.9299,-3.9299,-3.9299,-3.9299,-3.9299,-3.9299,-3.9299,-3.9299,-3.9299,-3.9299,-3.9166,-3.8825,-3.8808,-3.8344,-3.7284,-3.6837,-3.6274,-3.5528,-3.5098,-3.4899,-3.4899,-3.4899,-3.4899,-3.4899,-3.4899,-3.4899,-3.2995,-3.5437,-3.7549,-4.0635,-4.1593,-4.1882,-4.2017,-4.1946,-4.1694,-4.1173,-4.1367,-4.1656,-4.1655,-4.1758,-4.2019,-4.2505,-4.2602,-4.2602,-4.2602,-4.1656,-4.0842,-4.0451,-3.9412,-3.862,-3.824,-3.8202,-3.8202,-3.8202,-3.8202,-3.8202,-3.8202,-3.8329,-3.8441,-3.8478,-3.8833,-3.8979,-3.8852,-3.922,-3.9029,-3.826,-3.7903,-3.7204,-3.6179,-3.6732,-3.6946,-3.6945,-3.768,-3.7488,-3.6679,-3.6856,-3.6707,-3.6347,-3.6471,-3.6092,-3.5489,-3.5926,-3.5846,-3.5504,-3.5504,-3.5472,-3.5439,-3.5439,-3.5392,-3.5359,-3.5407,-3.5439,-3.5439,-3.5504,-3.5504,-3.5504,-3.5504,-3.5504,-3.5504,-3.5504,-3.5504,-3.5537,-3.5716,-3.5958,-3.6227,-3.6368,-3.6692,-3.6814,-3.6538,-3.6966,-3.7796,-3.9094,-3.9299,-3.9299,-3.9299,-3.9299,-3.9191,-3.8843,-3.9121,-3.9245,-3.905,-3.9202,-3.9299,-3.9299,-3.9299,-3.8984,-3.8219,-3.7682,-3.7036,-3.629,-3.5562,-3.5081,-3.4899,-3.4899,-3.4899,-3.4899,-3.4899,-3.4899,-3.0937,-3.2469,-3.3856,-3.7516,-3.9471,-4.0663,-4.1297,-4.1446,-4.1402,-4.121,-4.1214,-4.1346,-4.1708,-4.2225,-4.2554,-4.2586,-4.2602,-4.2602,-4.2602,-4.2523,-4.1981,-4.0554,-4.0313,-3.9733,-3.8352,-3.8202,-3.8202,-3.8202,-3.8202,-3.8202,-3.8202,-3.8202,-3.8277,-3.8478,-3.8723,-3.8611,-3.8148,-3.7176,-3.6988,-3.7527,-3.6258,-3.5632,-3.5569,-3.5599,-3.5502,-3.5368,-3.6237,-3.6832,-3.7104,-3.649,-3.6107,-3.5868,-3.5248,-3.5096,-3.5213,-3.5246,-3.5359,-3.5504,-3.5504,-3.5359,-3.5213,-3.5213,-3.5082,-3.4968,-3.5148,-3.5213,-3.5261,-3.5439,-3.5504,-3.5504,-3.5504,-3.5504,-3.5504,-3.5504,-3.5504,-3.5651,-3.6227,-3.5941,-3.5716,-3.629,-3.5973,-3.5814,-3.6569,-3.6101,-3.6476,-3.8914,-3.9299,-3.9299,-3.9299,-3.9299,-3.886,-3.7634,-3.8579,-3.905,-3.8407,-3.8925,-3.9299,-3.9299,-3.9299,-3.8984,-3.8219,-3.8153,-3.7814,-3.7069,-3.6324,-3.5595,-3.4899,-3.4899,-3.4899,-3.4899,-3.4899,-3.4899,-2.9946,-3.1582,-3.335,-3.5553,-3.7549,-3.9056,-3.9305,-4.0415,-4.1132,-4.0178,-4.0611,-4.1222,-4.1386,-4.1771,-4.2192,-4.2553,-4.2602,-4.2602,-4.2602,-4.219,-4.1525,-4.0519,-3.9964,-3.9305,-3.8315,-3.8202,-3.8202,-3.8202,-3.8202,-3.8202,-3.8202,-3.8202,-3.824,-3.8315,-3.8201,-3.8002,-3.7658,-3.6753,-3.6486,-3.6769,-3.5903,-3.5504,-3.5504,-3.5359,-3.5261,-3.5195,-3.5385,-3.5555,-3.5714,-3.5358,-3.527,-3.5226,-3.4905,-3.4883,-3.5001,-3.5001,-3.5034,-3.5115,-3.5115,-3.5082,-3.5001,-3.5001,-3.4968,-3.4902,-3.5001,-3.5115,-3.5213,-3.5294,-3.5392,-3.5504,-3.5504,-3.5504,-3.5504,-3.5504,-3.5504,-3.5554,-3.5765,-3.5651,-3.5554,-3.5797,-3.5651,-3.5587,-3.5863,-3.5701,-3.5797,-3.6708,-3.8242,-3.9299,-3.9299,-3.9299,-3.8816,-3.7546,-3.8055,-3.8423,-3.8322,-3.8535,-3.8843,-3.9272,-3.9299,-3.9005,-3.8286,-3.7818,-3.7432,-3.7171,-3.5997,-3.5456,-3.5595,-3.5131,-3.4899,-3.4899,-3.4899,-3.4899,-2.8858,-3.0349,-3.2252,-3.4107,-3.547,-3.6738,-3.8228,-3.9288,-3.9901,-3.9713,-4.0332,-4.1007,-4.1181,-4.1602,-4.2113,-4.2614,-4.2634,-4.2602,-4.2602,-4.219,-4.1591,-4.0876,-4.0104,-3.9376,-3.8657,-3.8352,-3.8202,-3.8202,-3.8202,-3.8202,-3.8202,-3.8202,-3.8153,-3.8009,-3.7381,-3.7025,-3.6897,-3.6222,-3.5926,-3.6006,-3.5651,-3.5472,-3.5392,-3.5261,-3.5148,-3.5016,-3.4883,-3.4835,-3.485,-3.4731,-3.4716,-3.4735,-3.4616,-3.4683,-3.4835,-3.4835,-3.4868,-3.4902,-3.4902,-3.4868,-3.4835,-3.4835,-3.4783,-3.4735,-3.4802,-3.4916,-3.5063,-3.5148,-3.5261,-3.5326,-3.5472,-3.5504,-3.5504,-3.5504,-3.5504,-3.5564,-3.5789,-3.5833,-3.5774,-3.5549,-3.5744,-3.5848,-3.5549,-3.5504,-3.5504,-3.5504,-3.6952,-3.8026,-3.8026,-3.8777,-3.865,-3.6936,-3.7576,-3.7982,-3.7677,-3.7879,-3.8266,-3.8925,-3.8952,-3.8772,-3.8322,-3.7841,-3.7487,-3.7263,-3.6064,-3.5754,-3.6401,-3.5398,-3.4899,-3.4899,-3.4899,-3.5032,0.0,0.0,0.0,-3.3045,-3.3178,-3.3779,-3.8089,-3.8013,-3.7665,-3.9862,-4.0326,-4.052,-4.1078,-4.1762,-4.2397,-4.2814,-4.2728,-4.2602,-4.2602,-4.2602,-4.2317,-4.1558,-4.0842,-4.0104,-3.9341,-3.862,-3.8202,-3.8202,-3.8202,-3.8202,-3.8202,-3.8188,-3.7994,-3.7572,-3.6263,-3.5659,-3.5863,-3.5426,-3.518,-3.518,-3.5392,-3.5359,-3.518,-3.518,-3.503,-3.4698,-3.4698,-3.4698,-3.4698,-3.4698,-3.4597,-3.4414,-3.4414,-3.4515,-3.4698,-3.4698,-3.4783,-3.4902,-3.4902,-3.4817,-3.4698,-3.4698,-3.4563,-3.4448,-3.4631,-3.4698,-3.4765,-3.5082,-3.5034,-3.5001,-3.5392,-3.5504,-3.5504,-3.5504,-3.5519,-3.5699,-3.6327,-3.6492,-3.6342,-3.5669,-3.6207,-3.6507,-3.5654,-3.5504,-3.5504,-3.5504,-3.5579,-3.5624,-3.5624,-3.7714,-3.8258,-3.581,-3.7177,-3.7735,-3.6523,-3.6996,-3.7618,-3.8222,-3.8278,-3.825,-3.825,-3.825,-3.7966,-3.7399,-3.6648,-3.6587,-3.7159,-3.5637,-3.4908,-3.4932,-3.4932,-3.533,-2.787,0.0,0.0,0.0,0.0,0.0,-3.3342,-3.4651,-3.5976,-3.7665,-3.8444,-3.9189,-4.0393,-4.1106,-4.1716,-4.2351,-4.2649,-4.2837,-4.2837,-4.2696,-4.211,-4.0876,-4.0519,-3.9894,-3.862,-3.83,-3.8202,-3.8202,-3.8202,-3.8202,-3.8202,-3.7796,-3.7114,-3.6175,-3.5705,-3.5366,-3.5167,-3.4938,-3.4964,-3.518,-3.5115,-3.5115,-3.518,-3.4964,-3.4798,-3.4698,-3.4563,-3.4481,-3.4481,-3.4481,-3.4448,-3.4414,-3.4414,-3.4414,-3.4481,-3.4481,-3.4515,-3.4534,-3.4534,-3.4515,-3.4481,-3.4481,-3.4448,-3.4414,-3.4481,-3.4597,-3.4731,-3.4798,-3.4883,-3.4968,-3.5213,-3.5294,-3.5326,-3.5472,-3.5863,-3.6133,-3.5833,-3.6776,-3.7419,-3.6611,-3.6133,-3.5789,-3.5549,-3.5504,-3.5504,-3.5504,-3.712,-3.8297,-3.8297,-3.7288,-3.6519,-3.6439,-3.6736,-3.6768,-3.643,-3.6569,-3.6951,-3.7605,-3.7648,-3.7413,-3.6951,-3.692,-3.6845,-3.6692,-3.5965,-3.5906,-3.6559,-3.5501,-3.5209,-3.5694,-3.5694,-3.6092,-2.8548,-2.9029,-2.9856,-2.9922,0.0,0.0,-3.2862,-3.3723,-3.4568,-3.6671,-3.7698,-3.8477,-3.9322,-4.0233,-4.1102,-4.1811,-4.2348,-4.271,-4.2898,-4.2806,-4.2397,-4.1426,-4.0758,-4.0069,-3.9211,-3.8546,-3.8202,-3.8202,-3.8202,-3.8086,-3.7839,-3.723,-3.6453,-3.5545,-3.5165,-3.4879,-3.4668,-3.4683,-3.4798,-3.4997,-3.4935,-3.4935,-3.4983,-3.4798,-3.4664,-3.4563,-3.4448,-3.4414,-3.4414,-3.4414,-3.4414,-3.4414,-3.4414,-3.4414,-3.4414,-3.4414,-3.4414,-3.4414,-3.4414,-3.4414,-3.4414,-3.4414,-3.4414,-3.4414,-3.4414,-3.4481,-3.4597,-3.4664,-3.4783,-3.4994,-3.5374,-3.5548,-3.5722,-3.6156,-3.6462,-3.6611,-3.6596,-3.6821,-3.6881,-3.6372,-3.6746,-3.7135,-3.7135,-3.7135,-3.7135,-3.7135,-3.7509,-3.7973,-3.8512,-3.7255,-3.6282,-3.6267,-3.6326,-3.629,-3.6053,-3.6022,-3.629,-3.6951,-3.6981,-3.6814,-3.643,-3.6399,-3.629,-3.6022,-3.561,-3.5554,-3.5876,-3.5332,-3.5278,-3.5678,-3.5642,-3.617,-2.9721,-2.9764,-3.0423,-3.1524,-3.0252,0.0,-3.4177,-3.3756,-3.321,-3.5943,-3.7085,-3.7649,-3.7788,-3.904,-4.0216,-4.0845,-4.163,-4.2394,-4.2878,-4.293,-4.2806,-4.2523,-4.1245,-4.0382,-4.0278,-3.903,-3.8202,-3.8202,-3.8144,-3.7839,-3.723,-3.6562,-3.5909,-3.5319,-3.4704,-3.4414,-3.4414,-3.4597,-3.4664,-3.4698,-3.4817,-3.4783,-3.4698,-3.4664,-3.4563,-3.4414,-3.4414,-3.4414,-3.4414,-3.4414,-3.4414,-3.4414,-3.4414,-3.4414,-3.4414,-3.4414,-3.4414,-3.4414,-3.4414,-3.4414,-3.4414,-3.4414,-3.4414,-3.4414,-3.4414,-3.4414,-3.4448,-3.4631,-3.475,-3.5001,-3.5608,-3.595,-3.6327,-3.7097,-3.7086,-3.7116,-3.7849,-3.6926,-3.5938,-3.5938,-3.7823,-3.9388,-3.9388,-3.9388,-3.9388,-3.9388,-3.7434,-3.6252,-3.709,-3.7195,-3.6806,-3.5759,-3.6034,-3.6085,-3.5569,-3.5504,-3.5733,-3.6258,-3.6305,-3.6305,-3.6305,-3.6305,-3.6053,-3.5504,-3.5504,-3.5431,-3.5309,-3.5328,-3.5313,-3.5326,-3.5268,-3.5996,-3.1735,-3.1688,-3.1658,-3.1264,-3.0737,0.0,-3.0019,-3.0452,-3.125,-3.2426,-3.3259,-3.4137,-3.533,-3.6754,-3.7798,-3.793,-3.999,-4.1989,-4.3131,-4.3084,-4.2665,-4.2029,-4.1044,-4.0174,-3.9591,-3.873,-3.8202,-3.8202,-3.7752,-3.7201,-3.6533,-3.5894,-3.529,-3.4617,-3.4472,-3.4414,-3.4414,-3.4448,-3.4549,-3.4698,-3.4549,-3.4582,-3.4698,-3.4515,-3.4448,-3.4414,-3.4414,-3.4414,-3.4414,-3.4414,-3.4414,-3.4414,-3.4414,-3.4414,-3.4414,-3.4414,-3.4414,-3.4414,-3.4414,-3.4414,-3.4414,-3.4414,-3.4414,-3.4414,-3.4414,-3.4414,-3.4414,-3.4448,-3.4481,-3.4578,-3.4844,-3.5307,-3.5854,-3.6308,-3.6981,-3.7535,-3.7515,-3.8138,-3.8626,-3.8626,-3.9065,-3.9388,-3.9388,-3.9388,-3.9388,-3.9388,-3.899,-3.7988,-3.6118,-3.5878,-3.6043,-3.6507,-3.6007,-3.5619,-3.5504,-3.5504,-3.5569,-3.5683,-3.5683,-3.5683,-3.5683,-3.5683,-3.5619,-3.5504,-3.5504,-3.5494,-3.5456,-3.5883,-3.6095,-3.6095,-3.6068,-3.6773,-3.3051,-3.2827,-3.2697,-3.2268,-3.1493,0.0,0.0,-3.0688,-3.1004,-3.2497,-3.2757,-3.3143,-3.4618,-3.5495,-3.6241,-3.6986,-3.8924,-4.0586,-4.1257,-4.2377,-4.2959,-4.2506,-4.1641,-4.0792,-4.0069,-3.9233,-3.8583,-3.824,-3.7651,-3.7012,-3.6344,-3.5741,-3.5101,-3.4428,-3.4414,-3.4414,-3.4414,-3.4414,-3.4448,-3.4563,-3.4448,-3.4448,-3.4563,-3.4448,-3.4414,-3.4414,-3.4414,-3.4414,-3.4414,-3.4414,-3.4414,-3.4414,-3.4414,-3.4414,-3.4414,-3.4414,-3.4414,-3.4414,-3.4414,-3.4414,-3.4414,-3.4414,-3.4414,-3.4414,-3.4414,-3.4414,-3.4414,-3.4414,-3.4414,-3.452,-3.5059,-3.5434,-3.581,-3.6423,-3.7575,-3.8513,-3.8431,-3.8945,-3.9388,-3.9388,-3.9388,-3.9388,-3.9388,-3.9388,-3.9388,-3.9388,-3.8302,-3.6985,-3.5669,-3.5504,-3.5669,-3.6103,-3.5774,-3.5504,-3.5504,-3.5504,-3.5504,-3.5504,-3.5504,-3.5504,-3.5504,-3.5504,-3.5504,-3.5504,-3.5504,-3.5504,-3.5504,-3.5765,-3.5892,-3.5907,-3.5869,-3.6397,-3.4201,-3.3829,-3.3757,-3.3402,-3.2466,-3.1789,0.0,0.0,0.0,-3.2835,-3.2702,-3.263,-3.3822,-3.417,-3.4651,-3.586,-3.7516,-3.8669,-3.8669,-4.0828,-4.2354,-4.2291,-4.1785,-4.1114,-4.0303,-3.9199,-3.8463,-3.8211,-3.7186,-3.6489,-3.6315,-3.559,-3.4951,-3.4428,-3.4414,-3.4414,-3.4414,-3.4414,-3.4414,-3.4414,-3.4414,-3.4414,-3.4414,-3.4414,-3.4414,-3.4414,-3.4414,-3.4414,-3.4414,-3.4414,-3.4414,-3.4414,-3.4414,-3.4414,-3.4414,-3.4414,-3.4414,-3.4414,-3.4414,-3.4414,-3.4414,-3.4414,-3.4414,-3.4414,-3.4414,-3.4414,-3.4414,-3.4414,-3.4414,-3.4564,-3.5258,-3.5561,-3.5815,-3.6501,-3.7706,-3.8716,-3.8877,-3.9158,-3.9388,-3.9388,-3.9265,-3.9228,-3.9373,-3.9265,-3.9228,-3.9388,-3.718,-3.5504,-3.5504,-3.5504,-3.5504,-3.5504,-3.5504,-3.5504,-3.5504,-3.5504,-3.5504,-3.5504,-3.5504,-3.5504,-3.5504,-3.5504,-3.5504,-3.5504,-3.5504,-3.5504,-3.5504,-3.5504,-3.5504,-3.5489,-3.5444,-3.5769,-3.5583,-3.5346,-3.5025,-3.3723,-3.3655,-3.327,-3.081,0.0,-3.1374,-3.0309,0.0,-3.0787,-3.0969,0.0,0.0,-3.2194,-3.4568,-3.6373,-3.6373,-3.7772,-3.8906,-3.9242,-3.9782,-3.9692,-3.8662,-3.6905,-3.648,-3.8072,-3.5532,-3.4603,-3.6228,-3.5169,-3.4486,-3.4414,-3.4414,-3.4414,-3.4414,-3.4414,-3.4414,-3.4414,-3.4414,-3.4414,-3.4414,-3.4414,-3.4414,-3.4414,-3.4414,-3.4414,-3.4414,-3.4414,-3.4414,-3.4414,-3.4414,-3.4414,-3.4414,-3.4414,-3.4414,-3.4414,-3.4414,-3.4414,-3.4414,-3.4414,-3.4414,-3.4414,-3.4414,-3.4414,-3.4414,-3.4414,-3.4414,-3.4428,-3.4501,-3.4971,-3.549,-3.5771,-3.5979,-3.6315,-3.7033,-3.8359,-3.9388,-3.9388,-3.8811,-3.8538,-3.9265,-3.8811,-3.859,-3.9301,-3.718,-3.5504,-3.5504,-3.5504,-3.5504,-3.5504,-3.5504,-3.5504,-3.5504,-3.5504,-3.5504,-3.5504,-3.5504,-3.5504,-3.5504,-3.5504,-3.5504,-3.5504,-3.5504,-3.5504,-3.5504,-3.5504,-3.5504,-3.5504,-3.5479,-3.5802,-3.5802,-3.5943,-3.5926,-3.4421,-3.4226,-3.3866,-3.1756,-3.1274,-3.1211,-3.1048,0.0,0.0,0.0,0.0,0.0,0.0,-3.3359,-3.4568,-3.4137,-3.5363,-3.6969,-3.8863,-3.8618,-3.803,-3.7427,-3.5937,-3.5598,-3.6983,-3.4849,-3.4172,-3.5712,-3.4907,-3.4414,-3.4414,-3.4414,-3.4414,-3.4414,-3.4414,-3.4414,-3.4414,-3.4414,-3.4414,-3.4414,-3.4414,-3.4414,-3.4414,-3.4414,-3.4414,-3.4414,-3.4414,-3.4414,-3.4414,-3.4414,-3.4414,-3.4414,-3.4414,-3.4414,-3.4414,-3.4414,-3.4414,-3.4414,-3.4414,-3.4414,-3.4414,-3.4414,-3.4414,-3.4414,-3.4414,-3.4414,-3.4414,-3.4414,-3.4617,-3.484,-3.4923,-3.4961,-3.5029,-3.5375,-3.6588,-3.7584,-3.7584,-3.793,-3.8315,-3.8664,-3.8427,-3.782,-3.6667,-3.571,-3.5148,-3.5148,-3.5129,-3.5129,-3.5261,-3.5294,-3.5326,-3.5326,-3.5439,-3.5439,-3.5326,-3.5326,-3.5359,-3.5504,-3.5392,-3.5359,-3.5504,-3.5392,-3.5359,-3.5504,-3.5359,-3.5392,-3.5504,-3.5504,-3.5651,-3.5802,-3.6028,-3.6096,-3.4573,-3.4201,-3.3812,-3.2327,-3.178,-3.1636,-3.193,-3.1279,0.0,0.0,0.0,-3.1201,-3.1548,0.0,-3.3226,-3.2497,-3.3326,-3.4866,-3.7159,-3.667,-3.6224,-3.6407,-3.4726,-3.4309,-3.5909,-3.3983,-3.3489,-3.5305,-3.4762,-3.4414,-3.4414,-3.4414,-3.4414,-3.4414,-3.4414,-3.4414,-3.4414,-3.4414,-3.4414,-3.4414,-3.4414,-3.4414,-3.4414,-3.4414,-3.4414,-3.4414,-3.4414,-3.4414,-3.4414,-3.4414,-3.4414,-3.4414,-3.4414,-3.4414,-3.4414,-3.4414,-3.4414,-3.4414,-3.4414,-3.4414,-3.4414,-3.4414,-3.4414,-3.4414,-3.4414,-3.4414,-3.4414,-3.4414,-3.4414,-3.4414,-3.4414,-3.4414,-3.4486,-3.4704,-3.5488,-3.6272,-3.6736,-3.7564,-3.8202,-3.8202,-3.8202,-3.7578,-3.5735,-3.5054,-3.489,-3.5144,-3.4963,-3.4865,-3.5115,-3.518,-3.518,-3.518,-3.5359,-3.5439,-3.5294,-3.5294,-3.5326,-3.5407,-3.5326,-3.5326,-3.5439,-3.5326,-3.5326,-3.5439,-3.5326,-3.5326,-3.5439,-3.5472,-3.5504,-3.5802,-3.5616,-3.5278,-3.3791,-3.344,-3.3051,-3.1562,-3.2276,-3.2997,-3.2169,-3.2994,-3.3617,-3.2824,-3.2652,-3.2398,-3.1714,-3.2249,0.0,0.0,-3.1681,-3.1951,-3.2638,-3.3306,-3.4237,-3.5618,-3.2811,-3.2176,-3.5189,-3.2486,-3.208,-3.5232,-3.4762,-3.4414,-3.4414,-3.4414,-3.4414,-3.4414,-3.4414,-3.4414,-3.4414,-3.4414,-3.4414,-3.4414,-3.4414,-3.4414,-3.4414,-3.4414,-3.4414,-3.4414,-3.4414,-3.4414,-3.4414,-3.4414,-3.4414,-3.4414,-3.4414,-3.4414,-3.4414,-3.4414,-3.4414,-3.4414,-3.4414,-3.4414,-3.4414,-3.4414,-3.4414,-3.4414,-3.4414,-3.4414,-3.4414,-3.4414,-3.4414,-3.4414,-3.4414,-3.4414,-3.4646,-3.5494,-3.5697,-3.6185,-3.7825,-3.8173,-3.8202,-3.8202,-3.8202,-3.8173,-3.8086,-3.5981,-3.4806,-3.5815,-3.5297,-3.4898,-3.5148,-3.518,-3.518,-3.518,-3.5359,-3.5504,-3.5504,-3.5504,-3.5407,-3.5213,-3.5392,-3.5392,-3.5213,-3.5392,-3.5392,-3.5213,-3.5392,-3.5392,-3.5213,-3.5407,-3.5504,0.0,0.0,-3.6404,-3.4476,-3.4358,-3.4228,-3.2374,-3.263,-3.3047,-3.2186,-3.3061,-3.3733,-3.2873,-3.2702,-3.2613,-3.2365,-3.2133,-3.1879,0.0,-3.1184,-3.1006,-3.1403,-3.2526,-3.2967,-3.2213,-3.1513,-3.1838,-3.3506,-3.2251,-3.2363,-3.4603,-3.453,-3.4414,-3.4414,-3.4414,-3.4414,-3.4414,-3.4414,-3.4414,-3.4414,-3.4414,-3.4414,-3.4414,-3.4414,-3.4414,-3.4414,-3.4414,-3.4414,-3.4414,-3.4414,-3.4414,-3.4414,-3.4414,-3.4414,-3.4414,-3.4414,-3.4414,-3.4414,-3.4414,-3.4414,-3.4414,-3.4414,-3.4414,-3.4414,-3.4414,-3.4414,-3.4414,-3.4414,-3.4414,-3.4414,-3.4414,-3.4414,-3.4516,-3.4951,-3.4719,-3.4719,-3.5851,-3.6098,-3.6402,-3.7418,-3.7941,-3.8202,-3.8202,-3.8202,-3.8014,-3.7491,-3.6794,-3.6162,-3.5671,-3.5365,-3.5151,-3.5027,-3.4916,-3.4916,-3.5001,-3.5082,-3.5148,-3.5294,-3.5294,-3.5261,-3.518,-3.5148,-3.5115,-3.518,-3.5063,-3.5063,-3.518,-3.5063,-3.4983,-3.5001,-3.5082,-3.5261,-3.5557,-3.6249,0.0,-3.4745,-3.4796,-3.4835,-3.2972,-3.3501,-3.4175,-3.3294,-3.4007,-3.4682,-3.4326,-3.3822,-3.3415,-3.3127,-3.2464,-3.1797,0.0,-3.0803,-3.0486,-3.0508,-3.1397,-3.1617,-3.0672,-3.0184,-3.0613,-3.2317,-3.1596,-3.1988,-3.4049,-3.4317,-3.4414,-3.4414,-3.4414,-3.4414,-3.4414,-3.4414,-3.4414,-3.4414,-3.4414,-3.4414,-3.4414,-3.4414,-3.4414,-3.4414,-3.4414,-3.4414,-3.4414,-3.4414,-3.4414,-3.4414,-3.4414,-3.4414,-3.4414,-3.4414,-3.4414,-3.4414,-3.4414,-3.4414,-3.4414,-3.4414,-3.4414,-3.4414,-3.4414,-3.4414,-3.4414,-3.4414,-3.4414,-3.4414,-3.4414,-3.4414,-3.4574,-3.5247,-3.5087,-3.5096,-3.6388,-3.6664,-3.6852,-3.7491,-3.7941,-3.8202,-3.8202,-3.8202,-3.8028,-3.7491,-3.736,-3.6997,-3.6191,-3.5683,-3.5336,-3.5184,-3.4882,-3.475,-3.4902,-3.4883,-3.4949,-3.518,-3.5115,-3.5082,-3.5082,-3.4968,-3.4968,-3.5082,-3.4883,-3.4883,-3.5082,-3.4883,-3.4783,-3.485,-3.485,-3.4983]},{"header":{"parameterUnit":"m.s-1","parameterCategory":1,"la1":30.6,"la2":29.2853,"lo1":-89.7004,"lo2":-87.6739,"dy":0.0162,"dx":0.0183,"nx":112,"ny":82,"refTime":"2026-05-19T00:00:00:Z","depth":0,"parameterNumber":3,"parameterNumberName":"V-component_of_WINDS"},"data":[0.0,0.0,0.0,0.0,0.0,0.0,0.0,0.0,0.0,0.0,0.0,0.0,0.0,0.0,0.0,0.0,0.0,0.0,0.0,0.0,0.0,0.0,0.0,0.0,0.0,0.0,0.0,0.0,0.0,0.0,0.0,0.0,0.0,0.0,0.0,0.0,0.0,0.0,0.0,0.0,0.0,0.0,0.0,0.0,0.0,0.0,0.0,0.0,0.0,0.0,0.0,0.0,0.0,0.0,0.0,0.0,0.0,0.0,0.0,0.0,0.0,0.0,0.0,0.0,0.0,0.0,0.0,0.0,0.0,0.0,0.0,0.0,0.0,0.0,0.0,0.0,0.0,0.0,0.0,0.0,0.0,0.0,0.0,0.0,0.0,0.0,0.0,0.0,0.0,0.0,0.2912,0.2154,0.0862,0.0,0.0,0.0,0.0,0.0,0.0,0.0,0.0,0.0,0.0,0.0,0.0,0.0,0.0,0.0,0.0,0.0,0.0,0.0,0.0,0.0,0.0,0.0,0.0,0.0,0.0,0.0,0.0,0.0,0.0,0.0,0.0,0.0,0.0,0.0,0.0,0.0,0.0,0.0,0.0,0.0,0.0,0.0,0.0,0.0,0.0,0.0,0.0,0.0,0.0,0.0,0.0,0.0,0.0,0.0,0.0,0.0,0.0,0.0,0.0,0.0,0.0,0.0,0.0,0.0,0.0,0.0,0.0,0.0,0.0,0.0,0.0,0.0,0.0,0.0,0.0,0.0,0.0,0.0,0.0,0.0,0.0,0.0,0.0,0.0,0.0,0.0,0.0,0.0,0.0,0.0,0.0,0.0,0.0,0.0,0.0,0.0,0.0,0.0,0.0,0.0,0.0,0.0,0.0,0.0,0.0,0.0,0.0,0.0,0.3683,0.2566,0.0953,0.0,0.0,0.0,0.0,0.0,0.0,0.0,0.0,0.0,0.0,0.0,0.0,0.0,0.0,0.0,0.0,0.0,0.0,0.0,0.0,0.0,0.0,0.0,0.0,0.0,0.0,0.0,0.0,0.0,0.0,0.0,0.0,0.0,0.0,0.0,0.0,0.0,0.0,0.0,0.0,0.0,0.0,0.0,0.0,0.0,0.0,0.0,0.0,0.0,0.0,0.0,0.0,0.0,0.0,0.0,0.0,0.0,0.0,0.0,0.0,0.0,0.0,0.0,0.0,0.0,0.0,0.0,0.0,0.0,0.0,0.0,0.0,0.0,0.0,0.0,0.0,0.0,0.0,0.0,0.0,0.0,0.0,0.0,0.0,0.0,0.0,0.0,0.0,0.0,0.0,0.0,0.0,0.0,0.0,0.0,0.0,0.0,0.0,0.0,0.0,0.0,0.0,0.0,0.0,0.0,0.0,0.0,0.0,0.4338,0.3282,0.2798,0.126,0.0189,0.0,0.0,0.0,0.0,0.0,0.0,0.0,0.0,0.0,0.0,0.0,0.0,0.0,0.0,0.0,0.0,0.0,0.0,0.0,0.0,0.0,0.0,0.0,0.0,0.0,0.0,0.0,0.0,0.0,0.0,0.0,0.0,0.0,0.0,0.0,0.0,0.0,0.0,0.0,0.0,0.0,0.0,0.0,0.0,0.0,0.0,0.0,0.0,0.0,0.0,0.0,0.0,0.0,0.0,0.0,0.0,0.0,0.0,0.0,0.0,0.0,0.0,0.0,0.0,0.0,0.0,0.0,0.0,0.0,0.0,0.0,0.0,0.0,0.0,0.0,0.0,0.0,0.0,0.0,0.0,0.0,0.0,0.0,0.0,0.0,0.0,0.0,0.0,0.0,0.0,0.0,0.0,0.0,0.0,0.0,0.0,0.0,0.0,0.0,0.0,0.0,0.0,0.0,0.0,0.0,0.0,0.0,0.5028,0.3632,0.3499,0.2026,0.0793,0.0122,0.0118,0.0055,0.0,0.0,0.0,0.0,0.0,0.0,0.0,0.0,0.0,0.0,0.0,0.0,0.0,0.0,0.0,0.0,0.0,0.0,0.0,0.0,0.0,0.0,0.0,0.0,0.0,0.0,0.0,0.0,0.0,0.0,0.0,0.0,0.0,0.0,0.0,0.0,0.0,0.0,0.0,0.0,0.0,0.0,0.0,0.0,0.0,0.0,0.0,0.0,0.0,0.0,0.0,0.0,0.0,0.0,0.0,0.0,0.0,0.0,0.0,0.0,0.0,0.0,0.0,0.0,0.0,0.0,0.0,0.0,0.0,0.0,0.0,0.0,0.0,0.0,0.0,0.0,0.0,0.0,0.0,0.0,0.0,0.0,0.0,0.0,0.0,0.0,0.0,0.0,0.0,0.0,0.0,0.0,0.0,0.0,0.0,0.0,0.0,0.0,0.0,0.0,0.0,0.0,0.0,0.0,0.6832,0.5931,0.505,0.3536,0.1946,0.0473,0.0391,0.0262,0.0,0.0,0.0,0.0,0.0,0.0,0.0,0.0,0.0,0.0,0.0,0.0,0.0,0.0,0.0,0.0,0.0,0.0,0.0,0.0,0.0,0.0,0.0,0.0,0.0,0.0,0.0,0.0,0.0,0.0,0.0,0.0,0.0,0.0,0.0,0.0,0.0,0.0,0.0,0.0,0.0,0.0,0.0,0.0,0.0,0.0,0.0,0.0,0.0,0.0,0.0,0.0,0.0,0.0,0.0,0.0,0.0,0.0,0.0,0.0,0.0,0.0,0.0,0.0,0.0,0.0,0.0,0.0,0.0,0.0,0.0,0.0,0.0,0.0,0.0,0.0,0.0,0.0,0.0,0.0,0.0,0.0,0.0,0.0,0.0,0.0,0.0,0.0,0.0,0.0,0.0,0.0,0.0,0.0,0.0,0.0,0.0,0.0,0.0,0.0,0.0,0.0,0.0,0.0,0.6527,0.5789,0.6172,0.4984,0.3492,0.1885,0.1767,0.135,0.0327,0.0,0.0,0.0,0.0,0.0,0.0,0.0,0.0,0.0,0.0,0.0,0.0,0.0,0.0,0.0,0.0,0.0,0.0,0.0,0.0,0.0,0.0,0.0,0.0,0.0,0.0,0.0,0.0,0.0,0.0,0.0,0.0,0.0,0.0,0.0,0.0,0.0,0.0,0.0,0.0,0.0,0.0,0.0,0.0,0.0,0.0,0.0,0.0,0.0,0.0,0.0,0.0,0.0,0.0,0.0,0.0,0.0,0.0,0.0,0.0,0.0,0.0,0.0,0.0,0.0,0.0,0.0,0.0,0.0,0.0,0.0,0.0,0.0,0.0,0.0,0.0,0.0,0.0,0.0,0.0,0.0,0.0,0.0,0.0,0.0,0.0,0.0,0.0,0.0,0.0,0.0,0.0,0.0,0.0,0.0,0.0,0.0,0.0,0.0,0.0,0.0,0.0,0.7533,0.6824,0.6371,0.6935,0.6178,0.5026,0.339,0.3229,0.2575,0.1083,0.0,0.0,0.0,0.0,0.0,0.0,0.0,0.0,0.0,0.0,0.0,0.0,0.0,0.0,0.0,0.0,0.0,0.0,0.0,0.0,0.0,0.0,0.0,0.0,0.0,0.0,0.0,0.0,0.0,0.0,0.0,0.0,0.0,0.0,0.0,0.0,0.0,0.0,0.0,0.0,0.0,0.0,0.0,0.0,0.0,0.0,0.0,0.0,0.0,0.0,0.0,0.0,0.0,0.0,0.0,0.0,0.0,0.0,0.0,0.0,0.0,0.0,0.0,0.0,0.0,0.0,0.0,0.0,0.0,0.0,0.0,0.0,0.0,0.0,0.0,0.0,0.0,0.0,0.0,0.0,0.0,0.0,0.0,0.0,0.0,0.0,0.0,0.0,0.0,0.0,0.0,0.0,0.0,0.0,0.0,0.0,0.0,0.0,0.0,0.0,0.0,0.0,0.7516,0.8113,0.8165,0.7232,0.7093,0.6488,0.4852,0.4595,0.3866,0.0,0.0,0.0,0.0,0.0,0.0,0.0,0.0,0.0,0.0,0.0,0.0,0.0,0.0,0.0,0.0,0.0,0.0,0.0,0.0,0.0,0.0,0.0,0.0,0.0,0.0,0.0,0.0,0.0,0.0,0.0,0.0,0.0,0.0,0.0,0.0,0.0,0.0,0.0,0.0,0.0,0.0,0.0,0.0,0.0,0.0,0.0,0.0,0.0,0.0,0.0,0.0,0.0,0.0,0.0,0.0,0.0,0.0,0.0,0.0,0.0,0.0,0.0,0.0,0.0,0.0,0.0,0.0,0.0,0.0,0.0,0.0,0.0,0.0,0.0,0.0,0.0,0.0,0.0,0.0,0.0,0.0,0.0,0.0,0.0,0.0,0.0,0.0,0.0,0.0,0.0,0.0,0.0,0.0,0.0,0.0,0.0,0.0,0.0,0.0,0.0,0.0,0.0,0.7169,0.7896,0.83,0.8112,0.8078,0.754,0.62,0.5932,0.4902,0.2712,0.0,0.0,0.0,0.0,0.0,0.0,0.0,0.0,0.0,0.0,0.0,0.0,0.0,0.0,0.0,0.0,0.0,0.0,0.0,0.0,0.0,0.0,0.0,0.0,0.0,0.0,0.0,0.0,0.0,0.0,0.0,0.0,0.0,0.0,0.0,0.0,0.0,0.0,0.0,0.0,0.0,0.0,0.0,0.0,0.0,0.0,0.0,0.0,0.0,0.0,0.0,0.0,0.0,0.0,0.0,0.0,0.0,0.0,0.0,0.0,0.0,0.0,0.0,0.0,0.0,0.0,0.0,0.0,0.0,0.0,0.0,0.0,0.0,0.0,0.0,0.0,0.0,0.0,0.0,0.0,0.0,0.0,0.0,0.0,0.0,0.0,0.0,0.0,0.0,0.0,0.0,0.0,0.0,0.0,0.0,0.0,0.0,0.0,0.0,0.0,0.0,0.0,0.7024,0.7746,0.8255,0.8462,0.8482,0.8209,0.7398,0.709,0.6089,0.4008,0.0,0.0,0.0,0.0,0.0,0.0,0.0,0.0,0.0,0.0,0.0,0.0,0.0,0.0,0.0,0.0,0.0,0.0,0.0,0.0,0.0,0.0,0.0,0.0,0.0,0.0,0.0,0.0,0.0,0.0,0.0,0.0,0.0,0.0,0.0,0.0,0.0,0.0,0.0,0.0,0.0,0.0,0.0,0.0,0.0,0.0,0.0,0.0,0.0,0.0,0.0,0.0,0.0,0.0,0.0,0.0,0.0,0.0,0.0,0.0,0.0,0.0,0.0,0.0,0.0,0.0,0.0,0.0,0.0,0.0,0.0,0.0,0.0,0.0,0.0,0.0,0.0,0.0,0.0,0.0,0.0,0.0,0.0,0.0,0.0,0.0,0.0,0.0,0.0,0.0,0.0,0.0,0.0,0.0,0.0,0.0,0.0,0.0,0.0,0.0,0.0,0.0,0.6964,0.7591,0.8126,0.8411,0.8428,0.8367,0.8238,0.7946,0.7135,0.5689,0.0,0.0,0.0,0.0,0.0,0.0,0.0,0.0,0.0,0.0,0.0,0.0,0.0,0.0,0.0,0.0,0.0,0.0,0.0,0.0,0.0,0.0,0.0,0.0,0.0,0.0,0.0,0.0,0.0,0.0,0.0,0.0,0.0,0.0,0.0,0.0,0.0,0.0,0.0,0.0,0.0,0.0,0.0,0.0,0.0,0.0,0.0,0.0,0.0,0.0,0.0,0.0,0.0,0.0,0.0,0.0,0.0,0.0,0.0,0.0,1.5879,1.5411,0.0,0.0,0.0,0.0,0.0,0.0,0.0,0.0,0.0,0.0,0.0,0.0,0.0,0.0,0.0,0.0,0.0,0.0,0.0,0.0,0.0,0.0,0.0,0.0,0.0,0.0,0.0,0.0,0.0,0.0,0.0,0.0,0.0,0.0,0.0,0.0,0.0,0.0,0.0,0.0,0.6729,0.7417,0.7929,0.8062,0.8024,0.7943,0.7913,0.7638,0.6927,0.5677,0.5231,0.0,0.0,0.0,0.0,0.0,0.0,0.0,0.0,0.0,0.0,0.0,0.0,0.0,0.0,0.0,0.0,0.0,0.0,0.0,0.0,0.0,0.0,0.0,0.0,0.0,0.0,0.0,0.0,0.0,0.0,0.0,0.0,0.0,0.0,0.0,0.0,0.0,0.0,0.0,0.0,0.0,0.0,0.0,0.0,0.0,0.0,0.0,0.0,0.0,0.0,0.0,0.0,0.0,0.0,0.0,0.0,0.0,0.0,0.0,1.664,1.6326,0.0,0.0,0.0,0.0,0.0,0.0,0.0,0.0,0.0,0.0,0.0,0.0,0.0,0.0,0.0,0.0,0.0,0.0,0.0,0.0,0.0,0.0,0.0,0.0,0.0,0.0,0.0,0.0,0.0,0.0,0.0,0.0,0.0,0.0,0.0,0.0,0.0,0.0,0.0,0.0,0.6846,0.7496,0.799,0.8145,0.7945,0.7849,0.7849,0.7591,0.7043,0.6181,0.5832,0.0,0.0,0.0,0.0,0.0,0.0,0.0,0.0,0.0,0.0,0.0,0.0,0.0,0.0,0.0,0.0,0.0,0.0,0.0,0.0,0.0,0.0,0.0,0.0,0.0,0.0,0.0,0.0,0.0,0.0,0.0,0.0,0.0,0.0,0.0,0.0,0.0,0.0,0.0,0.0,0.0,0.0,0.0,0.0,0.0,0.0,0.0,0.0,0.0,0.0,0.0,0.0,0.0,2.0081,1.9368,1.8919,1.8974,1.8932,1.874,1.8019,1.7784,1.7837,1.7157,0.0,0.0,0.0,0.0,0.0,0.0,0.0,0.0,0.0,0.0,0.0,0.0,0.0,0.0,0.0,0.0,0.0,0.0,0.0,0.0,0.0,0.0,1.4988,1.3781,1.4005,1.3938,1.1958,0.0,0.0,0.0,0.0,0.0,0.0,0.0,0.0,0.0,0.0,0.0,0.7092,0.7709,0.8165,0.8275,0.8081,0.7927,0.7927,0.7622,0.7254,0.685,0.6543,0.6172,0.0,0.0,0.0,0.0,0.0,0.0,0.0,0.0,0.0,0.0,0.0,0.0,0.0,0.0,0.0,0.0,0.0,0.0,0.0,0.0,0.0,0.0,0.0,0.0,0.0,0.0,0.0,0.0,0.0,0.0,0.0,0.0,2.3739,2.462,0.0,0.0,0.0,0.0,0.0,0.0,0.0,0.0,0.0,0.0,0.0,0.0,0.0,2.289,2.2991,2.3464,2.3685,2.3683,2.4027,2.3512,2.2425,2.273,2.2486,2.1924,2.1783,0.0,1.8982,1.9186,0.0,0.0,0.0,0.0,0.0,0.0,0.0,0.0,0.0,0.0,0.0,0.0,0.0,0.0,0.0,0.0,0.0,0.0,0.0,0.0,0.0,0.0,1.6393,1.5963,1.5729,1.5444,1.4917,1.2723,1.0623,0.9697,0.8725,0.7852,0.0,0.0,0.0,0.0,0.0,0.0,0.7304,0.78,0.8165,0.8275,0.8171,0.809,0.809,0.776,0.7495,0.7338,0.7011,0.6688,0.6467,0.6051,0.0,0.0,0.0,0.0,0.0,0.0,0.0,0.0,0.0,0.0,0.0,0.0,0.0,0.0,0.0,0.0,0.0,0.0,0.0,0.0,0.0,0.0,0.0,0.0,0.0,0.0,0.0,0.0,0.0,2.3996,2.4717,2.5129,2.4916,2.4506,0.0,0.0,0.0,0.0,0.0,0.0,0.0,0.0,0.0,2.406,2.5452,2.6566,2.7364,2.7132,2.6824,2.6444,2.5899,2.5052,2.3869,2.4024,2.3812,2.3228,2.3431,2.3135,2.2356,2.1172,1.9855,1.854,0.0,0.0,0.0,0.0,1.6199,1.6012,1.6466,1.654,1.6382,1.5705,0.0,0.0,0.0,0.0,0.0,0.0,0.0,1.5149,1.5732,1.6293,1.6633,1.6339,1.6299,1.6106,1.5324,1.4275,1.304,1.1629,1.0967,1.0029,0.8127,0.7545,0.0,0.0,0.0,0.7367,0.7704,0.8127,0.8397,0.8472,0.8193,0.8002,0.8002,0.7649,0.7356,0.7234,0.7085,0.6891,0.66,0.6421,0.6108,0.0,0.0,0.0,0.0,0.0,0.0,0.0,0.0,0.0,0.0,0.0,0.0,0.0,0.0,0.0,0.0,0.0,0.0,0.0,0.0,0.0,0.0,0.0,0.0,0.0,0.0,0.0,0.0,2.5237,2.5797,2.5913,2.6234,2.5913,0.0,0.0,0.0,0.0,0.0,0.0,2.4652,2.6161,2.7086,2.7123,2.8407,2.961,3.0727,2.9959,2.9306,2.8906,2.785,2.6694,2.5543,2.5543,2.5285,2.4735,2.4962,2.5282,2.5425,2.319,2.1547,2.0381,1.9706,1.848,1.7122,1.7616,1.7606,1.7369,1.7599,1.7684,1.7542,1.6781,1.6415,1.6137,1.5278,0.0,0.0,0.0,0.0,1.5421,1.6304,1.6596,1.6653,1.6433,1.6547,1.6406,1.5311,1.519,1.4868,1.3366,1.2875,1.197,0.9661,0.915,0.0,0.7755,0.7957,0.826,0.8421,0.8541,0.8592,0.8547,0.8201,0.7974,0.7931,0.7601,0.737,0.7285,0.7236,0.7099,0.6847,0.6798,0.6561,0.6097,0.0,0.0,0.0,0.0,0.0,0.0,0.0,0.0,0.0,0.0,0.0,0.0,0.0,0.0,0.0,0.0,0.0,0.0,0.0,0.0,0.0,0.0,0.0,0.0,0.0,0.0,0.0,0.0,0.0,2.7519,2.8237,0.0,0.0,0.0,0.0,2.6775,2.7056,2.7839,2.9167,2.9891,3.0208,3.0199,3.06,3.0928,3.1086,3.0686,3.0616,3.0849,3.0509,2.9738,2.8465,2.8465,2.8022,2.7206,2.7225,2.7269,2.714,2.5119,2.3844,2.3249,2.2547,2.1596,2.0465,1.974,1.933,1.8954,1.8224,1.7995,1.789,1.7253,1.6651,1.6225,1.6448,1.6099,0.0,0.0,1.5929,1.5964,1.6818,1.69,1.67,1.6687,1.6693,1.646,1.5565,1.517,1.4883,1.4499,1.3587,1.2783,1.241,0.0,1.0373,1.0324,0.9747,0.9374,0.9601,0.9009,0.8543,0.8321,0.8296,0.8219,0.7999,0.787,0.7768,0.776,0.7594,0.7488,0.7472,0.7276,0.7017,0.6654,0.6464,0.0,0.0,0.0,0.0,0.0,0.0,0.0,0.0,0.0,0.0,0.0,0.0,0.0,0.0,0.0,0.0,0.0,0.0,0.0,0.0,0.0,0.0,0.0,0.0,0.0,0.0,0.0,0.0,2.8892,2.9658,0.0,2.8555,2.8682,2.8906,2.9053,2.9624,3.011,3.041,3.1435,3.1861,3.1589,3.218,3.2549,3.2549,3.2225,3.1954,3.1733,3.1139,3.0277,2.9281,2.8945,2.851,2.797,2.797,2.797,2.7858,2.6402,2.5176,2.4115,2.3512,2.2047,2.0392,2.1175,2.0864,2.0107,2.0705,2.0415,1.9639,1.8334,1.7519,1.6994,1.6903,1.6588,1.6323,1.6576,1.6619,1.6697,1.7224,1.7452,1.7406,1.6823,1.6828,1.6616,1.5397,1.5184,1.5097,1.4616,1.4061,1.3429,1.2734,1.2103,1.1508,1.0817,1.0559,1.0502,1.0697,1.0499,1.0038,0.9277,0.909,0.869,0.7942,0.7722,0.7533,0.7423,0.7354,0.7265,0.7184,0.7118,0.694,0.67,0.6513,0.6088,0.0,0.0,0.0,0.0,0.0,0.0,0.0,0.0,0.0,0.0,0.0,0.0,0.0,0.0,0.0,0.0,0.0,0.0,0.0,0.0,0.0,0.0,0.0,0.0,0.0,2.8193,2.9404,2.9551,3.0732,3.1074,2.9893,3.0303,3.0644,3.0644,3.1318,3.168,3.1543,3.2471,3.2881,3.2598,3.2998,3.3213,3.3213,3.2793,3.2295,3.1728,3.1162,3.0351,2.9336,2.9053,2.8691,2.8291,2.8291,2.8213,2.8027,2.7098,2.6087,2.5078,2.4504,2.3305,2.2021,2.2774,2.248,2.1745,2.1885,2.1172,2.0023,1.8923,1.8109,1.7555,1.7342,1.7065,1.6859,1.7065,1.7033,1.7063,1.7373,1.7548,1.7504,1.6953,1.6835,1.658,1.5488,1.53,1.5201,1.4808,1.4448,1.4041,1.3374,1.3085,1.2674,1.1862,1.1633,1.1576,1.1623,1.145,1.099,1.0091,0.9886,0.9441,0.8578,0.8068,0.789,0.8091,0.7707,0.7571,0.783,0.7512,0.7254,0.7035,0.6581,0.6124,0.5701,0.0,0.0,0.0,0.0,0.0,0.0,0.0,0.0,0.0,0.0,0.0,0.0,0.0,0.0,0.0,0.0,0.0,0.0,0.0,0.0,0.0,0.0,0.0,2.709,2.8906,3.0098,2.9717,3.1533,3.2158,3.0459,3.1074,3.1572,3.1572,3.1963,3.2383,3.2793,3.3203,3.3418,3.3418,3.3027,3.2803,3.2793,3.2383,3.1748,3.0908,3.0869,3.0176,2.8935,2.8916,2.8682,2.8291,2.8291,2.8057,2.7679,2.7197,2.6768,2.6348,2.5604,2.543,2.5538,2.4501,2.4137,2.384,2.1735,2.0061,1.8905,1.884,1.8399,1.783,1.7816,1.7589,1.7279,1.7279,1.7153,1.7051,1.7352,1.723,1.7036,1.6974,1.6744,1.636,1.5798,1.542,1.5196,1.5189,1.4806,1.4509,1.4516,1.4282,1.3988,1.366,1.3136,0.0,1.239,1.1764,1.117,1.0689,1.064,1.0446,0.9933,0.902,0.8874,0.982,0.8727,0.8481,0.944,0.8552,0.7927,0.77,0.6748,0.6121,0.5888,0.0,0.0,0.0,0.0,0.0,0.0,0.0,0.0,0.0,0.0,0.0,0.0,0.0,0.0,0.0,0.0,0.0,0.0,0.0,0.0,0.0,2.7465,2.8794,2.8883,3.0185,3.1348,3.1846,3.2705,3.3057,3.2578,3.2754,3.29,3.29,3.3008,3.3125,3.3242,3.3359,3.3418,3.3418,3.331,3.3105,3.2803,3.2383,3.1894,3.1338,3.0381,2.9736,2.9375,2.875,2.8398,2.8291,2.8291,2.8057,2.7679,2.7197,2.6768,2.6348,2.581,2.5177,2.4599,2.5069,2.5274,2.5069,2.3692,2.2474,2.1293,2.029,1.9136,1.8123,1.7889,1.7589,1.7279,1.7279,1.7239,1.7214,1.7301,1.7449,1.7469,1.7104,1.6942,1.6661,1.5894,1.542,1.5133,1.4866,1.4733,1.4689,1.4749,1.4532,1.4252,1.4017,1.3818,1.3597,1.3263,1.3083,1.2537,1.1392,1.1255,1.0888,0.9997,0.9648,0.9464,0.941,0.9064,0.8943,0.9073,0.8606,0.809,0.7579,0.7149,0.6582,0.0,0.0,0.0,0.0,0.0,0.0,0.0,0.0,0.0,0.0,0.0,0.0,0.0,0.0,0.0,0.0,0.0,0.0,0.0,0.0,0.0,0.0,2.9232,3.0426,3.1043,3.1691,3.2236,3.2734,3.3164,3.3418,3.3418,3.3418,3.3418,3.3418,3.3418,3.3418,3.3418,3.3418,3.3418,3.3418,3.3252,3.2959,3.2539,3.2109,3.1494,3.0693,2.9932,2.9385,2.9023,2.8516,2.8291,2.8291,2.8291,2.8057,2.7679,2.7197,2.6768,0.0,0.0,0.0,0.0,0.0,2.543,2.4962,2.4295,2.3384,2.2349,2.1537,2.0337,1.9117,1.8776,1.8115,1.7501,1.7315,1.7279,1.7279,1.7279,1.7425,1.752,1.7196,1.695,1.6615,1.6099,1.5626,1.5219,1.5034,1.4999,0.0,1.4993,1.4733,1.4441,1.4206,1.4295,1.4178,1.375,1.3804,1.3481,1.2376,1.2235,1.1961,1.1229,1.0695,0.0,0.0,0.0,0.9605,0.9354,0.9206,0.0,0.0,0.0,0.0,0.0,0.0,0.0,0.0,0.6174,0.6012,0.0,0.0,0.0,0.0,0.0,0.0,0.0,0.0,0.0,0.0,0.0,0.0,0.0,0.0,0.0,0.0,3.1124,3.1959,3.3119,3.304,3.2874,3.2861,3.3154,3.3369,3.3418,3.3418,3.3418,3.3418,3.3418,3.3418,3.3418,3.3418,0.0,0.0,0.0,3.2637,3.2178,3.1787,3.0937,2.9695,2.959,2.915,2.8359,2.831,2.8291,2.8291,2.8291,2.8057,2.7679,2.7197,2.6738,2.6279,2.584,2.5693,2.5693,2.5693,2.5118,2.4295,2.4295,0.0,0.0,2.2634,2.1637,2.0339,1.998,1.902,1.7886,1.7421,1.7279,1.7279,1.7279,1.7279,1.7279,1.7279,1.6835,1.6411,1.6411,1.5877,1.5389,1.5389,1.5389,1.5347,1.5173,1.4908,1.4643,1.4377,1.4559,1.4468,1.3894,1.4055,1.3992,1.3331,0.0,0.0,1.2921,1.1906,1.1745,1.2793,1.1475,1.0511,1.0244,1.0196,0.9821,0.9147,0.8443,0.8511,0.944,0.8451,0.8006,0.8015,0.671,0.6123,0.0,0.0,0.0,0.0,0.0,0.0,0.0,0.0,0.0,0.0,0.0,0.0,0.0,0.0,0.0,3.0806,3.2143,3.3185,3.326,3.3226,3.323,3.3262,3.3076,3.3047,3.3389,3.3418,3.3418,3.3418,3.3418,3.3418,3.3418,3.3418,3.3418,3.3418,3.334,3.2939,3.2238,3.209,3.1377,3.0068,2.9792,0.0,2.8789,2.8447,2.8291,2.8291,2.8291,2.8057,2.7679,2.7197,2.6562,2.581,2.5723,2.5693,2.5693,2.5693,2.5586,2.5382,2.5382,2.4106,2.2634,2.3493,2.2227,2.0339,1.998,1.9534,0.0,1.7648,1.7279,1.7279,1.7279,1.7279,1.7279,1.7279,1.6835,1.6411,1.6411,1.5877,1.5389,1.5389,1.5389,1.5389,1.5347,1.5173,1.4936,1.4657,1.4657,1.4468,1.3894,1.3873,1.367,1.3047,1.2984,1.2963,1.29,1.2691,1.2544,1.2578,1.2276,1.1964,1.1628,1.1314,1.0972,1.0613,1.0436,1.0116,0.9643,0.9739,0.951,0.893,0.7727,0.6878,0.0,0.0,0.0,0.0,0.0,0.0,0.0,0.0,0.0,0.0,0.0,3.2464,3.1951,0.0,3.2685,3.2499,3.3305,3.3963,3.4102,3.3596,3.326,3.3403,3.2861,3.2725,3.3359,3.3232,3.3193,3.3408,3.3418,3.3418,3.3418,3.3418,3.3418,3.3418,3.3213,3.2803,3.2238,3.1748,3.0976,2.9873,2.9453,2.9014,2.8603,2.8389,2.8291,2.8291,2.8291,2.8057,2.7669,2.6973,2.6318,2.5693,2.5693,2.5693,2.5693,2.5693,2.5693,2.5693,2.5693,2.4981,2.4214,2.4716,2.3577,2.1907,2.1569,2.0481,1.9193,1.8295,1.7692,1.7279,1.7279,1.7279,1.7279,1.7279,1.6835,1.6411,1.6411,1.5877,1.5389,1.5389,1.5389,1.5389,1.5389,1.5305,1.5157,1.4868,1.4805,1.4577,1.3987,1.3901,1.3722,1.325,1.32,1.32,1.32,1.32,1.3055,1.2719,1.2784,1.2678,1.2263,1.2066,1.1896,1.1748,1.1357,1.1217,1.1316,1.0792,1.0381,1.0024,0.9335,0.8303,0.0,0.0,0.0,0.0,0.0,0.0,0.0,3.2139,3.2679,3.3796,3.4059,3.4054,3.4004,3.4142,3.4164,3.4122,3.4346,3.4554,3.4758,3.3852,3.3185,3.3221,3.2623,3.2434,3.3223,3.2998,3.2969,3.3389,3.3418,3.3418,3.3418,3.3418,3.3379,3.3301,3.2891,3.2432,3.1924,3.1143,3.0312,2.9443,2.9082,2.8701,2.8291,2.8291,2.8291,2.8291,2.8203,2.793,2.748,2.6709,2.6133,2.5693,2.5693,2.5693,2.5693,2.5693,2.5693,2.5693,2.5693,2.5586,2.543,2.5635,2.459,2.3178,2.3062,2.1426,1.9476,1.8937,1.8241,1.7559,1.7326,1.7279,1.7311,1.7252,1.6791,1.6397,1.6338,1.5833,1.5389,1.5389,1.5389,1.5389,1.5389,1.5389,1.5279,1.4951,1.49,1.4666,1.407,1.3982,1.3857,1.3536,1.3492,1.3492,1.3492,1.3492,1.3346,1.3046,1.3156,1.3085,1.2721,1.2678,1.2678,1.2678,1.2065,1.211,1.2845,1.1683,1.1108,1.1157,1.0702,0.9526,3.0585,3.052,3.0922,3.1813,3.2466,3.3508,0.0,3.6166,3.6166,3.7224,3.702,3.6399,3.5391,3.5435,3.5261,3.4278,3.4786,3.5036,3.4452,3.3911,3.3316,3.2762,3.2296,3.2225,3.2783,3.2822,3.2969,3.3389,3.3418,3.3418,3.3418,3.3418,3.3252,3.2871,3.2461,3.1846,3.1045,3.0527,2.9844,2.8994,2.8945,2.8701,2.8291,2.8291,2.8291,2.8271,2.79,2.749,2.7051,2.6582,2.6133,2.5693,2.5693,2.5693,2.5693,2.5693,2.5693,2.5693,2.5693,2.5069,2.4452,2.5382,2.4084,2.2289,2.2817,2.1951,2.0441,1.916,1.8703,1.8427,1.7512,1.7279,1.726,1.702,1.6675,1.6338,1.6023,1.5644,1.5389,1.5389,1.5389,1.5389,1.5389,1.5389,1.5279,1.4951,1.49,1.4666,1.407,1.3982,1.3857,1.3536,1.3492,1.3492,1.3492,1.3492,1.3499,1.3455,1.3455,1.3441,1.3404,1.3404,1.3404,1.3404,1.3295,1.3093,1.2735,1.2323,1.2112,1.203,1.0976,0.9593,3.3847,3.3257,3.2867,3.4274,3.5052,3.5768,3.6923,3.7262,3.755,3.8341,3.7988,3.7232,3.6091,3.5592,3.5121,3.4258,3.461,3.4973,3.4604,3.4182,3.3602,3.2862,3.2272,3.2008,3.2405,3.2197,3.2324,3.3008,3.3057,3.3164,3.3408,3.3418,3.3115,3.2451,3.2256,3.1631,3.0498,3.0049,2.9521,2.8916,2.8672,2.8467,2.8291,2.8291,2.8164,2.791,2.7471,2.7041,2.6621,2.6182,2.5908,2.5693,2.5693,2.5693,2.5693,2.5693,2.5693,2.5693,2.5693,2.543,2.5118,2.5528,2.467,2.3447,2.3747,2.2686,2.122,2.0654,1.965,1.8703,1.8288,1.7603,1.7018,1.6932,1.6469,1.6074,1.5943,1.5657,1.5389,1.5389,1.5389,1.5389,1.5389,1.5389,1.5279,1.4951,1.4787,1.4501,1.404,1.3814,1.3645,1.3514,1.3492,1.3492,1.3492,1.3492,1.3492,1.3492,1.3492,1.3492,1.3492,1.3492,1.3492,1.3492,1.3492,1.3295,1.2861,1.2577,1.2289,1.2068,1.1819,1.0953,3.4758,3.4449,3.4223,3.5567,3.6546,3.7186,3.7186,3.7726,3.8254,3.8351,3.7891,3.7073,3.5925,3.5121,3.4481,3.4167,3.4515,3.4774,3.465,3.4339,3.3685,3.2684,3.2197,3.1941,3.188,3.1682,3.1826,3.2568,3.2627,3.2803,3.3223,3.3135,3.2793,3.2248,3.1816,3.1113,3.0029,2.9482,2.9062,2.874,2.8437,2.8291,2.8291,2.8174,2.7959,2.7689,2.709,2.667,2.6357,2.5869,2.5693,2.5693,2.5693,2.5693,2.5693,2.5693,2.5693,2.5693,2.5693,2.5693,2.5664,2.5596,2.484,2.4061,2.4185,2.3036,2.1695,2.1695,2.0701,1.9559,1.9239,1.8261,1.7274,1.7184,1.6521,1.5891,1.5761,1.5557,1.5389,1.5389,1.5389,1.5389,1.5389,1.5389,1.5309,1.5068,1.4809,1.445,1.4033,1.3697,1.3492,1.3492,1.3492,1.3492,1.3492,1.3492,1.3492,1.3492,1.3492,1.3492,1.3492,1.3492,1.3492,1.3492,1.3492,1.3331,1.3009,1.2775,1.2499,1.2273,1.2514,1.2282,3.1675,3.2692,3.4035,3.4625,3.5994,3.7186,3.7186,3.804,3.8527,3.7363,3.6655,3.5925,3.4747,3.3965,3.3582,3.4049,3.4515,3.466,3.4214,3.4132,3.3506,3.1825,3.205,3.197,3.1214,3.1376,3.1709,3.2158,3.2248,3.2373,3.2793,3.2432,3.2258,3.2229,3.0928,3.0039,2.959,2.875,2.833,2.831,2.8301,2.8291,2.8281,2.7924,2.7728,2.7669,2.6768,2.6396,2.6357,2.5869,2.5693,2.5693,2.5693,2.5693,2.5693,2.5693,2.5693,2.5693,2.5693,2.5693,2.5615,2.5234,2.4202,2.315,2.3654,2.2808,2.1695,2.1695,2.165,2.1373,2.0413,1.9196,1.8176,1.7834,1.682,1.5833,1.5469,1.5396,1.5389,1.5389,1.5389,1.5389,1.5389,1.5389,1.5382,1.5374,1.5097,1.4659,1.4062,1.3697,1.3492,1.3492,1.3492,1.3492,1.3492,1.3492,1.3492,1.3492,1.3492,1.3492,1.3492,1.3492,1.3492,1.3492,1.3492,1.3331,1.3009,1.3001,1.2987,1.298,1.2987,1.3127,3.3897,3.4517,3.5215,3.6132,3.6772,3.7374,3.8177,3.8013,3.7645,3.7272,3.5589,3.3926,3.3242,3.2273,3.1836,3.2602,3.3348,3.3841,3.3637,3.4194,3.402,3.2483,3.2537,3.2513,3.195,3.1606,3.1555,3.1998,3.1848,3.1924,3.2353,3.2246,3.1768,3.0889,3.043,2.9726,2.873,2.8437,2.8291,2.8291,2.8461,2.8461,2.8281,2.8052,2.7708,2.7207,2.6631,2.6221,2.5947,2.5752,2.5693,2.5693,2.5693,2.5693,2.5693,2.5693,2.5693,2.5693,2.5693,2.5547,2.5273,2.5117,2.4394,2.3556,2.3738,2.3254,2.2643,2.2643,2.2192,2.1606,2.1284,2.0234,1.9054,1.8037,1.7725,1.7261,1.574,1.5865,1.6105,1.5506,1.5389,1.5389,1.5389,1.5389,1.5389,1.5389,1.5112,1.4666,1.407,1.3887,1.3733,1.3521,1.3492,1.3492,1.3492,1.3492,1.3492,1.3492,1.3492,1.3492,1.3492,1.3492,1.3492,1.3492,1.3492,1.3331,1.3009,1.3009,1.2899,1.266,1.2906,1.3067,3.4901,3.5345,3.5759,3.691,3.7036,3.7134,3.785,3.7394,3.6769,3.6416,3.4746,3.3061,3.2042,3.1195,3.0905,3.1685,3.2416,3.3016,3.3327,3.3896,3.3824,3.2623,3.2642,3.2676,3.2225,3.1869,3.1676,3.1731,3.1574,3.1593,3.1914,3.1631,3.1201,3.0631,3.016,2.9577,2.8848,2.8583,2.8461,2.8461,2.8621,2.8674,2.8581,2.8145,2.7728,2.7237,2.6596,2.6133,2.583,2.5732,2.5693,2.5693,2.5693,2.5781,2.582,2.582,2.582,2.582,2.5732,2.5439,2.5086,2.4883,2.4365,2.376,2.3603,2.3315,2.3091,2.3091,2.2687,2.2192,2.2192,2.126,1.9983,1.8644,1.8482,1.812,1.6257,1.6296,1.6535,1.5982,1.5631,1.5389,1.5389,1.5389,1.5389,1.5389,1.5206,1.4842,1.4238,1.3953,1.3726,1.3521,1.3492,1.3492,1.3492,1.3492,1.3492,1.3492,1.3492,1.3492,1.3492,1.3492,1.3492,1.3492,1.3492,1.3397,1.3184,1.3184,1.3075,1.2877,1.3082,1.3184,3.4663,3.5169,3.5821,3.6897,3.6722,3.6367,3.6405,3.6332,3.5963,3.4776,3.3995,3.2957,3.0976,3.0485,3.0598,3.1171,3.1692,3.2344,3.3223,3.3389,3.3078,3.2122,3.2421,3.2525,3.206,3.2231,3.2076,3.1383,3.1325,3.1396,3.1524,3.0722,3.0553,3.1255,3.0046,2.9535,2.9766,2.9096,2.8727,2.8727,2.8727,2.8867,2.9061,2.8206,2.7804,2.7683,2.6614,2.61,2.61,2.583,2.5732,2.5732,2.5732,2.5917,2.61,2.61,2.61,2.61,2.583,2.543,2.4971,2.4551,2.4121,2.3682,2.3218,2.3091,2.3091,2.3091,2.3091,2.3091,2.3091,2.2206,2.0964,1.9684,1.9047,1.8385,1.7065,1.6821,1.6821,1.6739,1.5982,1.5431,1.5472,1.5423,1.5431,1.5472,1.5416,1.5174,1.4592,1.3931,1.3536,1.3499,1.3492,1.3492,1.3492,1.3492,1.3492,1.3492,1.3492,1.3492,1.3492,1.3492,1.3492,1.3492,1.3492,1.3492,1.3492,1.3492,1.3492,1.3492,1.3492,1.3492,3.5793,3.6345,3.6734,3.6656,3.6157,3.5868,3.6317,3.5394,3.4303,3.361,3.1634,2.9591,2.8377,2.8145,2.8404,2.9207,3.0853,3.2184,3.282,3.3472,3.3555,3.2607,3.2944,3.3037,3.2545,3.254,3.243,3.2076,3.1787,3.1664,3.1726,3.1197,3.0797,3.07,3.0048,2.9537,2.9303,2.9086,2.8983,2.8973,2.9237,2.9128,2.8629,2.8259,2.7823,2.7231,2.663,2.64,2.64,2.6304,2.6314,2.6314,2.6314,2.6352,2.64,2.64,2.64,2.64,2.6304,2.5557,2.456,2.4453,2.3916,2.3247,2.313,2.3091,2.3091,2.3091,2.3091,2.3091,2.3091,2.2882,2.2212,2.0659,2.0671,2.0452,1.8183,1.8158,1.8238,1.6935,1.5982,1.5631,1.6263,1.5824,1.5624,1.6263,1.5613,1.4878,1.4562,1.4364,1.4033,1.355,1.3492,1.3492,1.3492,1.3492,1.3492,1.3492,1.3492,1.3492,1.3492,1.3492,1.3492,1.3492,1.3492,1.3492,1.3492,1.3492,1.3492,1.3492,1.3492,1.3492,3.6247,3.7133,3.7789,3.7224,3.6671,3.6094,3.5429,3.4084,3.2704,3.1693,2.9512,2.7487,2.6559,2.6689,2.7167,2.7928,2.9777,3.1443,3.2246,3.3037,3.3296,3.2789,3.2944,3.2996,3.2758,3.2669,3.2612,3.2498,3.219,3.1879,3.1506,3.1073,3.0686,3.0362,2.9961,2.9606,2.9343,2.9343,2.9343,2.9343,2.9318,2.9146,2.8819,2.8307,2.7817,2.7405,2.6881,2.6699,2.6651,2.6554,2.6496,2.6496,2.6496,2.6544,2.6699,2.6699,2.6699,2.6699,2.6699,2.5819,2.4746,2.4608,2.3973,2.3276,2.3276,2.3363,2.3406,2.3319,2.3276,2.3232,2.3135,2.3091,2.2703,2.0992,2.1275,2.1303,1.9066,1.8935,1.8895,1.7545,1.687,1.6714,1.7188,1.687,1.6591,1.6698,1.6133,1.5413,1.4602,1.4379,1.4152,1.3748,1.3579,1.3492,1.3492,1.3492,1.3492,1.3492,1.3492,1.3492,1.3492,1.3492,1.3492,1.3492,1.3492,1.3492,1.3492,1.3492,1.3492,1.3492,1.3492,1.3492,3.6117,3.7183,3.809,3.7519,3.6972,3.5991,3.3804,3.233,3.0953,2.9297,2.7493,2.5978,2.5156,2.5679,2.6463,2.7082,2.8711,3.0408,3.1781,3.2328,3.2607,3.2669,3.2669,3.2669,3.2669,3.2669,3.2669,3.2669,3.2487,3.1997,3.1257,3.0823,3.0468,3.0176,2.9821,2.9659,2.9659,2.9659,2.9628,2.9567,2.9146,2.9004,2.9094,2.8286,2.7893,2.7762,2.7198,2.6948,2.6948,2.6699,2.6592,2.6592,2.6592,2.6747,2.6948,2.6948,2.6948,2.6948,2.6948,2.6215,2.5234,2.494,2.4262,2.3547,2.3547,2.3667,2.3754,2.359,2.3547,2.3493,2.3232,2.3178,2.28,2.1226,2.1406,2.1496,1.9909,1.9417,1.9094,1.8318,1.8078,1.8037,1.8158,1.8078,1.7796,1.7147,1.6862,1.6282,1.5129,1.4421,1.4011,1.3923,1.3667,1.3492,1.3492,1.3492,1.3492,1.3492,1.3492,1.3492,1.3492,1.3492,1.3492,1.3492,1.3492,1.3492,1.3492,1.3492,1.3492,1.3492,1.3492,1.3492,3.5346,3.519,3.4668,3.4143,3.363,3.2744,3.0798,2.9503,2.835,2.6819,2.5351,2.4182,2.3578,2.4239,2.5274,2.6511,2.8224,3.0036,3.174,3.205,3.2246,3.2628,3.2669,3.2669,3.2669,3.2669,3.2669,3.2669,3.2669,3.2416,3.1886,3.1453,3.088,3.0034,2.9983,2.9942,2.9942,2.9942,2.9746,2.9363,2.9291,2.8857,2.8152,2.7948,2.7728,2.7423,2.7293,2.7214,2.7214,2.7167,2.7167,2.7167,2.7167,2.7214,2.7214,2.7214,2.7214,2.7214,2.7214,2.6485,2.5473,2.5224,2.4486,2.3754,2.3754,2.3754,2.3797,2.3754,2.3754,2.3711,2.3503,2.3537,2.3398,2.2425,2.2171,2.1902,2.107,2.0029,1.9262,1.9094,1.8487,1.8238,1.8935,1.8487,1.8198,1.8767,1.7626,1.6854,1.7346,1.5638,1.4218,1.3638,1.3528,1.3492,1.3492,1.3492,1.3492,1.3492,1.3492,1.3492,1.3492,1.3492,1.3492,1.3492,1.3492,1.3492,1.3492,1.3492,1.3492,1.3492,1.3492,1.3492,3.473,3.5015,3.4934,3.4165,3.3602,3.2489,2.9742,2.8048,2.6542,2.4777,2.3687,2.2947,2.2505,2.3519,2.4629,2.5371,2.6848,2.8607,3.0677,3.1184,3.1681,3.2566,3.2669,3.2669,3.2669,3.2669,3.2669,3.2669,3.2452,3.2178,3.1723,3.1029,3.046,3.0005,2.9994,2.9994,2.9994,2.9994,2.9766,2.9301,2.9063,2.8587,2.7865,2.7686,2.7458,2.7309,2.7309,2.7309,2.7309,2.7309,2.7309,2.7309,2.7309,2.7309,2.7309,2.7309,2.7309,2.7309,2.7309,2.6615,2.5715,2.5624,2.4876,2.4024,2.4024,2.4067,2.4153,2.4024,2.4024,2.3937,2.3711,2.3711,2.3644,2.3001,2.2375,2.1689,2.1016,2.0399,1.9971,1.9971,1.9648,1.952,2.0059,1.9775,1.949,1.945,1.8829,1.8231,1.7802,1.6843,1.5806,1.4772,1.4292,1.3912,1.3528,1.384,1.3912,1.3528,1.3876,1.3912,1.3528,1.3492,1.3492,1.3492,1.3492,1.3492,1.3492,1.3492,1.3492,1.3492,1.3492,1.3492,3.3961,3.4637,3.4958,3.4069,3.3405,3.2088,2.87,2.667,2.4941,2.2994,2.2237,2.1835,2.1682,2.2882,2.4047,2.4459,2.5595,2.7268,2.9528,3.0336,3.1153,3.237,3.2607,3.2669,3.2669,3.2669,3.2669,3.2669,3.2219,3.1702,3.1247,3.045,2.9994,2.9994,2.9994,2.9994,2.9994,2.9994,2.9715,2.9156,2.8794,2.8317,2.7769,2.7417,2.7309,2.7309,2.7309,2.7309,2.7309,2.7309,2.7309,2.7309,2.7309,2.7309,2.7309,2.7309,2.7309,2.7309,2.7309,2.6698,2.5875,2.5875,2.5142,2.4249,2.4249,2.4368,2.4454,2.4292,2.4249,2.4206,2.3927,2.3927,2.3796,2.3271,2.2472,2.161,2.0879,2.0731,2.0731,2.0731,2.0731,2.077,2.0945,2.0945,2.0731,2.004,1.9913,1.9508,1.8446,1.8127,1.7651,1.6546,1.5429,1.4519,1.3924,1.4341,1.4294,1.3564,1.4186,1.4258,1.3528,1.3492,1.3492,1.3492,1.3492,1.3492,1.3492,1.3492,1.3492,1.3492,1.3492,1.3492,3.2544,3.234,3.1743,3.1186,3.0381,2.899,2.6187,2.4472,2.3054,2.1578,2.0912,2.0699,2.1093,2.2008,2.3067,2.428,2.5326,2.6744,2.9042,3.0129,3.104,3.1936,3.2421,3.2669,3.2669,3.2669,3.2669,3.2669,3.193,3.1236,3.077,3.0274,2.9994,2.9994,2.9994,2.9994,2.9994,2.9994,2.9549,2.868,2.8628,2.8162,2.7372,2.733,2.7309,2.7309,2.7309,2.7309,2.7309,2.7309,2.7309,2.7309,2.7309,2.7309,2.7309,2.7309,2.7309,2.7309,2.7309,2.6698,2.5875,2.5875,2.523,2.4454,2.4454,2.4497,2.4497,2.4497,2.4454,2.4411,2.4196,2.4282,2.4195,2.3176,2.2655,2.2191,2.1347,2.1128,2.1128,2.1128,2.1128,2.1167,2.1167,2.1167,2.1167,2.1051,2.0391,2.0129,2.0788,1.9697,1.886,1.8776,1.6675,1.5221,1.5155,1.48,1.4294,1.3564,1.4186,1.4258,1.3528,1.3492,1.3492,1.3492,1.3492,1.3492,1.3492,1.3492,1.3492,1.3492,1.3492,1.3492,3.1619,3.1847,3.1671,3.1215,2.9984,2.8317,2.6123,2.4364,2.2873,2.1756,2.1523,2.1551,2.152,2.2208,2.3013,2.3628,2.4022,2.5057,2.7334,2.8214,2.927,3.1019,3.164,3.2126,3.2675,3.2669,3.2556,3.2277,3.1723,3.1164,3.0708,3.0243,2.9994,2.9994,2.9994,2.9994,2.9994,2.9994,2.9528,2.8618,2.8618,2.8142,2.7309,2.7309,2.7309,2.7309,2.7309,2.7309,2.7309,2.7309,2.7309,2.7309,2.7309,2.7309,2.7309,2.7309,2.7309,2.7309,2.7309,2.6698,2.5875,2.5875,2.5275,2.4497,2.4497,2.4497,2.4497,2.4497,2.4497,2.4497,2.4411,2.4454,2.4227,2.3166,2.2829,2.2453,2.1435,2.1205,2.1205,2.1205,2.1205,2.1244,2.1359,2.1397,2.1397,2.1397,2.1185,2.1098,2.1205,2.0804,2.0466,2.0379,1.8109,1.6255,1.5388,1.5718,1.5455,1.4222,1.5313,1.5455,1.4222,1.415,1.3941,1.3499,1.3492,1.3492,1.3492,1.3492,1.3492,1.3492,1.3492,1.3492,3.0677,3.1102,3.1195,3.1008,2.958,2.78,2.6237,2.4478,2.2925,2.1994,2.1882,2.1912,2.1828,2.2252,2.2706,2.2972,2.3215,2.4095,2.6127,2.6993,2.8162,3.0056,3.0688,3.1329,3.224,3.2571,3.254,3.2019,3.1564,3.1164,3.0708,3.0243,2.9994,2.9994,2.9994,2.9994,2.9994,2.986,2.9394,2.8618,2.8473,2.8007,2.7309,2.7309,2.7309,2.7309,2.7309,2.7309,2.7309,2.7309,2.7309,2.7309,2.7309,2.7309,2.7309,2.7309,2.7309,2.7309,2.7309,2.6791,2.6127,2.6127,2.5471,2.4704,2.4704,2.4611,2.4497,2.4497,2.4497,2.4497,2.4497,2.4497,2.4268,2.3412,2.3084,2.2736,2.1802,2.1489,2.1397,2.1397,2.1397,2.1436,2.154,2.1578,2.1578,2.1578,2.1693,2.1693,2.1397,2.1464,2.1436,2.132,1.9574,1.7834,1.6351,1.675,1.6466,1.5002,1.6158,1.6298,1.4994,1.4708,1.4358,1.3848,1.3601,1.3492,1.3492,1.3492,1.3492,1.3492,1.3492,1.3492,2.9632,2.9684,2.9446,2.9891,2.8628,2.7081,2.6138,2.4478,2.2925,2.1994,2.1435,2.1259,2.1725,2.1807,2.1963,2.2428,2.3277,2.4343,2.5744,2.7055,2.8266,2.9208,2.9725,3.0367,3.1298,3.2199,3.254,3.2019,3.1629,3.1174,3.0708,3.0243,2.9994,2.9994,2.9994,2.9994,2.9994,2.9539,2.9073,2.8607,2.8152,2.7696,2.7309,2.7309,2.7309,2.7309,2.7309,2.7309,2.7309,2.7309,2.7309,2.7309,2.7309,2.7309,2.7309,2.7309,2.7309,2.7309,2.7309,2.6998,2.6604,2.6604,2.5958,2.5179,2.5179,2.4859,2.4497,2.4497,2.4497,2.4497,2.4497,2.4497,2.4383,2.3981,2.3515,2.306,2.2594,2.2128,2.1807,2.1807,2.1807,2.1807,2.1807,2.1807,2.1807,2.1807,2.1807,2.1807,2.1807,2.1617,2.1502,2.1502,2.0954,2.0017,1.86,1.786,1.6982,1.5771,1.6446,1.655,1.571,1.4994,1.4601,1.4601,1.3876,1.3492,1.3492,1.3492,1.3492,1.3492,1.3492,1.3492,2.7579,2.8224,2.8638,2.7852,2.6982,2.6044,2.4831,2.3826,2.2925,2.1994,2.1683,2.1631,2.1776,2.1807,2.2159,2.3267,2.3691,2.4386,2.5689,2.6796,2.7924,2.9156,3.0822,3.1857,3.1836,3.2029,3.2075,3.1619,3.1164,3.0843,3.0698,3.0243,2.9994,2.9994,2.9994,2.9849,2.9528,2.9373,2.8918,2.8142,2.7997,2.7686,2.7309,2.7309,2.7309,2.7309,2.7309,2.7309,2.7309,2.7309,2.7309,2.7309,2.7309,2.7309,2.7309,2.7309,2.7309,2.7309,2.7309,2.7009,2.6563,2.6241,2.5709,2.5127,2.4817,2.4621,2.4497,2.4497,2.4497,2.4497,2.4497,2.4497,2.4311,2.3588,2.3298,2.2977,2.219,2.1901,2.1807,2.1807,2.1807,2.1807,2.1807,2.1807,2.1807,2.1807,2.1807,2.1807,2.1807,2.1731,2.1693,2.1693,2.1418,2.0494,1.8665,1.8519,1.7948,1.6612,1.7354,1.7599,1.6964,1.6848,1.6482,1.5833,1.5596,1.5327,1.501,1.451,1.4099,1.3821,1.3601,1.3895,2.5927,2.6682,2.721,2.6693,2.5968,2.515,2.4322,2.3505,2.2718,2.1963,2.1807,2.1807,2.1807,2.1807,2.2087,2.2956,2.3391,2.4033,2.5213,2.631,2.751,2.8876,3.0615,3.1588,3.1298,3.1588,3.1609,3.1153,3.0853,3.0605,3.0439,3.0149,2.9994,2.9994,2.9994,2.9777,2.9311,2.9125,2.8659,2.7924,2.7759,2.7521,2.7309,2.7309,2.7309,2.7309,2.7309,2.7309,0.0,2.7309,2.7309,2.7309,2.7309,2.7309,2.7309,2.7309,2.7309,2.7309,2.7309,2.7123,2.6801,2.6335,2.573,2.5096,2.4631,2.4497,2.4497,2.4497,2.4497,2.4497,2.4497,2.4497,2.4352,2.3836,2.3432,2.3029,2.2449,2.2056,2.1807,2.1807,2.1807,2.1807,2.1807,2.1807,2.1807,2.1807,2.1807,2.1807,2.1807,2.1807,2.1807,2.1807,2.1693,2.1007,1.9543,1.9423,1.9043,1.8091,1.8502,1.8664,1.8428,1.8248,1.7878,1.7223,1.6994,1.6652,1.6201,1.5721,1.5229,1.463,1.4418,1.4477,0.0,2.5044,2.5316,2.6096,2.5326,2.4383,2.4321,2.3391,0.0,2.1901,2.1807,2.1818,2.1849,2.1866,2.1915,2.1932,2.2737,2.368,2.4466,2.5865,2.7262,2.8597,2.9549,3.0087,3.0046,3.0822,3.1143,3.0677,3.0636,3.045,3.0015,2.9994,2.9994,2.9994,2.9963,2.9725,2.9259,2.8794,2.8328,2.7872,2.7458,2.7309,2.7309,2.7309,2.7309,2.7309,2.7309,2.7309,2.7309,2.7309,2.7309,2.7309,2.7309,2.7309,2.7309,2.7309,2.7309,2.7309,2.7309,2.7309,2.7226,2.6729,2.5937,2.5096,2.4631,2.4497,2.4497,2.4497,2.4497,2.4497,2.4497,2.4497,2.4487,2.4456,2.3826,2.3184,2.3143,2.2439,2.1807,2.1807,2.1807,2.1807,2.1807,2.1807,2.1807,2.1807,2.1807,2.1807,2.1807,2.1807,2.1807,2.1807,2.1807,2.1566,2.1005,2.0541,2.0172,1.9903,1.9749,1.9723,1.9933,1.9307,1.8867,1.8656,1.8147,1.7637,1.7122,1.7122,1.6678,1.5865,1.5803,1.5271,2.2956,0.0,2.3991,2.3143,2.3215,2.3318,0.0,2.247,2.2366,2.1901,2.1807,2.1911,2.2273,2.2543,2.2879,2.3336,2.4374,2.5221,2.5519,2.7355,2.9042,3.0077,3.0708,3.0915,3.0563,3.0729,3.0657,3.0191,3.016,3.0108,3.0005,2.9994,2.9994,2.9994,2.9653,2.9239,2.8783,2.8317,2.7862,2.7417,2.7361,2.7309,2.7309,2.7309,2.7309,2.7309,2.7309,2.7309,2.7309,2.7309,2.7309,2.7309,2.7309,2.7309,2.7309,2.7309,2.7309,2.7309,2.7309,2.7309,2.7175,2.6345,2.5678,2.5096,2.4631,2.4497,2.4497,2.4497,2.4497,2.4497,2.4497,2.4497,2.4414,2.4115,2.3598,2.3091,2.2739,2.2211,2.1807,2.1807,2.1807,2.1807,2.1807,2.1807,2.1807,2.1807,2.1807,2.1807,2.1807,2.1807,2.1807,2.1807,2.1807,2.1728,2.1587,2.107,2.0487,1.9949,2.0011,2.0183,2.0417,2.037,2.0259,2.0093,1.9617,1.9056,1.8359,1.8221,1.7845,1.7308,1.6873,1.697,2.2118,2.3008,2.3743,2.2946,2.3132,2.3318,2.2604,2.2304,2.2108,2.1859,2.1807,2.188,2.2128,2.2485,2.2935,2.3483,2.4472,2.5526,2.6646,2.8069,2.9332,3.0263,3.0594,3.0646,3.0387,3.0367,3.0263,3.0015,2.9994,2.9994,2.9994,2.9994,2.9994,2.9994,2.9342,2.8866,2.8618,2.8152,2.7696,2.7309,2.7309,2.7309,2.7309,2.7309,2.7309,2.7309,2.7309,2.7309,2.7309,2.7309,2.7309,2.7309,2.7309,2.7309,2.7309,2.7309,2.7309,2.7309,2.7309,2.7029,2.6594,2.6086,2.544,2.4828,2.458,2.4497,2.4497,2.4497,2.4497,2.4497,2.4497,2.4497,2.4435,2.424,2.367,2.3122,2.2873,2.2283,2.1807,2.1807,2.1807,2.1807,2.1807,2.1807,2.1807,2.1807,2.1807,2.1807,2.1807,2.1807,2.1807,2.1807,2.1807,2.1807,2.1807,2.1515,2.1155,2.0777,2.0777,2.089,2.1145,2.122,2.122,2.1155,2.0714,2.0359,2.0041,1.9751,1.925,1.8623,1.8223,1.8065,2.1787,2.2822,2.3867,2.3619,2.3619,2.3546,2.308,2.2366,2.1807,2.1807,2.1807,2.1887,2.2175,2.2519,2.2968,2.3501,2.4293,2.5661,2.8004,2.8572,2.9082,3.0141,3.0099,2.9994,2.9994,2.9994,2.9994,2.9994,2.9994,2.9994,2.9994,2.9994,2.9963,2.9891,2.9063,2.8587,2.8504,2.8048,2.7634,2.7309,2.7309,2.7309,2.7309,2.7309,2.7309,2.7309,2.7309,0.0,2.7309,2.7309,2.7309,2.7309,2.7309,2.7309,2.7309,2.7309,2.7309,2.7309,2.7309,2.6791,2.6107,2.5972,2.5357,2.4673,2.4538,2.4497,2.4497,2.4497,2.4497,2.4497,2.4497,2.4497,2.4497,2.4497,2.3846,2.3184,2.3184,2.2459,2.1807,2.1807,2.1859,2.189,2.1818,2.1859,2.189,2.1818,2.1807,2.1807,2.1807,2.1807,2.1807,2.1807,2.1807,2.1807,2.1807,2.1807,2.1807,2.1807,2.1655,2.1617,2.1807,2.1807,2.1807,2.1807,2.1474,2.1397,2.154,2.1167,2.0615,1.9844,1.9648,1.903,2.1694,2.2822,2.3598,2.2418,2.2418,2.2584,2.2128,2.1901,2.1807,2.1807,2.1807,2.2265,2.3805,2.4039,2.4335,2.5263,2.5874,2.7238,3.0056,2.9732,2.9731,3.1162,3.0536,2.9994,2.9994,2.9994,2.9994,2.9994,2.9994,2.9994,2.9994,2.9994,2.9818,2.9425,2.8887,2.8421,2.8028,2.7583,2.7372,2.7309,2.7309,2.7309,2.7309,2.7309,2.7309,2.7309,0.0,2.7309,2.7309,2.7309,2.7309,2.7309,2.7309,2.7309,2.7309,2.7309,2.7309,2.7309,2.7309,2.7216,2.6967,2.6179,2.5782,2.5533,2.4724,2.4497,2.4497,2.4497,2.4497,2.4497,2.4497,2.4497,2.4497,2.4497,2.3846,2.3184,2.3184,2.2459,2.1807,2.1807,2.2118,2.2263,2.188,2.2128,2.2263,2.1859,2.1807,2.1807,2.1807,2.1807,2.1807,2.1807,2.1807,2.1807,2.1807,2.1807,2.1807,2.1807,2.1769,2.1769,2.1807,2.1807,2.1807,2.1807,2.1731,2.1731,2.1769,2.1512,2.1233,2.0964,2.0925,2.0741,2.0963,2.189,2.2666,2.2273,2.3256,2.4178,2.3596,2.3292,2.3114,2.3104,2.2906,2.3213,2.4799,2.4827,2.5093,2.6544,2.7879,2.9256,3.069,3.0464,3.0496,3.1469,3.1688,3.1494,3.094,3.1392,3.1494,3.0888,3.0888,3.0588,3.0047,2.9756,2.9528,2.9311,2.8618,2.8142,2.7924,2.7479,2.7309,2.7309,2.7309,2.7309,2.7309,2.7309,2.7309,2.7309,0.0,2.7309,2.7309,2.7309,2.7309,2.7309,2.7309,2.7309,2.7309,2.7309,2.7309,2.7309,2.7309,2.6978,2.649,2.6065,2.5554,2.5078,2.4621,2.4497,2.4497,2.4497,2.4497,2.4497,2.4497,2.4497,2.4497,2.4497,2.4043,2.3598,2.3598,2.2832,2.2252,2.2501,2.2522,2.2511,2.2542,2.2522,2.2418,2.2211,2.1963,2.1807,2.1807,2.1807,2.1807,2.1807,2.1807,2.1807,2.1807,2.1807,2.1807,2.1807,2.1807,2.1807,2.1807,2.1807,2.1807,2.1807,2.1807,2.1807,2.1807,2.1617,2.1464,2.1359,2.1244,2.1167,2.0519,2.1104,2.1756,2.2299,2.3681,2.4968,2.506,2.4556,2.4167,2.4545,2.4345,2.4442,2.5625,2.5779,2.6264,2.7768,2.9435,3.0718,3.144,3.1318,3.1461,3.223,3.2839,3.2901,3.2033,3.2739,3.2839,3.2033,3.1728,3.1227,3.0443,2.9704,2.9259,2.9145,2.8349,2.7872,2.7769,2.7427,2.7309,2.7309,2.7309,2.7309,2.7309,2.7309,2.7309,2.7309,2.7309,2.7309,2.7309,2.7309,2.7309,2.7309,2.7309,2.7237,2.7154,2.7268,2.7237,2.7143,2.7143,2.6677,2.6055,2.5792,2.5264,2.4642,2.4528,2.4497,2.4497,2.4497,2.4497,2.4497,2.4497,2.4497,2.4497,2.4497,2.4198,2.3919,2.3919,2.3236,2.276,2.3122,2.2987,2.2904,2.3143,2.2894,2.2625,2.2511,2.2097,2.1807,2.1807,2.1807,2.1807,2.1807,2.1807,2.1807,2.1807,2.1807,2.1807,2.1807,2.1807,2.1807,2.1807,2.1807,2.1807,2.1807,2.1807,2.1807,2.1807,2.1655,2.154,2.1502,2.1397,2.132,2.0948,2.1114,2.1317,2.1962,2.2126,2.2714,2.5039,2.4577,2.4069,2.5562,2.585,2.5969,2.6448,2.754,2.8514,2.917,2.9782,3.0917,3.3124,3.2555,3.2566,3.4374,3.3747,3.3151,3.3101,3.3151,3.3151,3.3101,3.2185,3.1586,3.1472,3.0093,2.9104,2.868,2.8183,2.7728,2.7361,2.732,2.7309,2.7309,2.7309,2.7309,2.7309,2.7309,2.7309,2.7309,2.7309,2.7309,2.7309,2.7309,2.7309,2.7309,2.7309,2.704,2.6718,2.7154,2.704,2.6667,2.6667,2.6625,2.6428,2.5554,2.5189,2.5055,2.4631,2.4497,2.4497,2.4497,2.4497,2.4497,2.4497,2.4497,2.4497,2.4497,2.4198,2.3919,2.3919,2.3484,2.3153,2.3184,2.3505,2.365,2.3256,2.3163,2.2987,2.2563,2.2097,2.1807,2.1807,2.1807,2.1807,2.1807,2.1807,2.1807,2.1807,2.1807,2.1807,2.1807,2.1807,2.1807,2.1807,2.1807,2.1807,2.1807,2.1807,2.1807,2.1807,2.1807,2.1693,2.1502,2.1693,2.1655,2.0224,2.1016,2.1816,2.2059,2.2618,2.3623,2.5605,2.6086,2.6397,2.7323,2.7248,2.6993,2.6856,2.9123,3.064,2.9423,3.0384,3.1937,3.3627,3.335,3.3499,3.4884,3.5126,3.4921,3.4239,3.4775,3.4921,3.4239,3.3834,3.2891,3.1238,3.0331,2.9324,2.8193,2.7748,2.7427,2.7309,2.7309,2.7309,2.7309,2.7309,2.7309,2.7309,2.7309,2.7309,2.7309,2.7309,2.7309,2.7309,2.7309,2.7309,2.7278,2.6988,2.677,2.6604,2.649,2.6521,2.6573,2.6293,2.6144,2.6041,2.543,2.4993,2.4724,2.4549,2.4497,2.4497,2.4497,2.4497,2.4497,2.4497,2.4497,2.4497,2.4497,2.4373,2.4291,2.4291,2.3939,2.3701,2.3981,2.395,2.3908,2.4012,2.3805,2.3598,2.3381,2.2956,2.2563,2.2273,2.2232,2.2128,2.1838,2.1807,2.1807,2.1807,2.1807,2.1807,2.1807,2.1807,2.1807,2.1807,2.1807,2.1807,2.1807,2.1807,2.1807,2.1807,2.1807,2.1769,2.1693,2.1769,2.1769,2.0041,2.0839,2.1749,2.1924,2.2998,2.4422,2.6033,2.6855,2.7534,2.852,2.8134,2.7571,2.7594,2.9511,3.0663,2.9434,3.0606,3.2215,3.3699,3.3887,3.4337,3.5655,3.6203,3.6203,3.5451,3.6013,3.6108,3.5367,3.4824,3.3776,3.1943,3.0632,2.9483,2.841,2.7681,2.7309,2.7309,2.7309,2.7309,2.7309,2.7309,2.7309,2.7309,2.7309,2.7309,2.7309,2.7309,2.7309,2.7309,2.7309,2.7216,2.7061,2.6739,2.6392,2.6123,2.5947,2.5999,2.6103,2.5782,2.5668,2.5595,2.5117,2.4755,2.4497,2.4497,2.4497,2.4497,2.4497,2.4497,2.4497,2.4497,2.4497,2.4497,2.4497,2.4497,2.4497,2.4497,2.4302,2.4178,2.4435,2.4291,2.4188,2.4445,2.4178,2.3919,2.3919,2.3484,2.307,2.2749,2.2718,2.2532,2.2076,2.2025,2.1963,2.1818,2.1807,2.1807,2.1807,2.1807,2.1807,2.1807,2.1807,2.1807,2.1807,2.1807,2.1807,2.1807,2.1807,2.1807,2.1807,2.1807,2.1807,2.0509,2.0538,2.0856,2.1547,2.2955,2.4635,2.6224,2.6476,2.6931,2.9037,2.8331,2.7621,2.8617,2.8364,2.8318,2.9314,3.0275,3.156,3.3445,3.4089,3.5054,3.6849,3.6849,3.6696,3.6709,3.6521,3.6392,3.6405,3.4913,3.3982,3.3982,3.1099,2.9397,2.9397,2.8052,2.7299,2.7309,2.7309,2.7309,2.7309,2.7309,2.7309,2.7309,2.7309,2.7309,2.7309,2.7309,2.7309,2.7309,2.7309,2.7029,2.6625,2.6615,2.602,2.5241,2.5709,2.5595,2.5189,2.5179,2.5179,2.5117,2.4652,2.4497,2.4497,2.4497,2.4497,2.4497,2.4497,2.4497,2.4497,2.4497,2.4497,2.4497,2.4497,2.4497,2.4497,2.4497,2.4497,2.4497,2.4497,2.4497,2.4497,2.4497,2.4178,2.3929,2.3929,2.3494,2.3194,2.3194,2.3184,2.3008,2.2553,2.2501,2.2315,2.1849,2.1818,2.1807,2.1807,2.1807,2.1807,2.1807,2.1807,2.1807,2.1807,2.1807,2.1807,2.1807,2.1807,2.1807,2.1807,2.1807,2.1807,2.0079,2.0849,2.1781,2.1934,2.3823,2.5903,2.6682,2.7498,2.8329,2.9292,2.8913,2.8309,2.8265,2.8418,2.8683,2.8967,2.9547,3.0726,3.2994,3.3291,3.3997,3.5942,3.5942,3.5947,3.6376,3.5978,3.5778,3.6008,3.5265,3.4218,3.2921,3.1991,3.102,2.9999,2.9565,2.8991,2.8315,2.8269,2.794,2.7309,2.7309,2.7309,2.7309,2.7309,2.7309,2.7309,2.7309,2.7309,2.7347,2.7987,2.7819,2.7076,2.7086,2.6536,2.5627,2.5119,2.5024,2.5137,2.4817,2.4921,2.5117,2.4652,2.4497,2.4497,2.4497,2.4946,2.5421,2.5421,2.5421,2.5421,2.5421,2.4946,2.4497,2.4497,2.4497,2.4497,2.4497,2.4497,2.4497,2.4497,2.4497,2.4497,2.4497,2.4394,2.4301,2.4301,2.4187,2.4022,2.3712,2.3391,2.3143,2.2998,2.2977,2.2801,2.2335,2.2294,2.2149,2.1828,2.1807,2.1807,2.1807,2.1807,2.1807,2.1807,2.1807,2.1807,2.1807,2.1807,2.1807,2.1807,2.1807,2.1807,2.0596,2.1507,2.2569,2.3184,2.4846,2.6574,2.7484,2.8261,2.8891,2.9175,2.8811,2.844,2.8342,2.8407,2.8528,2.8771,2.9208,3.0184,3.2042,3.2685,3.357,3.5181,3.5474,3.5717,3.6052,3.5692,3.5481,3.5678,3.5105,3.428,3.317,3.2459,3.1657,3.0767,3.0396,2.9715,2.8724,2.8678,2.8222,2.7309,2.7309,2.7309,2.7309,2.7309,2.7309,2.7309,2.7309,2.7489,2.7882,2.825,2.7963,2.7324,2.7072,2.6311,2.5285,2.4693,2.4921,2.5368,2.4719,2.4931,2.54,2.5115,2.4775,2.4583,2.4893,2.5379,2.5777,2.5777,2.6027,2.6235,2.5902,2.5421,2.4946,2.4583,2.4497,2.4497,2.4497,2.4497,2.4497,2.4497,2.4497,2.4497,2.4497,2.4497,2.4497,2.4497,2.4497,2.4404,2.4178,2.3898,2.366,2.3484,2.3463,2.3277,2.2811,2.2604,2.2377,2.2097,2.1901,2.1807,2.1807,2.1807,2.1807,2.1807,2.1807,2.1807,2.1807,2.1807,2.1807,2.1807,2.1807,2.1807,2.1569,2.2192,2.314,2.4724,2.5797,2.6854,2.8462,2.8803,2.8803,2.8803,2.8407,2.8244,2.8727,2.8396,2.8244,2.8727,2.9175,2.9781,3.0812,3.2134,3.3411,3.443,3.5206,3.568,3.5732,3.5491,3.5302,3.5353,3.4608,3.4147,3.4116,3.2609,3.1713,3.1713,3.0902,2.9943,2.8863,2.8863,2.8315,2.7309,2.7309,2.7357,2.7441,2.7357,2.7309,2.7309,2.7404,2.7904,2.8691,2.8291,2.7887,2.7393,2.6845,2.5798,2.4559,2.4593,2.5137,2.5704,2.4903,2.5179,2.5913,2.5819,2.5306,2.4861,2.5663,2.5986,2.6027,2.6027,2.6607,2.7028,2.6152,2.5861,2.5579,2.47,2.4497,2.4497,2.4497,2.4497,2.4497,2.4497,2.4497,2.4497,2.4497,2.4497,2.4497,2.4497,2.4497,2.4497,2.4497,2.4497,2.4342,2.3981,2.3939,2.3753,2.3287,2.2863,2.2584,2.2501,2.2097,2.1849,2.1807,2.1807,2.1807,2.1807,2.1807,2.1807,2.1807,2.1807,2.1807,2.1807,2.1807,2.1807,2.0653,2.1628,2.2901,2.4314,2.6169,2.7857,2.8634,2.8803,2.8803,2.8803,2.8727,2.8683,2.8781,2.8716,2.8683,2.8781,2.8891,2.9261,3.0239,3.1272,3.2281,3.3245,3.4157,3.4875,3.5357,3.4923,3.4705,3.4999,3.4268,3.3734,3.3576,3.3075,3.2766,3.2766,3.2581,3.1625,2.9897,2.9897,2.8991,2.7309,2.7309,2.7668,2.8351,2.7631,2.7309,2.7357,2.8081,2.8491,2.8773,2.9764,2.9267,2.7853,2.7721,2.6604,2.508,2.5402,2.5621,2.5777,2.5589,2.608,2.6689,2.6027,2.6121,2.6577,2.6782,2.7354,2.7919,2.7919,2.8051,2.7971,2.7058,2.6318,2.5579,2.47,2.4497,2.4497,2.4497,2.4497,2.4497,2.4497,2.4497,2.4497,2.4497,2.4497,2.4497,2.4497,2.4497,2.4497,2.4497,2.4497,2.4466,2.4363,2.4352,2.4219,2.3764,2.3639,2.3267,2.2542,2.2408,2.218,2.1818,2.1807,2.1807,2.1807,2.1807,2.1807,2.1807,2.1807,2.1807,2.1807,2.1807,2.1807,2.1176,2.2108,2.3297,2.5199,2.6943,2.8243,2.8524,2.871,2.8803,2.8803,2.8803,2.8803,2.8803,2.8803,2.8803,2.8803,2.8803,2.8978,2.9463,3.0744,3.1797,3.2277,3.356,3.4515,3.4842,3.458,3.4486,3.466,3.4189,3.3852,3.3738,3.3398,3.324,3.324,3.3154,3.2394,3.089,3.0441,2.9329,2.7647,2.7611,2.7714,2.7956,2.7961,2.7823,2.7622,2.8394,2.9089,2.9746,3.0506,3.0115,2.8932,2.8261,2.7237,2.6063,2.5875,2.6359,2.7017,2.6565,2.7017,2.7678,2.7221,2.7098,2.7191,2.7637,2.8091,2.8502,2.8502,2.8791,2.8922,2.8011,2.7424,2.6853,2.5966,2.5432,2.502,2.4583,2.4818,2.4978,2.4583,2.4818,2.4978,2.4572,2.4497,2.4497,2.4497,2.4497,2.4497,2.4497,2.4497,2.4497,2.4497,2.4497,2.4404,2.4219,2.4002,2.367,2.3184,2.2946,2.2625,2.2159,2.2139,2.2035,2.1807,2.1807,2.1807,2.1807,2.1807,2.1807,2.1807,2.1807,2.1807,2.1497,2.2594,2.3919,2.6358,2.7632,2.8254,2.8301,2.8477,2.8631,2.8601,2.8702,2.8803,2.8803,2.8803,2.8803,2.8803,2.8803,2.8803,2.8803,3.026,3.14,3.1577,3.3122,3.4217,3.4397,3.4397,3.4397,3.4397,3.4202,3.4118,3.4118,3.3696,3.3441,3.3398,3.324,3.2667,3.1625,3.0666,2.9557,2.8207,2.8276,2.7977,2.747,2.8464,2.8572,2.7934,2.8739,2.977,3.0963,3.0912,3.0574,2.9977,2.8621,2.7694,2.7028,2.6483,2.7221,2.8383,2.7597,2.7931,2.8712,2.8542,2.8091,2.773,2.8502,2.8712,2.8712,2.8712,2.9248,2.9585,2.8752,2.8502,2.8251,2.7313,2.6689,2.6038,2.5147,2.539,2.5621,2.5062,2.5547,2.5746,2.4861,2.4786,2.4743,2.454,2.4497,2.4497,2.4497,2.4497,2.4497,2.4497,2.4497,2.4497,2.4497,2.4198,2.396,2.3888,2.3525,2.306,2.2522,2.2501,2.2273,2.1818,2.1807,2.1807,2.1807,2.1807,2.1807,2.1807,2.1807,2.1807,1.9492,2.1648,2.4324,2.6487,2.7352,2.7773,2.7998,2.8092,2.8068,2.7901,2.8381,2.8803,2.8803,2.8803,2.8803,2.8803,2.8803,2.8803,2.8803,2.9726,3.0699,3.1488,3.255,3.3518,3.4314,3.4397,3.4397,3.4397,3.4202,3.4118,3.4118,3.381,3.3598,3.3398,3.3356,3.2785,3.1625,3.0666,2.9861,2.9112,2.9527,2.9238,2.8384,2.9363,2.9155,2.8083,2.9802,3.0894,3.1488,3.1388,3.0819,2.9983,2.8874,2.7869,2.7191,2.7879,2.8291,2.8502,2.8383,2.8882,2.9507,2.8752,2.8922,2.9456,2.9585,2.9624,2.9624,2.9624,2.9702,2.9585,2.8752,2.8502,2.8251,2.7313,2.7637,2.7879,2.6946,2.6235,2.5986,2.6618,2.6864,2.6648,2.5788,2.5883,2.5684,2.4668,2.4497,2.4497,2.4497,2.4497,2.4497,2.4497,2.4497,2.4497,2.4497,2.4445,2.4291,2.3898,2.3826,2.3401,2.2532,2.2501,2.2273,2.1818,2.1807,2.1807,2.1807,2.1807,2.1807,2.1807,2.1807,2.1807,2.0182,2.2211,2.4354,2.6305,2.7013,2.73,2.7393,2.7511,2.7512,2.7211,2.7718,2.8215,2.8353,2.8353,2.844,2.876,2.8803,2.8803,2.8803,3.0079,3.1134,3.1533,3.2895,3.3953,3.4356,3.4397,3.4397,3.4397,3.4314,3.4285,3.4285,3.4063,3.3894,3.3781,3.3526,3.3129,3.2599,3.0729,2.9343,2.8465,2.8684,2.8679,2.8522,2.9201,2.9159,2.866,2.9872,3.0628,3.107,3.1433,3.1101,3.0278,2.9439,2.8915,2.8593,2.8542,2.8791,2.9209,2.9209,2.9495,2.9753,2.9339,2.9507,2.9792,2.9792,2.9792,2.9792,2.9792,2.9792,2.9702,2.9339,2.9209,2.9131,2.8712,2.8922,2.9131,2.8712,2.7931,2.7435,2.7799,2.7476,2.7151,2.7302,2.6741,2.5893,2.4658,2.4497,2.4497,2.4497,2.4497,2.4497,2.4497,2.4497,2.4497,2.4497,2.4497,2.4414,2.426,2.425,2.396,2.3298,2.3018,2.2666,2.2201,2.1932,2.1807,2.1807,2.1807,2.1807,2.1807,2.1807,2.1807,2.0468,2.209,2.3463,2.5453,2.6243,2.6553,2.6704,2.6852,2.6883,2.661,2.6992,2.7441,2.7833,2.81,2.8342,2.8738,2.8803,2.8803,2.8803,2.9988,3.1057,3.1533,3.2852,3.3869,3.4356,3.4397,3.4397,3.4397,3.4397,3.4397,3.4397,3.4285,3.416,3.4118,3.3683,3.3365,3.3183,3.0918,2.9211,2.8117,2.8239,2.8483,2.8843,2.9152,2.9322,2.9387,2.9905,3.0425,3.0914,3.1339,3.1213,3.0702,3.0065,2.9818,2.9779,2.9157,2.9287,2.9792,2.9792,2.983,2.9869,2.9869,2.9895,2.9934,2.9908,2.9869,2.9869,2.9792,2.9792,2.9792,2.9792,2.9792,2.9792,2.9792,2.9792,2.9753,2.9507,2.9118,2.8752,2.8542,2.8091,2.7931,2.8291,2.773,2.6588,2.4786,2.4497,2.4497,2.4497,2.4497,2.4668,2.5105,2.4743,2.4583,2.4818,2.4615,2.4497,2.4497,2.4497,2.4301,2.394,2.3546,2.3143,2.2677,2.2221,2.1921,2.1807,2.1807,2.1807,2.1807,2.1807,2.1807,1.9005,2.0093,2.1155,2.3443,2.4664,2.5409,2.5868,2.5962,2.5996,2.619,2.6256,2.6594,2.7541,2.828,2.8771,2.8792,2.8803,2.8803,2.8803,2.8885,2.96,3.14,3.1709,3.2463,3.423,3.4397,3.4397,3.4397,3.4397,3.4397,3.4397,3.4397,3.4314,3.4118,3.381,3.3343,3.2653,3.1263,3.0019,2.9056,2.9492,2.97,2.9714,2.9739,2.9855,3.0074,3.0407,3.0974,3.162,3.1166,3.1043,3.1111,3.0573,3.0241,3.0075,3.0037,2.9934,2.9792,2.9792,2.9934,3.0075,3.0075,3.0228,3.033,3.0152,3.0075,3.0049,2.9869,2.9792,2.9792,2.9792,2.9792,2.9792,2.9792,2.9792,2.9585,2.8752,2.917,2.9507,2.8673,2.9131,2.9326,2.8187,2.891,2.8435,2.5031,2.4497,2.4497,2.4497,2.4497,2.5115,2.6782,2.5474,2.4818,2.5663,2.4978,2.4497,2.4497,2.4497,2.4301,2.394,2.3898,2.3629,2.3163,2.2697,2.2242,2.1807,2.1807,2.1807,2.1807,2.1807,2.1807,1.8306,1.9448,2.0637,2.2162,2.3463,2.4405,2.456,2.5254,2.5765,2.5228,2.5748,2.6388,2.6748,2.7517,2.8259,2.8702,2.8803,2.8803,2.8803,2.9336,3.017,3.1444,3.2147,3.298,3.4272,3.4397,3.4397,3.4397,3.4397,3.4397,3.4397,3.4397,3.4356,3.4272,3.3576,3.2313,3.0495,3.0703,3.0077,2.8727,2.9465,2.9792,2.9792,2.9934,3.0049,3.0126,3.0355,3.0636,3.0841,3.0804,3.0727,3.0689,3.0611,3.0457,3.0292,3.0292,3.0254,3.019,3.019,3.0228,3.0292,3.0292,3.033,3.0406,3.0292,3.019,3.0075,3.0011,2.9895,2.9792,2.9792,2.9792,2.9792,2.9792,2.9792,2.9702,2.9417,2.9585,2.9702,2.9378,2.9585,2.9663,2.9236,2.9495,2.9378,2.8103,2.5977,2.4497,2.4497,2.4497,2.5147,2.6905,2.6216,2.5673,2.5788,2.5505,2.5105,2.454,2.4497,2.467,2.5101,2.4854,2.4658,2.4487,2.3713,2.297,2.2242,2.1952,2.1807,2.1807,2.1807,2.1807,1.7425,1.8507,1.9813,2.1158,2.211,2.2956,2.3888,2.455,2.4933,2.4755,2.5386,2.5999,2.6235,2.6952,2.7742,2.8541,2.8757,2.8803,2.8803,2.9336,3.0079,3.1012,3.1972,3.2895,3.3827,3.423,3.4397,3.4397,3.4397,3.4397,3.4397,3.4397,3.4277,3.3999,3.3,3.1622,2.9945,3.0394,3.0079,2.9028,2.9585,2.983,2.9895,3.0049,3.0152,3.0305,3.0457,3.0482,3.0495,3.066,3.0647,3.0596,3.0761,3.0685,3.0482,3.0482,3.0444,3.0406,3.0406,3.0444,3.0482,3.0482,3.0571,3.0596,3.052,3.0419,3.0279,3.0152,3.0049,2.9972,2.983,2.9792,2.9792,2.9792,2.9792,2.9842,3.003,3.0068,3.0018,2.9829,2.9993,3.008,2.9829,2.9792,2.9792,2.9792,2.7782,2.6257,2.6257,2.5242,2.5401,2.777,2.6864,2.6287,2.6689,2.64,2.5872,2.4978,2.4935,2.5179,2.5788,2.5524,2.5524,2.585,2.5077,2.4287,2.3414,2.2335,2.1807,2.1807,2.1807,2.189,0.0,0.0,0.0,2.035,2.0581,2.1056,2.3743,2.3753,2.3536,2.4848,2.5137,2.5381,2.6107,2.6669,2.7271,2.8204,2.8617,2.8803,2.8803,2.8803,2.9152,3.0125,3.1057,3.1972,3.2938,3.3869,3.4397,3.4397,3.4397,3.4397,3.4397,3.4384,3.3986,3.3168,3.2083,3.141,3.1176,3.0457,3.0113,3.0113,2.9895,2.9934,3.0113,3.0113,3.0318,3.0698,3.0698,3.0698,3.0698,3.0698,3.0811,3.0986,3.0986,3.0874,3.0698,3.0698,3.0571,3.0406,3.0406,3.0533,3.0698,3.0698,3.0849,3.0949,3.0773,3.0698,3.0622,3.0228,3.0254,3.0292,2.9895,2.9792,2.9792,2.9792,2.9804,2.9955,3.0482,3.062,3.0495,2.993,3.0382,3.0633,2.9917,2.9792,2.9792,2.9792,2.9854,2.9892,2.9892,2.6839,2.5988,2.9454,2.7447,2.6607,2.8343,2.7689,2.6771,2.5902,2.5819,2.5861,2.5861,2.5861,2.6276,2.711,2.6748,2.6098,2.5242,2.2977,2.1866,2.1828,2.1828,2.2076,1.6335,0.0,0.0,0.0,0.0,0.0,2.0834,2.1652,2.248,2.3536,2.4022,2.4488,2.5363,2.6062,2.6704,2.7306,2.8029,2.8488,2.8488,2.8664,2.9417,3.1012,3.1444,3.2234,3.3869,3.4259,3.4397,3.4397,3.4397,3.4397,3.4397,3.4031,3.3271,3.2005,3.1798,3.1358,3.0637,3.0572,3.0394,3.0113,3.019,3.019,3.0113,3.0394,3.0584,3.0698,3.0849,3.0911,3.0911,3.0911,3.0949,3.0986,3.0986,3.0986,3.0911,3.0911,3.0874,3.0823,3.0823,3.0874,3.0911,3.0911,3.0949,3.0986,3.0911,3.0811,3.066,3.0584,3.0457,3.033,3.0075,3.0011,2.9972,2.983,3.0093,3.0319,3.0068,3.0859,3.1399,3.0721,3.0319,3.003,2.9829,2.9792,2.9792,2.9792,3.1148,3.2206,3.2206,2.9927,2.8918,3.044,2.8895,2.7959,2.8462,2.8251,2.7718,2.6823,2.673,2.7058,2.7718,2.7758,2.7891,2.8091,2.7659,2.6995,2.6137,2.4172,2.292,2.2304,2.2304,2.2553,1.6607,1.71,1.7851,1.8157,0.0,0.0,2.0534,2.1073,2.16,2.2915,2.3557,2.4043,2.4571,2.5324,2.5996,2.6445,2.7239,2.7936,2.8326,2.8535,2.9071,3.0306,3.1134,3.2016,3.3122,3.3953,3.4397,3.4397,3.4397,3.4293,3.4071,3.3522,3.275,3.1656,3.1524,3.1199,3.0672,3.0685,3.0584,3.0356,3.0368,3.0368,3.0343,3.0584,3.0736,3.0849,3.0949,3.0986,3.0986,3.0986,3.0986,3.0986,3.0986,3.0986,3.0986,3.0986,3.0986,3.0986,3.0986,3.0986,3.0986,3.0986,3.0986,3.0986,3.0986,3.0911,3.0811,3.0736,3.0571,3.042,3.0547,3.0495,3.0442,3.0473,3.0595,3.0721,3.0708,3.0896,3.0947,3.052,3.0834,3.116,3.116,3.116,3.116,3.116,3.1474,3.1863,3.2315,3.126,3.0444,3.0432,2.9285,2.8673,2.9,2.904,2.8673,2.7718,2.7678,2.7931,2.8462,2.8502,2.8673,2.904,2.8772,2.8091,2.7035,2.5435,2.4359,2.384,2.3257,2.3377,1.7116,1.7314,1.7966,1.8942,1.8403,0.0,2.1304,2.1093,2.0752,2.2459,2.3174,2.3525,2.367,2.4395,2.513,2.5523,2.633,2.7203,2.8179,2.8348,2.8535,2.8885,3.0519,3.1621,3.1753,3.3335,3.4397,3.4397,3.4345,3.4071,3.3522,3.2921,3.2333,3.1732,3.1248,3.0986,3.0986,3.0811,3.0736,3.0698,3.0533,3.0571,3.0698,3.0736,3.0849,3.0986,3.0986,3.0986,3.0986,3.0986,3.0986,3.0986,3.0986,3.0986,3.0986,3.0986,3.0986,3.0986,3.0986,3.0986,3.0986,3.0986,3.0986,3.0986,3.0986,3.0986,3.0949,3.0773,3.0609,3.056,3.1022,3.1045,3.1026,3.1266,3.1188,3.1213,3.1829,3.0984,3.0156,3.0156,3.1738,3.3124,3.3124,3.3124,3.3124,3.3124,3.1411,3.0419,3.1122,3.121,3.0884,3.0005,2.918,2.8961,2.9714,2.9792,2.9456,2.8712,2.8621,2.8621,2.8621,2.8621,2.9,2.9792,2.9792,2.9207,2.8023,2.6561,2.5893,2.5843,2.458,2.4452,1.8276,1.8434,1.8602,1.8462,1.8469,0.0,1.8486,1.8936,1.9575,2.0311,2.0783,2.1331,2.2076,2.2967,2.3619,2.3701,2.5049,2.6493,2.761,2.8113,2.871,2.9498,3.0789,3.1884,3.2636,3.3742,3.4397,3.4397,3.3992,3.3496,3.2894,3.2319,3.1706,3.1169,3.1039,3.0986,3.0986,3.0949,3.0836,3.0698,3.0836,3.0798,3.0698,3.0874,3.0949,3.0986,3.0986,3.0986,3.0986,3.0986,3.0986,3.0986,3.0986,3.0986,3.0986,3.0986,3.0986,3.0986,3.0986,3.0986,3.0986,3.0986,3.0986,3.0986,3.0986,3.0986,3.0986,3.0949,3.0911,3.0862,3.0827,3.11,3.1305,3.1079,3.1584,3.1987,3.1619,3.2001,3.2483,3.2483,3.278,3.3124,3.3124,3.3124,3.3124,3.3124,3.2717,3.1876,3.0306,3.0105,3.0244,3.0633,3.0013,2.9624,2.9792,2.9792,2.9714,2.9546,2.9546,2.9546,2.9546,2.9546,2.9624,2.9792,2.9792,2.9651,2.9423,2.7348,2.6345,2.6345,2.6085,2.5869,1.9082,1.9001,1.9069,1.8913,1.869,0.0,0.0,1.8852,1.9232,2.0159,2.037,2.071,2.1631,2.218,2.2646,2.3111,2.4322,2.5422,2.5969,2.7193,2.8233,2.8806,2.9977,3.1089,3.2016,3.3066,3.3911,3.4356,3.3901,3.3326,3.2725,3.2111,3.1536,3.0999,3.0986,3.0986,3.0986,3.0986,3.0949,3.0849,3.0949,3.0949,3.0849,3.0949,3.0986,3.0986,3.0986,3.0986,3.0986,3.0986,3.0986,3.0986,3.0986,3.0986,3.0986,3.0986,3.0986,3.0986,3.0986,3.0986,3.0986,3.0986,3.0986,3.0986,3.0986,3.0986,3.0986,3.0986,3.0986,3.1014,3.1086,3.128,3.1474,3.1454,3.2092,3.2676,3.2319,3.2679,3.3124,3.3124,3.3124,3.3124,3.3124,3.3124,3.3124,3.3124,3.2139,3.1035,2.993,2.9792,2.993,3.0294,3.0018,2.9792,2.9792,2.9792,2.9792,2.9792,2.9792,2.9792,2.9792,2.9792,2.9792,2.9792,2.9792,2.9792,2.9792,2.8704,2.8168,2.8117,2.7399,2.7056,1.9746,1.9531,1.9539,1.9528,1.9077,1.8725,0.0,0.0,0.0,2.017,2.0237,2.0389,2.1135,2.1352,2.1652,2.2408,2.3443,2.4104,2.4104,2.5698,2.7048,2.7399,2.8651,2.9871,3.0925,3.2098,3.3215,3.433,3.3483,3.2855,3.2698,3.2045,3.147,3.0999,3.0986,3.0986,3.0986,3.0986,3.0986,3.0986,3.0986,3.0986,3.0986,3.0986,3.0986,3.0986,3.0986,3.0986,3.0986,3.0986,3.0986,3.0986,3.0986,3.0986,3.0986,3.0986,3.0986,3.0986,3.0986,3.0986,3.0986,3.0986,3.0986,3.0986,3.0986,3.0986,3.0986,3.0986,3.0986,3.1053,3.1331,3.1461,3.1617,3.187,3.2418,3.2921,3.2912,3.3003,3.3124,3.3124,3.324,3.3283,3.3111,3.324,3.3283,3.3124,3.1198,2.9792,2.9792,2.9792,2.9792,2.9792,2.9792,2.9792,2.9792,2.9792,2.9792,2.9792,2.9792,2.9792,2.9792,2.9792,2.9792,2.9792,2.9792,2.9792,2.9792,2.9792,2.9792,2.9779,2.8574,2.8198,2.0595,2.0458,2.0273,1.9519,1.9676,1.9598,1.8194,0.0,1.9226,1.8573,0.0,1.9285,1.9399,0.0,0.0,2.0166,2.16,2.2729,2.2729,2.366,2.4607,2.5423,2.715,2.8838,3.0206,3.1312,3.2632,3.428,3.1993,3.1156,3.262,3.1666,3.1052,3.0986,3.0986,3.0986,3.0986,3.0986,3.0986,3.0986,3.0986,3.0986,3.0986,3.0986,3.0986,3.0986,3.0986,3.0986,3.0986,3.0986,3.0986,3.0986,3.0986,3.0986,3.0986,3.0986,3.0986,3.0986,3.0986,3.0986,3.0986,3.0986,3.0986,3.0986,3.0986,3.0986,3.0986,3.0986,3.0986,3.0999,3.1065,3.1419,3.1746,3.1578,3.1902,3.22,3.2122,3.2617,3.3124,3.3124,3.3738,3.4021,3.324,3.3738,3.3992,3.3197,3.1198,2.9792,2.9792,2.9792,2.9792,2.9792,2.9792,2.9792,2.9792,2.9792,2.9792,2.9792,2.9792,2.9792,2.9792,2.9792,2.9792,2.9792,2.9792,2.9792,2.9792,2.9792,2.9792,2.9792,2.9639,2.9186,2.0723,2.0752,2.0742,1.9873,1.986,1.9701,1.8473,1.856,1.8893,1.8748,0.0,0.0,0.0,0.0,0.0,0.0,2.0845,2.16,2.1331,2.2097,2.3213,2.4639,2.5804,2.7504,2.9972,3.0761,3.1772,3.33,3.1378,3.0701,3.2084,3.1431,3.0986,3.0986,3.0986,3.0986,3.0986,3.0986,3.0986,3.0986,3.0986,3.0986,3.0986,3.0986,3.0986,3.0986,3.0986,3.0986,3.0986,3.0986,3.0986,3.0986,3.0986,3.0986,3.0986,3.0986,3.0986,3.0986,3.0986,3.0986,3.0986,3.0986,3.0986,3.0986,3.0986,3.0986,3.0986,3.0986,3.0986,3.0986,3.0986,3.1169,3.1301,3.1238,3.1341,3.1471,3.1435,3.2157,3.2888,3.2888,3.3706,3.4272,3.3907,3.4147,3.3829,3.2156,3.0906,3.0152,3.0152,3.0203,3.0203,3.0049,3.0011,2.9972,2.9972,2.9869,2.9869,2.9972,2.9972,2.9934,2.9792,2.9895,2.9934,2.9792,2.9895,2.9934,2.9792,2.9934,2.9895,2.9792,2.9792,2.9585,2.0723,2.0801,2.084,1.9961,1.9746,1.9521,1.8617,1.8626,1.8868,1.9138,1.9121,0.0,0.0,0.0,1.9544,1.9761,0.0,2.0762,2.0307,2.0824,2.1787,2.3276,2.4676,2.65,2.909,2.9593,3.0488,3.2333,3.0531,3.0087,3.1719,3.13,3.0986,3.0986,3.0986,3.0986,3.0986,3.0986,3.0986,3.0986,3.0986,3.0986,3.0986,3.0986,3.0986,3.0986,3.0986,3.0986,3.0986,3.0986,3.0986,3.0986,3.0986,3.0986,3.0986,3.0986,3.0986,3.0986,3.0986,3.0986,3.0986,3.0986,3.0986,3.0986,3.0986,3.0986,3.0986,3.0986,3.0986,3.0986,3.0986,3.0986,3.0986,3.0986,3.0986,3.1052,3.1248,3.1954,3.2659,3.3077,3.3822,3.4397,3.4397,3.4397,3.3835,3.2176,3.115,3.0598,3.0753,3.0662,3.0508,3.019,3.0113,3.0113,3.0113,2.9934,2.9869,3.0011,3.0011,2.9972,2.9908,2.9972,2.9972,2.9869,2.9972,2.9972,2.9869,2.9972,2.9972,2.9869,2.983,2.9792,2.0723,2.0615,2.0419,1.9558,1.9307,1.9082,1.8223,1.8823,1.9485,1.9234,2.0021,2.0651,2.0411,2.0354,2.0245,1.9865,2.0151,0.0,0.0,1.9844,2.0111,2.0743,2.3702,2.6093,2.7084,2.7349,2.8655,3.1615,2.9187,2.8821,3.1654,3.13,3.0986,3.0986,3.0986,3.0986,3.0986,3.0986,3.0986,3.0986,3.0986,3.0986,3.0986,3.0986,3.0986,3.0986,3.0986,3.0986,3.0986,3.0986,3.0986,3.0986,3.0986,3.0986,3.0986,3.0986,3.0986,3.0986,3.0986,3.0986,3.0986,3.0986,3.0986,3.0986,3.0986,3.0986,3.0986,3.0986,3.0986,3.0986,3.0986,3.0986,3.0986,3.0986,3.0986,3.1196,3.1889,3.2071,3.2581,3.4058,3.4371,3.4397,3.4397,3.4397,3.4371,3.4293,3.2398,3.1134,3.1617,3.1023,3.047,3.0152,3.0113,3.0113,3.0113,2.9934,2.9792,2.9792,2.9792,2.9908,3.0075,2.9895,2.9895,3.0075,2.9895,2.9895,3.0075,2.9895,2.9895,3.0075,2.9908,2.9792,0.0,0.0,2.1551,2.0206,2.0137,2.0011,1.8691,1.9029,1.9515,1.9244,2.0062,2.0722,2.0442,2.0385,2.0379,2.0224,2.0079,1.9969,0.0,1.9533,1.9706,2.0638,2.3147,2.5182,2.6202,2.6678,2.7738,2.9775,2.8659,2.8885,3.1156,3.1091,3.0986,3.0986,3.0986,3.0986,3.0986,3.0986,3.0986,3.0986,3.0986,3.0986,3.0986,3.0986,3.0986,3.0986,3.0986,3.0986,3.0986,3.0986,3.0986,3.0986,3.0986,3.0986,3.0986,3.0986,3.0986,3.0986,3.0986,3.0986,3.0986,3.0986,3.0986,3.0986,3.0986,3.0986,3.0986,3.0986,3.0986,3.0986,3.0986,3.0986,3.1078,3.147,3.1261,3.1261,3.228,3.2502,3.2777,3.3692,3.4162,3.4397,3.4397,3.4397,3.4228,3.3757,3.313,3.2489,3.1837,3.1564,3.1099,3.0381,3.0419,3.0419,3.0292,3.0228,3.0152,3.0011,3.0011,3.0049,3.0113,3.0152,3.019,3.0113,3.0279,3.0279,3.0113,3.0279,3.0343,3.0292,3.0228,3.0049,2.1102,2.162,0.0,2.0671,2.0701,2.0673,1.9373,1.9783,2.0332,2.0054,2.0687,2.1305,2.1397,2.1135,2.0829,2.07,2.0286,1.9917,0.0,1.9295,1.9468,2.0433,2.2241,2.3988,2.534,2.5496,2.6378,2.8466,2.7954,2.8425,3.0457,3.0831,3.0986,3.0986,3.0986,3.0986,3.0986,3.0986,3.0986,3.0986,3.0986,3.0986,3.0986,3.0986,3.0986,3.0986,3.0986,3.0986,3.0986,3.0986,3.0986,3.0986,3.0986,3.0986,3.0986,3.0986,3.0986,3.0986,3.0986,3.0986,3.0986,3.0986,3.0986,3.0986,3.0986,3.0986,3.0986,3.0986,3.0986,3.0986,3.0986,3.0986,3.113,3.1667,3.1523,3.1601,3.2764,3.3012,3.3182,3.3757,3.4162,3.4397,3.4397,3.4397,3.4241,3.3757,3.3639,3.3313,3.2515,3.2058,3.1538,3.0855,3.0725,3.0609,3.0406,3.0457,3.0381,3.0113,3.019,3.0228,3.0228,3.033,3.033,3.0228,3.0457,3.0457,3.0228,3.0457,3.0571,3.0495,3.0495,3.0343]}]]